[[{"header":{"parameterUnit":"m.s-1","parameterCategory":1,"la1":30.6,"la2":29.2853,"lo1":-89.7004,"lo2":-87.6739,"dx":0.0162,"dy":0.0183,"nx":112,"ny":82,"refTime":"2023-01-30T06:00:00:Z","depth":0,"parameterNumber":2,"parameterNumberName":"U-component_of_WINDS"},"data":[0.0,0.0,0.0,0.0,0.0,0.0,0.0,0.0,0.0,0.0,0.0,0.0,0.0,0.0,0.0,0.0,0.0,0.0,0.0,0.0,0.0,0.0,0.0,0.0,0.0,0.0,0.0,0.0,0.0,0.0,0.0,0.0,0.0,0.0,0.0,0.0,0.0,0.0,0.0,0.0,0.0,0.0,0.0,0.0,0.0,0.0,0.0,0.0,0.0,0.0,0.0,0.0,0.0,0.0,0.0,0.0,0.0,0.0,0.0,0.0,0.0,0.0,0.0,0.0,0.0,0.0,0.0,0.0,0.0,0.0,0.0,0.0,0.0,0.0,0.0,0.0,0.0,0.0,0.0,0.0,0.0,0.0,0.0,0.0,0.0,0.0,0.0,0.0,0.0,0.0,1.3676,1.4547,1.4471,1.4376,1.4376,1.349,1.3042,1.332,0.0,0.0,0.0,0.0,0.0,0.0,0.0,0.0,0.0,0.0,0.0,0.0,0.0,0.0,0.0,0.0,0.0,0.0,0.0,0.0,0.0,0.0,0.0,0.0,0.0,0.0,0.0,0.0,0.0,0.0,0.0,0.0,0.0,0.0,0.0,0.0,0.0,0.0,0.0,0.0,0.0,0.0,0.0,0.0,0.0,0.0,0.0,0.0,0.0,0.0,0.0,0.0,0.0,0.0,0.0,0.0,0.0,0.0,0.0,0.0,0.0,0.0,0.0,0.0,0.0,0.0,0.0,0.0,0.0,0.0,0.0,0.0,0.0,0.0,0.0,0.0,0.0,0.0,0.0,0.0,0.0,0.0,0.0,0.0,0.0,0.0,0.0,0.0,0.0,0.0,0.0,0.0,0.0,0.0,0.0,0.0,0.0,0.0,0.0,0.0,0.0,0.0,0.0,0.0,1.3268,1.3801,1.3832,1.3818,1.3818,1.3106,1.2778,1.3049,0.0,0.0,0.0,0.0,0.0,0.0,0.0,0.0,0.0,0.0,0.0,0.0,0.0,0.0,0.0,0.0,0.0,0.0,0.0,0.0,0.0,0.0,0.0,0.0,0.0,0.0,0.0,0.0,0.0,0.0,0.0,0.0,0.0,0.0,0.0,0.0,0.0,0.0,0.0,0.0,0.0,0.0,0.0,0.0,0.0,0.0,0.0,0.0,0.0,0.0,0.0,0.0,0.0,0.0,0.0,0.0,0.0,0.0,0.0,0.0,0.0,0.0,0.0,0.0,0.0,0.0,0.0,0.0,0.0,0.0,0.0,0.0,0.0,0.0,0.0,0.0,0.0,0.0,0.0,0.0,0.0,0.0,0.0,0.0,0.0,0.0,0.0,0.0,0.0,0.0,0.0,0.0,0.0,0.0,0.0,0.0,0.0,0.0,0.0,0.0,0.0,0.0,0.0,1.3076,1.3037,1.3105,1.3091,1.3091,1.3091,1.2665,1.2559,1.2961,1.3181,0.0,0.0,0.0,0.0,0.0,0.0,0.0,0.0,0.0,0.0,0.0,0.0,0.0,0.0,0.0,0.0,0.0,0.0,0.0,0.0,0.0,0.0,0.0,0.0,0.0,0.0,0.0,0.0,0.0,0.0,0.0,0.0,0.0,0.0,0.0,0.0,0.0,0.0,0.0,0.0,0.0,0.0,0.0,0.0,0.0,0.0,0.0,0.0,0.0,0.0,0.0,0.0,0.0,0.0,0.0,0.0,0.0,0.0,0.0,0.0,0.0,0.0,0.0,0.0,0.0,0.0,0.0,0.0,0.0,0.0,0.0,0.0,0.0,0.0,0.0,0.0,0.0,0.0,0.0,0.0,0.0,0.0,0.0,0.0,0.0,0.0,0.0,0.0,0.0,0.0,0.0,0.0,0.0,0.0,0.0,0.0,0.0,0.0,0.0,0.0,0.0,0.0,1.285,1.2703,1.2445,1.2416,1.2416,1.2416,1.2231,1.2312,1.2785,1.2722,0.0,0.0,0.0,0.0,0.0,0.0,0.0,0.0,0.0,0.0,0.0,0.0,0.0,0.0,0.0,0.0,0.0,0.0,0.0,0.0,0.0,0.0,0.0,0.0,0.0,0.0,0.0,0.0,0.0,0.0,0.0,0.0,0.0,0.0,0.0,0.0,0.0,0.0,0.0,0.0,0.0,0.0,0.0,0.0,0.0,0.0,0.0,0.0,0.0,0.0,0.0,0.0,0.0,0.0,0.0,0.0,0.0,0.0,0.0,0.0,0.0,0.0,0.0,0.0,0.0,0.0,0.0,0.0,0.0,0.0,0.0,0.0,0.0,0.0,0.0,0.0,0.0,0.0,0.0,0.0,0.0,0.0,0.0,0.0,0.0,0.0,0.0,0.0,0.0,0.0,0.0,0.0,0.0,0.0,0.0,0.0,0.0,0.0,0.0,0.0,0.0,0.0,1.2412,1.2149,1.1876,1.1854,1.1854,1.1854,1.1848,1.194,1.2231,1.2659,0.0,0.0,0.0,0.0,0.0,0.0,0.0,0.0,0.0,0.0,0.0,0.0,0.0,0.0,0.0,0.0,0.0,0.0,0.0,0.0,0.0,0.0,0.0,0.0,0.0,0.0,0.0,0.0,0.0,0.0,0.0,0.0,0.0,0.0,0.0,0.0,0.0,0.0,0.0,0.0,0.0,0.0,0.0,0.0,0.0,0.0,0.0,0.0,0.0,0.0,0.0,0.0,0.0,0.0,0.0,0.0,0.0,0.0,0.0,0.0,0.0,0.0,0.0,0.0,0.0,0.0,0.0,0.0,0.0,0.0,0.0,0.0,0.0,0.0,0.0,0.0,0.0,0.0,0.0,0.0,0.0,0.0,0.0,0.0,0.0,0.0,0.0,0.0,0.0,0.0,0.0,0.0,0.0,0.0,0.0,0.0,0.0,0.0,0.0,0.0,0.0,0.0,1.2372,1.2112,0.0,1.1805,1.1805,1.1805,1.1805,1.1908,1.2169,0.0,0.0,0.0,0.0,0.0,0.0,0.0,0.0,0.0,0.0,0.0,0.0,0.0,0.0,0.0,0.0,0.0,0.0,0.0,0.0,0.0,0.0,0.0,0.0,0.0,0.0,0.0,0.0,0.0,0.0,0.0,0.0,0.0,0.0,0.0,0.0,0.0,0.0,0.0,0.0,0.0,0.0,0.0,0.0,0.0,0.0,0.0,0.0,0.0,0.0,0.0,0.0,0.0,0.0,0.0,0.0,0.0,0.0,0.0,0.0,0.0,0.0,0.0,0.0,0.0,0.0,0.0,0.0,0.0,0.0,0.0,0.0,0.0,0.0,0.0,0.0,0.0,0.0,0.0,0.0,0.0,0.0,0.0,0.0,0.0,0.0,0.0,0.0,0.0,0.0,0.0,0.0,0.0,0.0,0.0,0.0,0.0,0.0,0.0,0.0,0.0,0.0,1.2335,1.2087,1.1807,0.0,1.1505,1.1505,1.1505,1.1681,1.1833,1.1903,0.0,0.0,0.0,0.0,0.0,0.0,0.0,0.0,0.0,0.0,0.0,0.0,0.0,0.0,0.0,0.0,0.0,0.0,0.0,0.0,0.0,0.0,0.0,0.0,0.0,0.0,0.0,0.0,0.0,0.0,0.0,0.0,0.0,0.0,0.0,0.0,0.0,0.0,0.0,0.0,0.0,0.0,0.0,0.0,0.0,0.0,0.0,0.0,0.0,0.0,0.0,0.0,0.0,0.0,0.0,0.0,0.0,0.0,0.0,0.0,0.0,0.0,0.0,0.0,0.0,0.0,0.0,0.0,0.0,0.0,0.0,0.0,0.0,0.0,0.0,0.0,0.0,0.0,0.0,0.0,0.0,0.0,0.0,0.0,0.0,0.0,0.0,0.0,0.0,0.0,0.0,0.0,0.0,0.0,0.0,0.0,0.0,0.0,0.0,0.0,0.0,0.0,1.1743,1.1468,1.1196,1.0932,1.0897,1.0897,1.0897,1.1449,1.1645,0.0,0.0,0.0,0.0,0.0,0.0,0.0,0.0,0.0,0.0,0.0,0.0,0.0,0.0,0.0,0.0,0.0,0.0,0.0,0.0,0.0,0.0,0.0,0.0,0.0,0.0,0.0,0.0,0.0,0.0,0.0,0.0,0.0,0.0,0.0,0.0,0.0,0.0,0.0,0.0,0.0,0.0,0.0,0.0,0.0,0.0,0.0,0.0,0.0,0.0,0.0,0.0,0.0,0.0,0.0,0.0,0.0,0.0,0.0,0.0,0.0,0.0,0.0,0.0,0.0,0.0,0.0,0.0,0.0,0.0,0.0,0.0,0.0,0.0,0.0,0.0,0.0,0.0,0.0,0.0,0.0,0.0,0.0,0.0,0.0,0.0,0.0,0.0,0.0,0.0,0.0,0.0,0.0,0.0,0.0,0.0,0.0,0.0,0.0,0.0,0.0,0.0,0.0,1.1689,1.1304,1.0991,1.0908,1.0897,1.0956,1.1097,1.127,1.0672,0.9006,0.0,0.0,0.0,0.0,0.0,0.0,0.0,0.0,0.0,0.0,0.0,0.0,0.0,0.0,0.0,0.0,0.0,0.0,0.0,0.0,0.0,0.0,0.0,0.0,0.0,0.0,0.0,0.0,0.0,0.0,0.0,0.0,0.0,0.0,0.0,0.0,0.0,0.0,0.0,0.0,0.0,0.0,0.0,0.0,0.0,0.0,0.0,0.0,0.0,0.0,0.0,0.0,0.0,0.0,0.0,0.0,0.0,0.0,0.0,0.0,0.0,0.0,0.0,0.0,0.0,0.0,0.0,0.0,0.0,0.0,0.0,0.0,0.0,0.0,0.0,0.0,0.0,0.0,0.0,0.0,0.0,0.0,0.0,0.0,0.0,0.0,0.0,0.0,0.0,0.0,0.0,0.0,0.0,0.0,0.0,0.0,0.0,0.0,0.0,0.0,0.0,0.0,1.1357,1.0985,1.0655,1.0521,1.0496,1.0545,1.0667,0.9484,0.879,0.8967,0.0,0.0,0.0,0.0,0.0,0.0,0.0,0.0,0.0,0.0,0.0,0.0,0.0,0.0,0.0,0.0,0.0,0.0,0.0,0.0,0.0,0.0,0.0,0.0,0.0,0.0,0.0,0.0,0.0,0.0,0.0,0.0,0.0,0.0,0.0,0.0,0.0,0.0,0.0,0.0,0.0,0.0,0.0,0.0,0.0,0.0,0.0,0.0,0.0,0.0,0.0,0.0,0.0,0.0,0.0,0.0,0.0,0.0,0.0,0.0,0.0,0.0,0.0,0.0,0.0,0.0,0.0,0.0,0.0,0.0,0.0,0.0,0.0,0.0,0.0,0.0,0.0,0.0,0.0,0.0,0.0,0.0,0.0,0.0,0.0,0.0,0.0,0.0,0.0,0.0,0.0,0.0,0.0,0.0,0.0,0.0,0.0,0.0,0.0,0.0,0.0,0.0,1.0863,1.0556,1.0248,0.9944,0.9905,0.9905,0.9905,0.7175,0.6928,1.0406,0.0,0.0,0.0,0.0,0.0,0.0,0.0,0.0,0.0,0.0,0.0,0.0,0.0,0.0,0.0,0.0,0.0,0.0,0.0,0.0,0.0,0.0,0.0,0.0,0.0,0.0,0.0,0.0,0.0,0.0,0.0,0.0,0.0,0.0,0.0,0.0,0.0,0.0,0.0,0.0,0.0,0.0,0.0,0.0,0.0,0.0,0.0,0.0,0.0,0.0,0.0,0.0,0.0,0.0,0.0,0.0,0.0,0.0,0.0,0.0,1.586,0.0,0.0,0.0,0.0,0.0,0.0,0.0,0.0,0.0,0.0,0.0,0.0,0.0,0.0,0.0,0.0,0.0,0.0,0.0,0.0,0.0,0.0,0.0,0.0,0.0,0.0,0.0,0.0,0.0,0.0,0.0,0.0,0.0,0.0,0.0,0.0,0.0,0.0,0.0,0.0,0.0,1.0561,1.021,0.9983,0.9918,0.9905,0.9905,0.9905,0.9253,0.9422,1.076,0.5598,0.0,0.0,0.0,0.0,0.0,0.0,0.0,0.0,0.0,0.0,0.0,0.0,0.0,0.0,0.0,0.0,0.0,0.0,0.0,0.0,0.0,0.0,0.0,0.0,0.0,0.0,0.0,0.0,0.0,0.0,0.0,0.0,0.0,0.0,0.0,0.0,0.0,0.0,0.0,0.0,0.0,0.0,0.0,0.0,0.0,0.0,0.0,0.0,0.0,0.0,0.0,0.0,0.0,0.0,0.0,0.0,0.0,0.0,0.0,0.0,1.5476,0.0,0.0,0.0,0.0,0.0,0.0,0.0,0.0,0.0,0.0,0.0,0.0,0.0,0.0,0.0,0.0,0.0,0.0,0.0,0.0,0.0,0.0,0.0,0.0,0.0,0.0,0.0,0.0,0.0,0.0,0.0,0.0,0.0,0.0,0.0,0.0,0.0,0.0,0.0,0.0,1.0451,1.011,0.9905,0.9905,0.9905,0.9905,0.9905,0.9905,0.9383,0.8146,0.6283,0.0,0.0,0.0,0.0,0.0,0.0,0.0,0.0,0.0,0.0,0.0,0.0,0.0,0.0,0.0,0.0,0.0,0.0,0.0,0.0,0.0,0.0,0.0,0.0,0.0,0.0,0.0,0.0,0.0,0.0,0.0,0.0,0.0,0.0,0.0,0.0,0.0,0.0,0.0,0.0,0.0,0.0,0.0,0.0,0.0,0.0,0.0,0.0,0.0,0.0,0.0,0.0,0.0,1.6009,1.599,1.5896,1.5896,1.5713,1.5358,1.4701,1.4625,1.4962,1.5212,0.0,0.0,0.0,0.0,0.0,0.0,0.0,0.0,0.0,0.0,0.0,0.0,0.0,0.0,0.0,0.0,0.0,0.0,0.0,0.0,0.0,0.0,0.0,0.0,1.2102,1.2467,0.0,0.0,0.0,0.0,0.0,0.0,0.0,0.0,0.0,0.0,0.0,0.0,1.0495,1.0123,0.9905,0.9905,0.9905,0.9905,0.9905,0.9905,0.8738,0.6024,0.7834,0.6811,0.0,0.0,0.0,0.0,0.0,0.0,0.0,0.0,0.0,0.0,0.0,0.0,0.0,0.0,0.0,0.0,0.0,0.0,0.0,0.0,0.0,0.0,0.0,0.0,0.0,0.0,0.0,0.0,0.0,0.0,0.0,0.0,1.7862,1.8321,0.0,0.0,0.0,0.0,0.0,0.0,0.0,0.0,0.0,0.0,0.0,0.0,0.0,1.6638,1.6009,1.6178,1.6046,1.5578,1.5704,1.5508,1.5057,1.5057,1.5038,1.4955,1.4383,0.0,1.4709,1.4288,0.0,0.0,0.0,0.0,0.0,0.0,0.0,0.0,0.0,0.0,0.0,0.0,0.0,0.0,0.0,0.0,0.0,0.0,0.0,0.0,0.0,0.0,1.1884,1.1811,1.1847,1.1807,0.0,1.2342,1.3198,1.3198,1.281,0.0,0.0,0.0,0.0,0.0,0.0,0.0,1.0725,1.0221,0.9905,0.9905,0.9905,0.9905,0.9905,0.9905,0.9717,0.9278,0.4344,0.3584,0.8399,0.399,0.0,0.0,0.0,0.0,0.0,0.0,0.0,0.0,0.0,0.0,0.0,0.0,0.0,0.0,0.0,0.0,0.0,0.0,0.0,0.0,0.0,0.0,0.0,0.0,0.0,0.0,0.0,0.0,0.0,1.7897,1.762,1.724,1.7671,1.7993,0.0,0.0,0.0,0.0,0.0,0.0,0.0,0.0,0.0,1.633,1.6519,1.64,1.5873,1.6224,1.6289,1.6066,1.6115,1.6032,1.5793,1.5793,1.5496,1.4918,1.4347,1.3874,1.3527,1.3474,1.3732,1.4167,0.0,0.0,0.0,0.0,1.4196,1.3994,1.4143,1.4032,0.0,1.3559,0.0,0.0,0.0,0.0,0.0,0.0,0.0,0.0,0.0,0.0,0.0,1.101,1.0996,1.0966,1.0749,1.1228,1.169,0.0,1.2078,1.2398,1.2405,0.0,0.0,0.0,0.0,1.1851,1.1286,1.0998,1.0721,1.0382,1.0344,1.0231,0.9931,0.9905,0.9905,0.9905,0.7169,0.5198,0.4369,0.5122,0.5323,0.0,0.0,0.0,0.0,0.0,0.0,0.0,0.0,0.0,0.0,0.0,0.0,0.0,0.0,0.0,0.0,0.0,0.0,0.0,0.0,0.0,0.0,0.0,0.0,0.0,0.0,0.0,0.0,1.7461,1.719,1.6389,1.6886,1.7295,0.0,0.0,0.0,0.0,0.0,0.0,1.7312,1.6693,1.6209,1.5906,1.6202,1.6209,1.5906,1.6287,1.65,1.65,1.6324,1.6259,1.6259,1.6107,1.5627,1.4886,1.4302,1.3544,1.2736,1.2758,1.2902,1.3122,1.3077,1.3461,1.3973,1.3576,1.3334,1.3281,1.3718,1.376,1.3637,1.3637,0.0,1.3773,1.3172,0.0,0.0,0.0,0.0,1.1858,1.1027,1.081,1.0725,1.037,1.0331,1.0337,1.0221,1.0299,1.0434,0.0,1.1279,1.181,1.1757,0.0,0.0,0.0,0.0,1.2266,1.1851,1.1676,1.1425,1.0983,1.0933,1.0758,1.037,1.0194,1.0093,1.0093,0.9981,0.7683,0.2737,0.5649,0.5976,0.303,0.0,0.0,0.0,0.0,0.0,0.0,0.0,0.0,0.0,0.0,0.0,0.0,0.0,0.0,0.0,0.0,0.0,0.0,0.0,0.0,0.0,0.0,0.0,0.0,0.0,0.0,0.0,0.0,0.0,1.5754,1.6658,0.0,0.0,0.0,0.0,1.8106,1.7605,1.7312,1.7312,1.679,1.6471,1.645,1.6471,1.6471,1.645,1.6488,1.65,1.6488,1.5908,1.5654,1.5632,1.5062,1.4755,1.4687,1.4138,1.3576,1.3007,1.2191,1.2178,1.2664,1.3047,1.3562,1.4134,1.4485,1.4253,1.3752,1.3797,1.3426,1.2939,1.2939,1.3341,1.37,1.3169,1.3087,0.0,0.0,1.1416,1.0956,1.0458,1.0341,1.0322,1.0303,1.0302,1.0171,0.9733,0.9885,1.0284,0.0,1.0618,1.0595,1.145,0.0,1.1839,1.2341,1.24,1.2388,1.235,1.1914,1.159,1.1565,1.1538,1.1538,1.1515,1.0983,1.0656,1.0656,1.0181,0.9755,0.9416,0.3666,0.3822,1.0886,1.1402,0.0,0.0,0.0,0.0,0.0,0.0,0.0,0.0,0.0,0.0,0.0,0.0,0.0,0.0,0.0,0.0,0.0,0.0,0.0,0.0,0.0,0.0,0.0,0.0,0.0,0.0,0.0,0.0,1.5731,1.6041,0.0,1.6278,1.6449,1.6706,1.705,1.69,1.6795,1.6795,1.6247,1.5908,1.5908,1.5533,1.5344,1.5344,1.5344,1.5344,1.5344,1.513,1.5017,1.5017,1.4789,1.4314,1.3669,1.3463,1.2908,1.2113,1.1808,1.2163,1.2904,1.2661,1.2928,1.3452,1.3528,1.3223,1.2799,1.3124,1.3079,1.2905,1.2905,1.3041,1.3194,1.2986,1.2764,1.2442,1.1811,1.1296,1.0835,1.041,1.0303,1.0303,1.0303,1.0068,0.9794,0.9623,0.949,0.9528,1.0005,1.0334,1.0558,1.068,1.1486,1.2178,1.2363,1.2701,1.2897,1.2897,1.2751,1.25,1.2153,1.2115,1.1977,1.164,1.1399,1.1109,1.0719,1.0518,1.0256,0.9918,0.7633,0.5662,0.4161,0.693,0.8063,0.0,0.0,0.0,0.0,0.0,0.0,0.0,0.0,0.0,0.0,0.0,0.0,0.0,0.0,0.0,0.0,0.0,0.0,0.0,0.0,0.0,0.0,0.0,0.0,0.0,0.0,1.6287,1.5756,1.5856,1.5969,1.5969,1.579,1.58,1.617,1.602,1.5876,1.5876,1.5511,1.5298,1.5298,1.4903,1.4698,1.4698,1.4698,1.4698,1.4698,1.4491,1.4399,1.4376,1.4177,1.3715,1.303,1.303,1.2637,1.2034,1.2034,1.2433,1.2973,1.2414,1.2437,1.281,1.2873,1.2695,1.249,1.2783,1.2905,1.2905,1.2905,1.2905,1.2905,1.2905,1.2578,1.2116,1.1712,1.1271,1.0811,1.041,1.0303,1.0303,1.0303,1.0059,0.9833,0.9804,0.9599,0.947,0.9709,0.9953,1.0099,1.0128,1.1125,1.1957,1.2112,1.2751,1.3198,1.3198,1.3198,1.306,1.2714,1.2676,1.2526,1.2178,1.1977,1.1701,1.1297,1.1096,1.0833,1.0483,0.9629,0.6971,0.2317,0.5109,0.777,1.0133,0.0,0.0,0.0,0.0,0.0,0.0,0.0,0.0,0.0,0.0,0.0,0.0,0.0,0.0,0.0,0.0,0.0,0.0,0.0,0.0,0.0,0.0,0.0,1.5793,1.6162,1.6278,1.576,1.6174,1.6466,1.6457,1.593,1.5588,1.5565,1.5028,1.4698,1.4698,1.4675,1.4675,1.4675,1.4652,1.4629,1.4629,1.4629,1.4629,1.464,1.405,1.3768,1.3755,1.3176,1.2905,1.2905,1.2905,1.2905,1.2905,1.2905,1.2905,1.2842,1.2389,1.2213,1.2262,1.2725,1.2905,1.2905,1.2905,1.2905,1.2905,1.2905,1.2905,1.2905,1.2905,1.2578,1.2116,1.1712,1.1271,1.0811,1.041,1.0303,1.0303,1.0303,1.0303,1.0271,1.0218,1.0198,1.0186,1.0141,0.9483,0.9162,0.9892,1.0579,1.1152,1.1555,1.2513,0.0,1.3198,1.3198,1.3198,1.3198,1.3198,1.3198,1.3198,1.2726,1.2413,1.24,1.1914,1.1628,1.1615,0.919,0.7498,0.6774,0.6813,0.9369,1.4501,0.0,0.0,0.0,0.0,0.0,0.0,0.0,0.0,0.0,0.0,0.0,0.0,0.0,0.0,0.0,0.0,0.0,0.0,0.0,0.0,0.0,1.6139,1.5959,1.6244,1.6031,1.5782,1.5637,1.5758,1.5688,1.5242,1.5432,1.541,1.4994,1.4789,1.4698,1.4698,1.4283,1.405,1.405,1.3634,1.3382,1.3382,1.3382,1.3382,1.3382,1.3224,1.3152,1.3152,1.2968,1.2905,1.2905,1.2905,1.2905,1.2905,1.2905,1.2905,1.2895,1.2754,1.251,1.2262,1.2725,1.2905,1.2905,1.2905,1.2905,1.2905,1.2905,1.2905,1.2905,1.2905,1.2578,1.2116,1.1712,1.1271,1.0811,1.041,1.0303,1.0303,1.0303,1.0303,1.0283,1.028,1.0269,1.038,1.0699,1.0016,0.9657,1.044,1.1058,1.1606,1.2099,1.2764,0.0,1.3198,1.3198,1.3198,1.3198,1.3198,1.3198,1.3198,1.306,1.2797,1.2413,1.225,1.2115,1.1967,1.1261,1.0671,1.0232,1.1615,1.3046,0.0,0.0,0.0,0.0,0.0,0.0,0.0,0.0,0.0,0.0,0.0,0.0,0.0,0.0,0.0,0.0,0.0,0.0,0.0,0.0,0.0,0.0,1.5444,1.5402,1.5919,1.5551,1.5231,1.5231,1.5231,1.5085,1.4721,1.4778,1.471,1.4352,1.4084,1.3954,1.3954,1.361,1.342,1.342,1.3079,1.2905,1.2905,1.2905,1.2905,1.2905,1.2905,1.2905,1.2905,1.2905,1.2905,0.0,1.2905,1.2905,1.2905,1.2905,1.2905,0.0,0.0,0.0,0.0,0.0,1.2905,1.2905,1.2905,1.2905,1.2905,1.2905,1.2905,1.2905,1.2905,1.2705,1.2373,1.176,1.1398,1.1066,1.0459,1.0303,1.0303,1.0303,1.0303,1.0303,1.0303,1.0303,1.037,1.0649,0.0,0.0,1.0764,1.1162,1.162,1.2302,1.2864,1.3198,1.3198,1.3198,1.3198,1.3198,1.3198,1.3198,1.3198,1.3198,0.0,0.0,0.0,1.2689,1.258,1.2354,0.0,0.0,0.0,1.3109,1.2112,0.0,0.0,0.0,1.2541,1.2758,0.0,0.0,0.0,0.0,0.0,0.0,0.0,0.0,0.0,0.0,0.0,0.0,0.0,0.0,0.0,0.0,1.474,1.4882,1.5231,1.4898,1.4635,1.4649,1.4617,1.456,1.4502,1.4073,1.3768,1.3708,1.319,1.2905,1.2905,0.0,0.0,0.0,0.0,1.2905,1.2905,1.2905,1.2905,1.2905,1.2905,1.2905,1.2905,1.2798,1.2774,1.2774,1.27,1.2666,1.2666,1.2666,1.2666,1.2666,1.2832,1.2905,1.2905,1.2905,1.2905,1.2905,1.2905,0.0,0.0,1.2905,1.2905,1.2905,1.2905,1.2905,1.2729,1.1888,1.1623,1.142,1.0586,1.0332,1.0303,1.0303,1.0303,1.0303,1.0303,1.0303,1.0322,1.038,1.0298,1.0391,1.0983,1.1082,1.1353,1.2218,1.2737,1.3072,1.3186,1.3216,1.3233,1.3298,0.0,0.0,1.3315,1.3303,1.3303,1.3303,1.3303,1.3323,1.3403,1.2927,1.2902,1.3373,1.2889,1.156,0.9416,0.9466,0.9366,0.9089,0.8821,0.9006,0.0,0.0,0.0,0.0,0.0,0.0,0.0,0.0,0.0,0.0,0.0,0.0,0.0,0.0,0.0,1.5185,1.5098,1.5046,1.513,1.4604,1.4272,1.443,1.4156,1.3779,1.3296,1.3576,1.36,1.3104,1.2978,1.2905,1.2905,1.2905,1.2905,1.2905,1.2905,1.2905,1.2905,1.2905,1.2905,1.2905,0.0,0.0,1.2881,1.2286,1.1996,1.1972,1.145,1.12,1.12,1.12,1.12,1.1334,1.2461,1.2905,1.2905,1.2905,1.2905,1.2905,1.2905,1.2905,1.2905,1.2905,1.2905,1.2905,1.2905,1.2905,0.0,1.2246,1.1836,1.1467,1.0928,1.0537,1.0303,1.0303,1.0303,1.0303,1.0303,1.0303,1.0409,1.0791,1.054,1.0577,1.1494,1.1242,1.1147,1.1823,1.1997,1.2361,1.3184,1.3287,1.3454,1.3867,1.4305,1.4393,1.3959,1.3934,1.3934,1.3934,1.3934,1.4123,1.4557,1.4469,1.4469,1.4569,1.4143,1.3704,1.324,1.3559,1.384,1.4018,1.3701,1.1765,0.0,0.0,0.0,0.0,0.0,0.0,0.0,0.0,0.0,0.0,0.0,1.4475,1.4149,0.0,1.4706,1.4706,1.4629,1.4689,1.4912,1.4456,1.4132,1.425,1.4063,1.3751,1.3263,1.3661,1.3661,1.2959,1.3101,1.3105,1.2915,1.2905,1.3003,1.3184,1.3193,1.3043,1.2708,1.2708,1.241,1.1841,1.1841,1.1841,1.1841,1.1475,1.1291,1.1291,1.0939,1.0788,1.0788,1.0788,1.0788,1.0889,1.1931,1.2344,1.2344,1.2344,1.2584,1.2905,1.2905,1.2905,1.2905,1.2905,1.2905,1.2905,1.2905,1.2905,1.2793,1.233,1.1904,1.1477,1.1025,1.0596,1.0303,1.0303,1.0303,1.0303,1.0303,1.0303,1.038,1.0592,1.0467,1.0633,1.1662,1.1329,1.1158,1.1986,1.2095,1.2484,1.3517,1.3368,1.3376,1.3994,1.3986,1.3974,1.4038,1.4331,1.45,1.45,1.45,1.4626,1.4884,1.4896,1.4896,1.4896,1.4689,1.4601,1.4601,1.4796,1.5123,1.5555,1.5367,1.3979,0.0,0.0,0.0,0.0,0.0,0.0,0.0,1.4,1.3793,1.3416,1.359,1.3777,1.3633,1.3948,1.4231,1.4231,1.4299,1.4475,1.4853,1.46,1.4358,1.4358,1.4202,1.3977,1.3662,1.3909,1.3792,1.3057,1.3311,1.332,1.2925,1.2959,1.308,1.3266,1.3352,1.3032,1.2263,1.2307,1.1852,1.0895,1.0895,1.0895,1.0895,1.0694,1.0618,1.0593,1.0466,1.0415,1.0415,1.0415,1.0415,1.0491,1.1141,1.1491,1.1641,1.1898,1.2403,1.2905,1.2905,1.2905,1.2905,1.2905,1.2905,1.2905,1.2905,1.2905,1.2812,1.2428,1.2031,1.1614,1.1152,1.0802,1.0508,1.0342,1.0361,1.042,1.042,1.042,1.043,1.0537,1.0547,1.0855,1.1856,1.1562,1.1501,1.23,1.232,1.2676,1.3866,1.3563,1.351,1.424,1.3953,1.3861,1.4293,1.4772,1.5047,1.5047,1.5047,1.5097,1.5211,1.5211,1.5211,1.5211,1.5211,1.5211,1.5211,1.5211,1.5417,1.5856,1.5856,1.5618,1.3152,1.3334,1.3708,1.3768,1.3839,1.411,0.0,1.4709,1.4418,1.479,1.4899,1.4748,1.4142,1.4424,1.4717,1.4717,1.5029,1.5283,1.5342,1.5303,1.5235,1.5235,1.4572,1.4085,1.4036,1.4075,1.3909,1.3477,1.3477,1.332,1.2925,1.3232,1.3116,1.2455,1.2788,1.2466,1.1446,1.168,1.16,1.1247,1.1247,1.1247,1.1212,1.0332,0.9909,0.9891,0.929,0.9035,0.9035,0.9035,0.9035,0.908,0.9762,1.0389,1.1065,1.2329,1.2832,1.2905,1.2905,1.2905,1.2905,1.2905,1.2905,1.2905,1.2905,1.2905,1.2895,1.2846,1.249,1.2051,1.1623,1.1498,1.1263,1.0479,1.0566,1.084,1.084,1.084,1.0957,1.1359,1.1459,1.1662,1.232,1.2362,1.2362,1.2467,1.2034,1.2262,1.389,1.4011,1.4375,1.5389,1.5865,1.5952,1.5541,1.5565,1.5605,1.5605,1.5605,1.5819,1.6287,1.6312,1.6312,1.6312,1.6312,1.6312,1.6312,1.6312,1.6337,1.64,1.64,1.6375,1.3055,1.3079,1.3323,1.3574,1.3635,1.3806,1.4461,1.4409,1.4288,1.4489,1.474,1.4839,1.4566,1.4863,1.5146,1.5146,1.5293,1.541,1.541,1.5205,1.5049,1.5049,1.4484,1.4104,1.4104,1.4562,1.4367,1.3232,1.3399,1.3245,1.258,1.2484,1.2417,1.2355,1.2507,1.2187,1.1316,1.1399,1.1007,1.0089,1.0089,0.9994,0.9838,0.9425,0.9211,0.9211,0.8936,0.9008,0.9387,0.9387,0.9614,1.0038,1.0686,1.1141,1.1441,1.203,1.2525,1.2905,1.2905,1.2905,1.2905,1.2905,1.2905,1.2905,1.2905,1.2905,1.2905,1.2905,1.2568,1.2164,1.2002,1.178,1.1508,1.1134,1.1183,1.131,1.131,1.1576,1.1796,1.1632,1.217,1.2796,1.3345,1.3432,1.3628,1.4222,1.3597,1.3521,1.4815,1.4663,1.4619,1.506,1.5622,1.5889,1.5657,1.5968,1.617,1.617,1.617,1.6283,1.6488,1.65,1.65,1.65,1.65,1.65,1.65,1.65,1.65,1.65,1.65,1.65,1.3017,1.2993,1.315,1.3437,1.3594,1.3773,1.4192,1.428,1.4319,1.4436,1.4648,1.4813,1.4813,1.5039,1.5234,1.5234,1.5129,1.5079,1.5079,1.4553,1.4176,1.4176,1.3886,1.3652,1.3503,1.426,1.4238,1.2982,1.3032,1.2842,1.2183,1.1972,1.1926,1.2054,1.2158,1.1824,1.0981,1.1076,1.0555,0.9451,0.9371,0.9224,0.9045,0.8878,0.8804,0.8804,0.8804,0.9087,0.951,0.951,0.9814,1.0312,1.099,1.1241,1.1266,1.1466,1.2113,1.2905,1.2905,1.2905,1.2905,1.2905,1.2905,1.2905,1.2905,1.2905,1.2905,1.2905,1.2656,1.2359,1.2233,1.208,1.191,1.1665,1.1672,1.177,1.177,1.2103,1.2341,1.2007,1.2804,1.3671,1.4192,1.4403,1.4824,1.5716,1.5225,1.4967,1.554,1.5354,1.5197,1.5197,1.5599,1.5842,1.5842,1.6238,1.65,1.65,1.65,1.65,1.65,1.65,1.65,1.65,1.65,1.65,1.65,1.65,1.65,1.65,1.65,1.65,1.2905,1.3174,1.3486,1.3506,1.3792,1.4202,1.4668,1.4766,1.4883,1.5293,1.5059,1.4813,1.4813,1.4795,1.4833,1.4833,1.4494,1.4243,1.4243,1.3315,1.2684,1.2684,1.2639,1.2459,0.0,1.2712,1.3104,1.2923,1.2319,1.1875,1.1739,1.2135,1.1988,1.116,1.1585,1.1278,1.0151,1.0463,1.0425,1.0057,0.9806,0.9695,0.9668,0.9065,0.8804,0.8804,0.8804,0.8804,0.8831,0.8831,0.8831,0.8936,0.9588,0.9865,0.9943,1.0585,1.1717,1.2905,1.2905,1.2905,1.2905,1.2905,1.2905,1.2905,1.2905,1.2905,1.2905,1.2905,1.2895,1.2764,1.232,1.2529,1.2651,1.1812,1.1895,1.2184,1.2184,1.2207,1.2334,1.2788,1.3355,1.3971,1.4584,1.5163,1.5752,1.638,1.6454,1.6225,1.5676,1.6095,1.6457,1.6457,1.6457,1.6466,1.6466,1.65,1.65,1.65,1.65,1.65,1.65,1.65,1.65,1.65,1.65,1.65,1.65,1.65,1.65,1.65,1.65,1.65,1.3223,1.3398,1.3711,1.4561,1.4855,1.5098,1.5566,1.541,1.5156,1.5029,1.4648,1.4328,1.4328,1.3965,1.3747,1.396,1.3513,1.3211,1.3391,1.2852,1.248,1.248,1.2192,0.0,0.0,0.0,0.0,1.215,1.1719,1.1449,1.1311,1.1232,1.1076,1.0767,1.0933,1.0815,1.0445,1.0539,1.0445,1.0077,0.959,0.9285,0.9098,0.8898,0.8804,0.8804,0.8804,0.9061,0.9465,0.9465,0.9718,1.0141,1.0389,1.0737,1.1166,1.1391,1.2064,1.2832,1.2344,1.2476,1.2905,1.2905,1.2905,1.2905,1.2905,1.2905,1.2905,1.2905,1.2905,1.2866,1.2695,1.2773,1.2827,1.2533,1.2573,1.2656,1.2656,1.2969,1.3189,1.2939,1.3705,1.4329,1.4143,1.4606,1.5062,1.5265,1.5998,1.6281,1.5676,1.5776,1.5754,1.5354,1.531,1.531,1.531,1.531,1.5466,1.5886,1.5908,1.6073,1.6466,1.65,1.65,1.65,1.65,1.65,1.65,1.65,1.65,1.65,1.65,1.65,1.3437,1.373,1.416,1.498,1.5303,1.5488,1.5762,1.5312,1.4754,1.4496,1.3753,1.3209,1.3294,1.2878,1.2642,1.2946,1.2438,1.2078,1.2334,1.1828,1.146,1.1583,1.1304,1.113,1.113,0.0,0.0,1.1511,1.11,1.0889,1.092,1.0729,1.0593,1.0593,1.0593,1.0593,1.0593,1.0593,1.0392,0.996,0.9444,0.9058,0.8804,0.8804,0.8804,0.8804,0.8804,0.9035,0.9439,0.9439,0.9684,1.009,1.009,1.0491,1.1091,1.1091,1.1683,1.2476,1.227,1.2501,1.2905,1.2905,1.2905,1.2905,1.2905,1.2905,1.2905,1.2905,1.2905,1.2905,1.2905,1.2905,1.2905,1.2905,1.2905,1.2905,1.2905,1.319,1.3348,1.2968,1.3695,1.426,1.3873,1.4306,1.4698,1.4698,1.5354,1.5722,1.532,1.5276,1.5208,1.5039,1.5017,1.5017,1.5017,1.5017,1.5096,1.5276,1.5276,1.5454,1.5832,1.5854,1.5954,1.6173,1.6194,1.6281,1.65,1.65,1.65,1.65,1.65,1.65,1.3555,1.416,1.4795,1.4806,1.5079,1.5352,1.5294,1.4477,1.3714,1.3686,1.2514,1.1572,1.1831,1.1643,1.1535,1.1806,1.1274,1.0941,1.1242,1.041,0.986,1.0117,1.018,1.015,1.0167,1.0174,0.0,1.1032,0.0,1.0261,1.0579,1.0606,1.0606,1.0593,1.0593,1.0593,1.0593,1.0593,1.0298,0.9708,0.9371,0.9078,0.8804,0.8804,0.8804,0.8804,0.8804,0.8804,0.8804,0.8804,0.8804,0.8804,0.8831,0.9263,0.9865,0.9891,1.0745,1.1972,1.2666,1.2905,1.2905,1.2905,1.2905,1.2905,1.2905,1.2905,1.2905,1.2905,1.2905,1.2905,1.2905,1.2905,1.2905,1.2905,1.2905,1.2905,1.2905,1.2905,1.2905,1.2905,1.3348,1.3755,1.3755,1.4236,1.4617,1.4617,1.4617,1.4629,1.4686,1.4675,1.488,1.5454,1.5477,1.5465,1.5521,1.5477,1.5253,1.4721,1.4675,1.4675,1.4698,1.4698,1.4971,1.5543,1.5543,1.5842,1.6445,1.6445,1.6466,1.65,1.6466,1.6445,1.4287,1.4619,1.4819,1.4846,1.4756,1.451,1.3906,1.3125,1.246,1.2141,1.1678,1.1364,1.1428,1.1003,1.0762,1.1229,1.0581,1.0253,1.0973,1.083,1.0768,1.1022,1.1056,1.0976,1.0788,1.0962,0.0,0.0,1.0688,1.0512,1.0586,1.0801,1.0814,1.06,1.0593,1.0593,1.0593,1.0593,1.0298,0.9715,0.9606,0.9305,0.8804,0.8804,0.8804,0.8804,0.8804,0.8804,0.8804,0.8804,0.8804,0.8857,0.9335,0.9961,1.0618,1.1107,1.185,1.2642,1.2822,1.2905,1.2905,1.2905,1.2905,1.2905,1.2905,1.2905,1.2905,1.2905,1.2905,1.2905,1.2905,1.2905,1.2905,1.2905,1.2905,1.2905,1.2905,1.2905,1.2905,1.2905,1.3017,1.3128,1.3128,1.3272,1.3368,1.3368,1.3368,1.3681,1.4583,1.4306,1.4097,1.4249,1.3849,1.3766,1.4226,1.3849,1.3907,1.4652,1.4283,1.4236,1.4675,1.4698,1.4766,1.4926,1.4926,1.5242,1.582,1.582,1.6051,1.65,1.603,1.582,1.425,1.4393,1.4464,1.4126,1.383,1.3482,1.3046,1.2151,1.1322,1.1113,1.0705,1.0426,1.0577,1.0164,0.9959,1.042,0.9933,0.9706,1.0327,1.0673,1.0909,1.1202,1.1315,1.1329,1.1196,1.1295,1.1322,0.0,1.1035,1.0882,1.0787,1.0935,1.0894,1.06,1.0593,1.0593,1.0593,1.0338,1.0037,0.9708,0.9419,0.9125,0.8804,0.8804,0.8804,0.8804,0.0,0.8804,0.8831,0.9106,0.9237,0.9316,0.9987,1.0644,1.1291,1.1658,1.228,1.2905,1.2905,1.2905,1.2905,1.2905,1.2905,1.2905,1.2905,1.2905,1.2905,1.2905,1.2905,1.2905,1.2905,1.2905,1.2905,1.2905,1.2905,1.2905,1.2905,1.2905,1.2905,1.2905,1.2905,1.2905,1.2905,1.2905,1.2905,1.2905,1.2905,1.3248,1.4167,1.3789,1.3505,1.3768,1.3515,1.342,1.3768,1.3481,1.3467,1.3884,1.3576,1.3563,1.3907,1.3907,1.4037,1.4306,1.4306,1.4732,1.561,1.532,1.5511,1.6095,1.5488,1.5208,1.3871,1.3922,1.3965,1.3061,1.2614,1.234,1.2224,1.1196,1.0282,1.0327,0.9756,0.9364,0.9686,0.9504,0.9411,0.9699,0.9492,0.9391,0.9753,1.0305,1.0774,1.1069,1.1363,1.1495,1.1455,1.1489,1.1475,1.1395,1.1462,1.1383,1.1009,1.1029,1.0902,1.06,1.0593,1.0593,1.0593,1.0084,0.9789,0.9708,0.9172,0.8884,0.8804,0.8804,0.8804,0.8804,0.0,0.0,0.8831,0.9439,0.9666,0.9744,1.0437,1.1141,1.1771,1.1899,1.2367,1.2993,1.2993,1.2954,1.2905,1.2905,1.2905,1.2905,1.2905,1.2905,1.2905,1.2905,1.2905,1.2905,1.2905,1.2905,1.2905,1.2905,1.2905,1.2905,1.2905,1.2905,1.2905,1.2905,1.2905,1.2905,1.2905,1.2905,1.2905,1.2905,1.2905,1.3079,1.3624,1.3214,1.3128,1.3732,1.3732,1.3708,1.3802,1.3732,1.3481,1.3041,1.2954,1.2905,1.2905,1.2905,1.3152,1.3661,1.3684,1.4226,1.5353,1.4835,1.4892,1.5477,1.4858,1.4583,1.4229,1.4159,1.3846,1.2381,1.1584,1.1026,1.0357,0.9632,0.9159,0.9378,0.9517,0.9699,0.9987,0.997,0.995,1.0033,0.98,0.9793,1.0365,1.0734,1.1116,1.1692,1.1971,1.2058,1.1817,1.2011,1.1951,0.0,1.1877,1.181,1.1035,1.1223,1.1109,1.0613,1.0593,1.0593,1.0593,1.0492,1.0198,0.9715,0.9579,0.9279,0.8804,0.8804,0.8804,0.8804,0.8804,0.0,0.8811,0.8936,0.8982,0.9062,1.0013,1.0852,1.1651,1.2422,1.2995,1.3398,1.3398,1.3174,1.2905,1.2905,1.2905,1.2905,1.2905,1.2905,1.2905,1.2905,1.2905,1.2905,1.2905,1.2905,1.2905,1.2905,1.2905,1.2905,1.2905,1.2905,1.2905,1.2905,1.2905,1.2905,1.2905,1.2905,1.2905,1.2905,1.2905,1.2954,1.3041,1.2968,1.3128,1.3732,1.3348,1.3262,1.3755,1.3334,1.3214,1.3613,1.3176,1.2905,1.2905,1.2905,1.2954,1.3065,1.3065,1.3396,1.4109,1.4003,1.4283,1.4835,1.4236,1.3956,1.3415,1.31,1.2609,1.1265,1.0576,1.0143,0.9571,0.9204,0.9044,0.9184,0.9564,0.9953,1.0094,1.0083,1.0083,1.0083,0.9873,0.9833,1.0267,1.0715,1.1156,1.1583,1.1897,1.2084,1.2091,1.2084,1.2024,1.1891,1.2144,1.1917,1.1042,1.0982,1.0881,1.06,1.0593,1.0593,1.0593,1.0439,1.0114,0.9708,0.9526,0.9225,0.8804,0.8804,0.8865,0.9004,0.9004,0.0,0.9293,0.9632,0.9797,0.9921,1.1153,1.19,1.2323,1.3203,1.3516,1.3506,1.3506,1.3232,1.2905,1.2905,1.2905,1.2905,1.2905,1.2905,1.2905,1.2905,1.2905,1.2905,1.2905,1.2905,1.2905,1.2905,1.2905,1.2905,1.2905,1.2905,1.2905,1.2905,1.2905,1.2905,1.2905,1.2905,1.2905,1.2905,1.2905,1.2905,1.2905,1.2905,1.3017,1.331,1.3065,1.3017,1.331,1.3065,1.3017,1.331,1.3065,1.2905,1.2905,1.2905,1.2905,1.2905,1.2905,1.32,1.3792,1.3481,1.3647,1.4213,1.36,1.3324,1.2684,1.222,1.1751,1.0424,0.99,0.9606,0.9277,0.9211,0.9231,0.9291,0.9724,1.0134,1.02,1.0214,1.0187,1.0097,0.9927,0.9833,1.0,1.0581,1.1056,1.1223,1.167,1.2067,1.2191,1.2094,1.2004,1.2104,1.1997,1.1683,1.1116,1.0841,1.066,1.0593,1.0593,1.0593,1.0593,1.0327,1.0067,0.9773,0.9511,0.9244,0.8991,0.8991,0.9118,0.9311,0.9311,0.0,0.0,1.0458,1.0736,1.0886,1.2282,1.2937,1.3176,1.3874,1.3922,1.3617,1.3617,1.3311,1.2905,1.2905,1.2905,1.2905,1.2905,1.2905,1.2905,1.2905,1.2905,1.2905,1.2905,1.2905,1.2905,1.2905,1.2905,1.2905,1.2905,1.2905,1.2905,1.2905,1.2905,1.2905,1.2905,1.2905,1.2905,1.2905,1.2905,1.2905,1.2905,1.2905,1.2905,1.2905,1.2905,1.2905,1.2905,1.2905,1.2905,1.2905,1.2905,1.2905,1.2905,1.2905,1.2905,1.2905,1.2905,1.3128,1.3624,1.3128,1.3152,1.36,1.3128,1.2905,1.2821,1.2647,1.2432,1.0576,0.99,0.9606,0.9277,0.9211,0.9291,0.9586,0.9893,1.02,1.0506,1.0553,1.0459,1.016,1.0094,0.9993,0.9753,1.0454,1.0909,1.07,1.1603,1.2171,1.1966,1.2124,1.2051,1.1509,1.1022,1.0915,1.1329,1.1109,1.0861,1.06,1.0593,1.0593,1.0593,1.0566,1.0405,1.0043,1.0017,0.9886,0.9606,0.9606,0.9619,0.9646,0.9646,0.0,0.0,1.0544,1.0878,1.0994,1.2175,1.3058,1.376,1.4057,1.4138,1.4046,1.4046,1.3555,1.2905,1.2905,1.2905,1.2905,1.2905,1.2905,1.2905,1.2905,1.2905,1.2905,1.2905,1.2905,1.2905,1.2905,1.2905,1.2905,1.2905,1.2905,1.2905,1.2905,1.2905,1.2905,1.2905,1.2905,1.2905,1.2905,1.2905,1.2905,1.2905,1.2905,1.2905,1.2905,1.2905,1.2905,1.2905,1.2905,1.2905,1.2905,1.2905,1.2905,1.2905,1.2905,1.2905,1.2905,1.2905,1.2929,1.2968,1.2929,1.2929,1.2968,1.2929,1.2905,1.1622,1.1323,1.1021,1.0105,0.9773,0.9559,0.9058,0.9084,0.9297,0.9619,0.9913,1.0207,1.0539,1.0593,1.0553,1.0432,1.0234,1.014,1.0231,1.0546,1.0787,1.0847,1.1383,1.173,1.1617,1.187,1.1944,1.171,1.1511,1.133,1.1176,1.0889,1.0713,1.0593,1.0593,1.0593,1.0593,1.0593,1.0445,1.0083,1.0083,0.9967,0.9715,0.9715,0.978,0.9976,1.046,0.0,0.0,1.1831,1.2158,1.2263,1.3202,1.3773,1.4114,1.469,1.4582,1.4104,1.4104,1.3584,1.2905,1.2905,1.2905,1.2905,1.2905,1.2905,1.2905,1.2905,1.2905,1.2905,1.2905,1.2905,1.2905,1.2905,1.2905,1.2905,1.2905,1.2905,1.2905,1.2905,1.2905,1.2905,1.2905,1.2905,1.2905,1.2905,1.2905,1.2905,1.2905,1.2905,1.2905,1.2905,1.2905,1.2905,1.2905,1.2905,1.2905,1.2905,1.2905,1.2905,1.2905,1.2905,1.2905,1.2905,1.2905,1.2905,1.2905,1.2905,1.2905,1.2905,1.2905,1.2905,1.0965,1.0603,1.0203,0.9684,0.9552,0.9426,0.8918,0.9004,0.9271,0.9512,0.9853,1.018,1.0419,1.0533,1.0593,0.0,0.0,1.0294,1.0445,1.0606,1.0734,1.0728,1.1142,1.1362,1.1309,1.1563,1.177,1.1899,1.1745,1.1464,1.1015,1.0754,1.0593,1.0593,1.0593,1.0593,1.0593,1.0593,1.0486,1.0247,1.0247,1.014,0.997,0.997,1.0197,1.0632,1.0952,0.0,0.0,1.2765,1.313,1.3425,1.4243,1.4466,1.4452,1.5013,1.4687,1.3919,1.3919,1.3477,1.2905,1.2905,1.2905,1.2905,1.2905,1.2905,1.2905,1.2905,1.2905,1.2905,1.2905,1.2905,1.2905,1.2905,1.2905,1.2905,1.2905,1.2905,1.2905,1.2905,1.2905,1.2905,1.2905,1.2905,1.2905,1.2905,1.2905,1.2905,1.2905,1.2905,1.2905,1.2905,1.2905,1.2905,1.2905,1.2905,1.2905,1.2905,1.2905,1.2905,1.2905,1.2905,1.2905,1.2905,1.2905,1.2905,1.2905,1.2905,1.2905,1.2905,1.2905,1.2905,1.1339,1.1091,1.0605,0.9479,0.9217,0.9138,0.8851,0.9004,0.9211,0.9217,0.9684,1.0083,1.009,1.0392,1.0593,0.0,0.0,0.0,1.016,1.0621,1.0775,1.0194,1.0863,1.1316,1.1022,1.1263,1.155,1.1886,1.1363,0.0,1.0995,1.0754,1.0593,1.0593,1.0593,1.0593,1.0593,1.0593,1.0593,1.0586,1.0586,1.0586,1.0586,1.0586,1.1038,0.0,0.0,0.0,0.0,1.3009,1.3463,1.4273,1.5079,1.5128,1.4795,1.4785,1.4248,1.3516,1.3516,1.3232,1.2905,1.2905,1.2905,1.2905,1.2905,1.2905,1.2905,1.2905,1.2905,1.2905,1.2905,1.2905,1.2905,1.2905,1.2905,1.2905,1.2905,1.2905,1.2905,1.2905,1.2905,1.2905,1.2905,1.2905,1.2905,1.2905,1.2905,1.2905,1.2905,1.2905,1.2905,1.2905,1.2905,1.2905,1.2905,1.2905,1.2905,1.2905,1.2905,1.2905,1.2905,1.2905,1.2905,1.2905,1.2905,1.2905,1.2905,1.2905,1.2905,1.2905,1.2905,1.2905,0.995,0.9819,0.9653,0.9286,0.9211,0.9138,0.8871,0.8878,0.8978,0.9171,0.9364,0.961,1.001,1.0194,1.0254,1.0254,0.0,0.0,1.016,1.0448,1.066,1.0472,1.0693,1.0955,1.1263,0.0,1.1169,1.1263,1.1096,1.0909,1.074,1.064,1.0593,1.0593,1.0593,1.0593,1.0593,1.0593,1.0593,1.0593,1.0593,1.0593,1.0593,1.0593,1.0744,0.0,0.0,0.0,0.0,1.3575,1.4293,1.5021,1.5002,1.4902,1.4813,1.4813,1.4248,1.3545,1.3812,1.3477,1.2905,1.2905,1.2905,1.2905,1.2905,1.2905,1.2964,1.3232,1.3105,1.2949,1.3232,1.3096,1.2983,1.3242,1.3096,1.2983,1.3242,1.3086,1.2905,1.2905,1.2905,1.2905,1.2905,1.2905,1.2905,1.2905,1.2905,1.2905,1.2905,1.2905,1.2905,1.2905,1.2905,1.2905,1.2905,1.2905,1.2905,1.2905,1.2905,1.2905,1.2905,1.2905,1.2905,1.2905,1.2905,1.2905,1.2905,1.2905,1.2905,1.2905,1.2905,1.2642,0.9415,0.9228,0.9051,0.9051,0.9051,0.9004,0.8844,0.8804,0.8858,0.9011,0.9138,0.9324,0.969,0.9937,1.0083,1.0083,1.0367,1.0486,1.016,1.0405,1.0593,1.0593,1.0593,1.0774,0.0,1.1096,1.0995,1.0995,1.0995,1.0868,1.0606,1.0593,1.0593,1.0593,1.0593,1.0593,1.0593,1.0593,1.0593,1.0593,1.0593,1.0593,1.0593,1.0593,1.0776,0.0,0.0,0.0,0.0,1.3995,1.4658,1.5381,1.5117,1.4824,1.4541,1.4541,1.4004,1.3311,1.3574,1.332,1.2905,1.2905,1.2905,1.2905,1.2905,1.2905,1.2993,1.3389,1.3203,1.3042,1.3594,1.3437,1.3223,1.3617,1.3545,1.3428,1.3665,1.3535,1.3311,1.3154,1.3125,1.3066,1.2935,1.3042,1.3125,1.3125,1.3252,1.335,1.335,1.3213,1.3125,1.3125,1.3003,1.2905,1.2905,1.2905,1.2905,1.2905,1.2905,1.2905,1.2905,1.2905,1.2905,1.2905,1.2905,1.2774,1.2476,1.2476,1.2353,1.2107,1.2378,1.2089,0.0,0.9283,0.8804,0.8804,0.8804,0.8804,0.8804,0.8804,0.0,0.8804,0.8991,0.9191,0.9237,0.969,1.0094,1.0114,1.0412,1.0512,1.016,1.0419,1.0606,1.0566,1.06,1.0713,1.0909,1.0949,1.0962,1.0962,1.0962,1.0842,1.0606,1.0593,1.0593,1.0593,1.0573,1.0573,1.0593,1.0593,1.0593,1.0593,1.0593,1.0593,1.0593,1.0593,1.1045,0.0,0.0,0.0,0.0,1.4213,1.4658,1.541,1.5381,1.4835,1.4104,1.4104,1.3578,1.2905,1.2935,1.2925,1.2905,1.2905,1.2925,1.2954,1.2954,1.2954,1.3042,1.3437,1.3271,1.3179,1.3948,1.3841,1.3662,1.4055,1.4133,1.4114,1.4143,1.4133,1.3997,1.3633,1.3555,1.3428,1.3062,1.3291,1.3555,1.3555,1.386,1.4104,1.4104,1.3763,1.3555,1.3555,1.3203,1.2993,1.2993,1.2935,1.2881,1.2832,1.2822,1.2822,1.2822,1.2822,1.2822,1.2822,1.2774,1.2403,1.174,1.174,1.1416,1.0813,1.1441,1.1366,0.0,0.0,0.8804,0.8804,0.8804,0.8804,0.0,0.8804,0.8804,0.8804,0.8864,0.9045,0.9499,0.9693,0.986,1.008,1.0555,1.0708,1.0187,1.0561,1.0722,1.0274,1.0615,1.0742,1.0361,1.0528,1.0693,1.0693,1.0693,1.0667,1.0593,1.0593,1.0593,1.0593,1.0341,1.0327,1.0586,1.0593,1.0593,1.0593,1.0593,1.0593,1.0593,1.0593,1.1045,0.0,0.0,0.0,1.4213,1.4213,1.4658,1.5381,1.5059,1.4609,1.4104,1.4104,1.3578,1.2954,1.3252,1.3154,1.2905,1.2905,1.3096,1.3359,1.3359,1.3359,1.3447,1.3841,1.389,1.3929,1.4492,1.4307,1.4065,1.4531,1.4348,1.4202,1.4561,1.4338,1.4075,1.3977,1.3958,1.3929,1.3831,1.3899,1.3958,1.3958,1.4046,1.4104,1.4104,1.4026,1.3958,1.3958,1.387,1.3812,1.3812,1.3252,1.2666,1.208,1.2055,1.2055,1.2055,1.2055,1.2055,1.2055,1.155,1.12,1.104,1.104,1.0939,1.0788,1.0965,1.0686,0.0,0.8804,0.8804,0.8804,0.8804,0.8804,0.8804,0.8804,0.8804,0.8804,0.8804,0.8945,0.9399,0.9479,0.9619,1.0017,1.0381,1.0474,1.016,1.0123,1.0174,1.0127,1.0401,1.0521,0.0,1.0341,1.0354,1.0354,1.0265,1.0191,1.0191,1.0318,1.0354,1.0354,1.0334,1.0432,1.0593,1.0452,1.0452,1.0593,1.0593,1.08,1.1132,1.1132,1.1593,0.0,0.0,0.0,1.4243,1.4599,1.4906,1.5117,1.5088,1.457,1.3851,1.4036,1.3578,1.2935,1.3145,1.3066,1.2935,1.313,1.332,1.3545,1.3714,1.3936,1.4141,1.4365,1.426,1.425,1.4912,1.4756,1.4541,1.4971,1.4893,1.4757,1.5019,1.4883,1.463,1.4473,1.4434,1.4338,1.4143,1.427,1.4434,1.4434,1.4572,1.4689,1.4689,1.4551,1.427,1.3894,1.367,1.3413,1.3041,1.2599,1.233,1.2322,1.1834,1.1627,1.1747,1.1645,1.1498,1.1341,1.0686,1.0338,1.0338,1.0338,1.0192,0.9891,1.0192,0.9987,0.8804,0.8804,0.8804,0.8804,0.8804,0.8804,0.8804,0.8804,0.8804,0.8804,0.8844,0.8918,0.9164,0.9251,0.9457,0.9997,1.0154,1.02,1.0247,0.979,0.963,1.0037,1.0163,0.0,1.0506,1.0267,1.0083,1.0083,0.9846,0.9715,0.9715,0.992,1.0053,1.0053,1.0254,1.0412,1.0459,1.0267,1.0314,1.0593,1.0634,1.1037,1.1697,1.182,1.2341,1.3137,0.0,0.0,1.4451,1.5108,1.5205,1.4912,1.5205,1.4619,1.3617,1.3977,1.3578,1.2915,1.2983,1.3003,1.3071,1.3467,1.3643,1.3769,1.4094,1.4531,1.4883,1.4883,1.4619,1.4465,1.5196,1.5146,1.4971,1.5322,1.541,1.541,1.541,1.541,1.5312,1.4951,1.4883,1.4766,1.4367,1.4639,1.4883,1.4883,1.5186,1.5352,1.5225,1.4926,1.4412,1.3602,1.3157,1.2647,1.1955,1.1728,1.1954,1.2694,1.1762,1.1309,1.1551,1.1333,1.1062,1.078,1.0139,0.9787,0.9787,0.9787,0.9503,0.8938,0.948,0.9406,0.8804,0.8804,0.8804,0.8804,0.8804,0.8804,0.8804,0.8804,0.8804,0.8804,0.8978,0.9158,0.9204,0.9417,0.9726,1.006,1.0327,1.0606,1.0828,1.0782,1.0575,1.0167,0.0,1.0681,1.0227,1.014,1.0083,1.0083,0.0,0.9715,0.9715,0.9726,0.9746,0.9746,0.9546,0.9566,0.9842,1.0298,1.0546,1.0586,1.0894,1.1091,1.1234,1.1957,1.276,0.0,0.0,1.4599,1.5235,1.5352,1.5371,1.5283,1.5,1.4531,1.4016,1.4085,1.3578,1.2954,1.3281,1.3408,1.3477,1.387,1.4287,1.46,1.4668,1.498,1.5312,1.5312,1.5264,1.5244,1.5381,1.5361,1.5332,1.54,1.541,1.541,1.541,1.541,1.5391,1.5322,1.5312,1.5293,1.5196,1.5273,1.5312,1.5312,1.5371,1.5138,1.4481,1.4337,1.3966,1.3168,1.3027,1.2925,1.2805,1.1927,1.1554,1.1928,1.1221,1.0818,1.0842,1.0797,1.0773,1.0727,1.0066,0.971,0.971,0.971,0.966,0.9568,0.9369,0.9227,0.8804,0.8804,0.8804,0.8804,0.8804,0.8804,0.8804,0.8804,0.8851,0.8984,0.9118,0.9257,0.9452,0.9459,0.9539,0.9833,1.0127,1.0367,1.0501,1.0388,1.0241,0.0,0.0,1.0241,1.0097,0.9797,0.961,0.0,0.0,0.0,0.9212,0.9359,0.9446,0.9446,0.9466,0.9546,0.9686,1.0319,1.0668,1.0668,1.0799,1.1428,1.2456,1.2879,1.3493,1.427,0.0,1.4716,1.5049,1.4796,1.4689,1.4679,1.4484,1.4033,1.3457,1.3457,1.3359,1.3242,1.3437,1.3627,1.389,1.4346,1.4619,1.4852,1.5049,1.5254,1.541,1.541,1.541,1.541,1.541,1.541,1.541,1.541,1.541,1.541,1.541,1.541,1.541,1.541,1.541,1.541,1.541,1.541,1.541,1.541,1.5021,1.4628,1.4243,1.3816,1.3243,1.2451,1.2358,1.2182,1.1725,1.1221,1.0906,1.0885,1.0718,1.0548,1.038,1.0373,1.0325,1.0157,0.9853,0.9715,0.9715,0.9715,0.9715,0.9708,0.9546,0.9216,0.8804,0.8804,0.8804,0.8804,0.8804,0.8804,0.8804,0.8858,0.8944,0.9164,0.9264,0.9384,0.9646,0.9499,0.9364,0.9552,0.988,1.0094,1.0027,0.988,0.984,1.0,0.982,0.9773,0.9993,0.9517,0.0,0.0,0.0,0.0,0.8804,0.8991,0.9111,0.9111,0.9359,0.9557,0.9721,1.0241,1.0559,1.0708,1.0943,1.1893,1.3435,1.3633,1.4054,1.4639,1.4746,1.4813,1.4756,1.4424,1.426,1.425,1.4143,1.3682,1.3027,1.3027,1.3291,1.3672,1.3769,1.4023,1.4328,1.4795,1.4932,1.499,1.5312,1.541,1.541,1.541,1.541,1.541,1.541,1.541,1.541,1.541,1.541,1.541,1.541,1.541,1.541,1.541,1.541,1.541,1.541,1.541,1.5352,1.5147,1.4599,1.4055,1.3696,1.3092,1.242,1.1586,1.1531,1.1257,1.0649,1.0593,1.0492,1.0234,1.0466,1.0486,1.0234,1.0221,1.0114,0.9923,0.9916,0.9916,0.9916,0.9709,0.9619,0.9613,0.9305,0.8818,0.8804,0.8804,0.8804,0.8804,0.8804,0.8804,0.8804,0.8991,0.9184,0.9211,0.9459,0.9659,0.9708,0.9695,0.9566,0.9284,0.9717,1.002,0.9753,0.0,0.9993,0.9746,0.9699,0.9722,0.9713,0.9397,0.0,0.0,0.0,0.0,0.8804,0.8824,0.8838,0.8838,0.8858,0.9176,0.9784,0.9829,1.0134,1.0708,1.1716,1.2458,1.2967,1.3712,1.4099,1.4172,1.4609,1.4813,1.4813,1.4746,1.4736,1.4697,1.427,1.3831,1.3467,1.3467,1.3704,1.4124,1.4551,1.4745,1.4805,1.5225,1.5371,1.5371,1.54,1.541,1.541,1.541,1.541,1.541,1.541,1.541,1.541,1.541,1.541,1.541,1.541,1.541,1.541,1.541,1.541,1.541,1.541,1.541,1.5147,1.4392,1.4243,1.3657,1.2166,1.1927,1.1593,1.0776,1.0688,1.0649,1.0593,1.0593,1.0586,1.0566,1.0579,1.0579,1.0566,1.0559,1.0553,1.0533,1.0533,1.0533,1.0526,0.973,0.9311,0.9311,0.8173,0.7634,0.8804,0.8804,0.8804,0.8804,0.8804,0.8804,0.8804,0.9004,0.9211,0.9211,0.959,0.99,0.9749,0.9532,0.9344,0.9231,0.955,0.9813,0.9729,0.978,0.9806,0.9699,0.9519,0.9377,0.9377,0.0,0.0,0.0,0.0,0.0,0.8804,0.8804,0.8804,0.8804,0.9211,0.9536,0.9788,1.0644,1.1301,1.1824,1.1938,1.271,1.4071,1.4086,1.4104,1.4114,1.428,1.4358,1.4365,1.4092,1.4141,1.4289,1.3623,1.3262,1.3154,1.3408,1.3743,1.4172,1.4629,1.4951,1.5205,1.5361,1.541,1.541,1.541,1.541,1.541,1.541,1.541,1.541,1.541,1.541,1.541,1.541,1.541,1.541,1.541,1.541,1.541,1.541,1.541,1.541,1.541,1.4991,1.454,1.4243,1.3356,1.2504,1.1888,1.1351,1.0926,1.0618,1.0593,1.0593,1.0593,1.011,0.9786,0.9786,0.9786,1.004,1.0593,1.0079,1.0047,1.0593,1.0079,0.9786,0.9786,0.8909,0.8484,0.8484,0.8036,0.7511,0.8725,0.8619,0.8507,0.8752,0.8804,0.8804,0.8804,0.9078,0.9351,0.9351,0.9744,1.0,0.9613,0.9351,0.9184,0.0,0.9324,0.9512,0.9419,0.9486,0.9512,0.9419,0.9198,0.9078,0.0,0.0,0.0,0.0,0.0,0.0,0.0,0.8804,0.891,0.9113,0.9562,0.9987,1.044,1.1341,1.222,1.3004,1.2552,1.3193,1.4803,1.4473,1.4241,1.4114,1.425,1.4241,1.4094,1.3948,1.3994,1.4036,1.335,1.3076,1.3169,1.3711,1.4092,1.4404,1.4834,1.5176,1.541,1.541,1.541,1.541,1.541,1.541,1.541,1.541,1.541,1.541,1.541,1.541,1.5449,1.5586,1.5508,1.5449,1.5586,1.5508,1.5323,1.5079,1.5235,1.5235,1.4726,1.4392,1.4025,1.3507,1.2504,1.171,1.1437,1.0926,1.0491,1.0206,1.0174,1.0072,0.9811,0.923,0.8877,0.8877,0.8646,0.8871,0.9748,0.9198,0.9166,0.9773,0.9198,0.8877,0.8877,0.8027,0.76,0.7567,0.7312,0.6854,0.8586,0.8268,0.7883,0.8619,0.8804,0.8804,0.8804,0.9259,0.9708,0.9715,0.9913,0.9903,0.9317,0.9211,0.0,0.8851,0.9024,0.9111,0.8844,0.9031,0.9098,0.8838,0.8804,0.0,0.0,0.0,0.0,0.0,0.0,0.0,0.0,0.8804,0.9113,0.9788,0.9814,1.044,1.1798,1.1823,1.2586,1.4104,1.3695,1.3965,1.4823,1.4813,1.4551,1.4133,1.46,1.4541,1.4143,1.4609,1.4531,1.4075,1.3656,1.3516,1.3613,1.4473,1.4813,1.4844,1.5264,1.541,1.541,1.541,1.541,1.541,1.541,1.541,1.541,1.541,1.541,1.541,1.541,1.5391,1.5527,1.5987,1.5732,1.5537,1.5997,1.5723,1.5138,1.4332,1.4835,1.4864,1.3274,1.3636,1.3627,1.2043,1.1795,1.15,1.0713,1.0593,1.0269,0.9402,0.9306,0.8941,0.8059,0.7994,0.7994,0.7994,0.7177,0.7079,0.7962,0.7994,0.7994,0.7994,0.7994,0.7994,0.7994,0.7111,0.6687,0.6654,0.5818,0.5395,0.8752,0.8646,0.8533,0.8752,0.8804,0.8804,0.8804,0.9071,0.9404,0.9639,0.9586,0.9417,0.9244,0.9044,0.0,0.8824,0.8878,0.8878,0.8818,0.8858,0.8878,0.8818,0.8804,0.0,0.0,0.0,0.0,0.0,0.0,0.0,0.0,0.8804,0.9113,0.9788,1.0261,1.1073,1.2282,1.276,1.3522,1.459,1.4463,1.4697,1.5215,1.4922,1.4717,1.46,1.4727,1.4717,1.46,1.4727,1.4707,1.4551,1.4094,1.3919,1.3987,1.458,1.4813,1.4844,1.5264,1.541,1.541,1.541,1.541,1.541,1.541,1.541,1.541,1.541,1.541,1.541,1.541,1.5635,1.5938,1.6065,1.5987,1.5778,1.5345,1.4886,1.4332,1.3515,1.3554,1.3545,1.307,1.2726,1.2351,1.1865,1.132,1.0863,1.0618,1.0072,0.9594,0.9338,0.8748,0.8291,0.8027,0.7437,0.7079,0.7079,0.6268,0.647,0.7929,0.7405,0.7372,0.7994,0.7405,0.7079,0.7079,0.6207,0.5782,0.5782,0.5524,0.5395,0.8725,0.8593,0.8427,0.8725,0.8804,0.8804,0.8804,0.9004,0.9297,0.9619,0.9446,0.9211,0.9211,0.8978,0.0,0.8804,0.8804,0.8804,0.8804,0.8804,0.8804,0.8804,0.8804,0.0,0.0,0.0,0.0,0.0,0.0,0.0,0.0,0.8804,0.9237,1.0167,1.0593,1.149,1.287,1.3301,1.3936,1.4813,1.4813,1.501,1.54,1.5146,1.4941,1.4813,1.4813,1.4883,1.5019,1.4882,1.4813,1.4756,1.4492,1.4367,1.4416,1.4883,1.5039,1.5068,1.5322,1.541,1.541,1.541,1.541,1.541,1.541,1.541,1.541,1.541,1.5177,1.4932,1.4932,1.5116,1.5389,1.5701,1.5927,1.5819,1.4809,1.4386,1.3876,1.2757,1.2787,1.2795,1.2158,1.1896,1.1679,1.1375,1.0604,1.0079,1.0079,0.9332,0.8646,0.8291,0.78,0.734,0.699,0.6498,0.617,0.617,0.5686,0.5885,0.6924,0.6465,0.6433,0.6957,0.6465,0.617,0.617,0.5653,0.5395,0.5395,0.5395,0.5395,0.8619,0.8315,0.7969,0.8646,0.8804,0.8804,0.8804,0.8984,0.9251,0.9546,0.9384,0.9204,0.9178,0.8958,0.8804,0.8804,0.8804,0.8804,0.8804,0.8804,0.8804,0.8804,0.0,0.0,0.0,0.0,0.0,0.0,0.0,0.0,0.0,0.8857,0.9484,1.0762,1.0864,1.1761,1.3539,1.3539,1.3994,0.0,1.4844,1.5039,1.541,1.541,1.5205,1.4844,1.4844,1.5059,1.5381,1.5,1.4844,1.4844,1.4778,1.4788,1.4893,1.5177,1.5352,1.541,1.541,1.541,1.541,1.541,1.541,1.5381,1.5323,1.5294,1.5294,1.5196,1.4658,1.4085,1.4085,1.4079,1.4229,1.4871,1.5475,1.5554,1.4277,1.3985,1.3537,1.1989,1.2266,1.2305,1.0839,1.1202,1.1406,1.0586,0.9754,0.9172,0.9172,0.842,0.7567,0.6785,0.6621,0.6268,0.5458,0.5395,0.5395,0.5395,0.5329,0.5259,0.5259,0.5359,0.5359,0.5259,0.5259,0.5226,0.516,0.516,0.516,0.516,0.516,0.516,0.8752,0.8672,0.8586,0.8752,0.8804,0.8804,0.8804,0.8851,0.8918,0.8985,0.9098,0.9144,0.8911,0.8851,0.8804,0.8804,0.8804,0.8804,0.8804,0.8804,0.8804,0.8804,0.0,0.0,0.0,0.0,0.0,0.0,0.0,0.0,0.8804,0.9309,0.9961,1.0762,1.1316,1.2344,1.3968,1.3968,1.4397,0.0,1.5273,1.5322,1.541,1.541,1.5361,1.5273,1.5273,1.5322,1.5371,1.5312,1.5273,1.5216,1.4596,1.4712,1.5196,1.466,1.4874,1.541,1.541,1.541,1.541,1.541,1.541,1.5294,1.4658,1.4451,1.4332,1.3696,1.3394,1.3252,1.3252,1.3486,1.3557,1.3003,1.3704,1.4285,1.3353,1.2725,1.2012,1.1045,1.0989,1.1021,1.0649,1.0744,1.0579,0.9722,0.8844,0.8291,0.8291,0.7535,0.6915,0.6719,0.6075,0.5591,0.5428,0.5395,0.5395,0.5395,0.4722,0.4317,0.4317,0.5024,0.5057,0.4317,0.4317,0.3949,0.328,0.328,0.328,0.328,0.328,0.328,0.8804,0.8804,0.8804,0.8804,0.8804,0.8804,0.8804,0.8804,0.8804,0.8804,0.8898,0.8958,0.8838,0.8804,0.8804,0.8804,0.8804,0.8804,0.8804,0.8804,0.8804,0.0,0.0,0.0,0.0,0.0,0.0,0.0,0.0,0.8804,0.8804,0.9439,1.0115,1.0788,1.1659,1.2781,1.4104,1.4309,1.4775,1.541,1.541,1.541,1.541,1.541,1.541,1.541,1.541,1.541,1.5381,1.4991,1.505,1.5323,1.451,1.4688,1.5352,1.4932,1.505,1.541,1.541,1.541,1.541,1.541,1.5138,1.4756,1.4332,1.3936,1.3545,1.313,1.2734,1.242,1.242,1.2397,1.2233,1.1754,1.2783,1.3534,1.227,1.1882,1.1562,1.0776,1.0593,1.0466,1.0047,0.962,0.9192,0.8742,0.7924,0.7372,0.7372,0.6625,0.6075,0.6075,0.5686,0.5395,0.5395,0.5395,0.5193,0.4755,0.4284,0.3813,0.338,0.383,0.3869,0.338,0.338,0.3145,0.2711,0.2711,0.2711,0.2711,0.2711,0.2711,0.8804,0.8804,0.8804,0.8804,0.8804,0.8804,0.8804,0.8804,0.8804,0.8804,0.8804,0.8804,0.8804,0.8804,0.8804,0.8804,0.8804,0.8804,0.8804,0.8804,0.8804,0.0,0.0,0.0,0.0,0.0,0.0,0.0,0.0,0.8804,0.8804,0.9439,1.0038,1.0618,1.1773,1.285,1.3801,1.4398,1.4883,1.5303,1.5381,1.5323,1.5196,1.5196,1.5264,1.5381,1.5255,1.5255,1.5352,1.454,1.4658,1.5323,1.451,1.4688,1.5381,1.5079,1.5079,1.5167,1.5021,1.4991,1.4991,1.4991,1.454,1.3965,1.3846,1.3334,1.2757,1.2612,1.212,1.1586,1.1586,1.1259,1.0915,1.0915,1.2022,1.2702,1.1304,1.1326,1.1406,1.0713,1.0466,1.011,0.9236,0.8355,0.7762,0.7762,0.7046,0.6461,0.6461,0.5848,0.5395,0.5395,0.5395,0.5326,0.516,0.516,0.4755,0.3846,0.3613,0.322,0.2495,0.231,0.225,0.2242,0.2366,0.24,0.2241,0.2231,0.2232,0.2241,0.2241,0.2241,0.8804,0.8804,0.8804,0.8804,0.8804,0.8804,0.8804,0.8804,0.8804,0.8804,0.8804,0.8804,0.8804,0.8804,0.8804,0.8804,0.8804,0.8804,0.8804,0.8804,0.8804,0.0,0.0,0.0,0.0,0.0,0.0,0.0,0.8804,0.8804,0.8804,0.9439,0.984,0.9935,1.1217,1.2154,1.271,1.3712,1.4416,1.4873,1.5234,1.5021,1.4362,1.4362,1.4746,1.5352,1.4658,1.4746,1.5352,1.454,1.4658,1.5323,1.451,1.4688,1.5225,1.3816,1.3756,1.4273,1.3545,1.3312,1.3312,1.3312,1.3252,1.3031,1.232,1.2043,1.1803,1.1115,1.0839,1.0776,1.0776,1.0715,1.0646,1.0646,1.0837,1.1001,1.1001,1.0858,1.0713,1.0624,0.9983,0.9204,0.8318,0.7437,0.6883,0.6883,0.6141,0.5591,0.5591,0.5458,0.5395,0.5395,0.5395,0.5057,0.4251,0.4184,0.3816,0.2945,0.2108,0.1591,0.1492,0.0769,0.0354,0.036,0.109,0.1125,0.036,0.0353,0.0353,0.036,0.036,0.036,0.8804,0.8804,0.8804,0.8804,0.8804,0.8804,0.8804,0.8804,0.8804,0.8804,0.8804,0.8804,0.8804,0.8804,0.8804,0.8804,0.8804,0.8804,0.8804,0.8804,0.8804,0.0,0.0,0.0,0.0,0.0,0.0,0.0,0.8804,0.8804,0.8804,0.9788,1.0364,1.0364,1.1922,1.2862,1.306,1.3768,1.4328,1.4785,1.4734,1.454,1.4183,1.3726,1.3974,1.4717,1.4353,1.4658,1.5352,1.454,1.4421,1.4658,1.3846,1.3726,1.3974,1.3252,1.3221,1.3485,1.313,1.3009,1.3009,1.3009,1.2704,1.2266,1.1896,1.15,1.1045,1.0713,1.0593,1.0593,1.0593,1.0593,1.0593,1.0593,1.0238,0.9919,1.0005,0.9969,0.9722,0.9224,0.8447,0.773,0.734,0.6564,0.5976,0.5976,0.5653,0.5395,0.5395,0.5395,0.5193,0.4686,0.4619,0.4251,0.3347,0.328,0.2878,0.1976,0.153,0.107,0.0595,0.0216,0.0,0.0,0.0363,0.0396,0.0,0.0,0.0,0.0,0.0,0.0,0.8804,0.8804,0.8804,0.8804,0.8804,0.8804,0.8804,0.8804,0.8804,0.8804,0.8804,0.8804,0.8804,0.8804,0.8804,0.8804,0.8804,0.8804,0.8804,0.8804,0.8804,0.0,0.0,0.0,0.0,0.0,0.0,0.0,0.8804,0.8804,0.8804,0.9917,1.0466,1.0287,1.2095,1.2992,1.2814,1.3577,1.414,1.4495,1.4187,1.3907,1.3567,1.297,1.3122,1.3906,1.3906,1.4353,1.5021,1.4243,1.4025,1.4115,1.3304,1.3009,1.2978,1.2765,1.2704,1.2665,1.2458,1.2397,1.2397,1.2397,1.1996,1.15,1.15,1.1076,1.0593,1.0593,1.0593,1.0593,1.0593,1.0428,1.0269,1.0269,0.9588,0.8979,0.8979,0.8979,0.8716,0.7832,0.7144,0.6621,0.6396,0.5815,0.5395,0.5395,0.5395,0.5329,0.509,0.5057,0.4686,0.378,0.368,0.3311,0.241,0.2344,0.1949,0.1017,0.0968,0.0669,0.0036,-0.026,-0.0417,-0.042,-0.0674,-0.052,0.0,-0.0516,-0.0664,-0.0408,-0.0668,-0.0778,0.8804,0.8804,0.8804,0.8804,0.8804,0.8804,0.8804,0.8804,0.8804,0.8804,0.8804,0.8804,0.8804,0.8804,0.8804,0.8804,0.8804,0.8804,0.8804,0.8804,0.8804,0.0,0.0,0.0,0.0,0.0,0.0,0.0,0.8804,0.8804,0.8804,0.9465,0.9562,0.8936,1.0863,1.1568,1.0947,1.2658,1.3575,1.3656,1.3654,1.3016,1.1919,1.1888,1.2297,1.307,1.307,1.3515,1.4213,1.3394,1.3515,1.4115,1.3304,1.3009,1.2917,1.2143,1.1857,1.1741,1.0989,1.0713,1.0713,1.0713,1.0713,1.0649,1.0649,1.0618,1.0593,1.0593,1.0593,1.0593,1.0593,0.9983,0.937,0.937,0.8716,0.8059,0.8059,0.8059,0.7795,0.6948,0.6719,0.6429,0.5624,0.5428,0.5395,0.5395,0.5395,0.509,0.4184,0.4082,0.3747,0.2845,0.2778,0.2377,0.1441,0.1374,0.0984,0.014,0.007,0.0036,0.0,-0.0981,-0.1528,-0.1525,-0.2456,-0.1986,0.0,-0.1982,-0.244,-0.1523,-0.2492,-0.2957,0.8804,0.8804,0.8804,0.8804,0.8804,0.8804,0.8804,0.8804,0.8804,0.8804,0.8804,0.8804,0.8804,0.8804,0.8804,0.8804,0.8804,0.8804,0.8804,0.8804,0.8804,0.0,0.0,0.0,0.0,0.0,0.0,0.0,0.0,0.8804,0.8804,0.9439,0.9692,0.9439,1.099,1.169,1.1441,1.2366,1.2634,1.2255,1.1993,1.201,1.2305,1.1721,1.1753,1.2266,1.2787,1.3455,1.4183,1.3885,1.3326,1.2626,1.2351,1.1903,1.1421,1.1139,1.1021,1.0989,1.0713,1.0593,1.0593,1.0593,1.0593,1.0593,1.0593,1.0593,1.0593,1.0593,1.0206,0.9754,0.9754,0.9134,0.8323,0.7762,0.7405,0.7013,0.647,0.6756,0.6915,0.6042,0.5881,0.558,0.4652,0.4483,0.4317,0.3747,0.368,0.3547,0.3211,0.3178,0.2811,0.1909,0.1808,0.1441,0.0538,0.0471,0.0341,0.0035,-0.0641,-0.1021,-0.1019,-0.203,-0.2557,-0.2579,-0.3593,-0.3437,-0.1994,-0.275,-0.2907,-0.2579,-0.2929,-0.3085,0.8804,0.8804,0.8804,0.8804,0.8804,0.8804,0.8804,0.8804,0.8804,0.8804,0.8804,0.8804,0.8804,0.8804,0.8804,0.8804,0.8804,0.8804,0.8804,0.8804,0.8804,0.0,0.0,0.0,0.0,0.0,0.0,0.0,0.0,0.0,0.8804,0.9439,0.9917,1.0141,1.0788,1.1241,1.1466,1.1763,1.1652,1.11,1.0828,1.106,1.1738,1.1056,1.1151,1.1826,1.2263,1.2794,1.3386,1.3386,1.2749,1.1764,1.15,1.1013,1.0452,1.0553,1.0526,1.0459,1.0559,1.0593,1.0593,1.0593,1.0593,1.0561,1.0238,1.0174,1.011,0.9811,0.9294,0.8877,0.8877,0.8221,0.734,0.6461,0.6268,0.6108,0.5524,0.5848,0.6108,0.5524,0.516,0.4722,0.4115,0.3747,0.338,0.2778,0.2711,0.2577,0.2277,0.2242,0.1876,0.0974,0.0873,0.0504,-0.037,-0.0437,-0.0581,-0.0956,-0.1658,-0.2066,-0.2097,-0.3098,-0.3783,-0.4126,-0.5181,-0.5568,-0.5167,-0.4825,-0.4479,-0.4167,-0.4858,-0.5167,0.0,0.0,0.0,0.8804,0.8804,0.8804,0.8804,0.8804,0.8804,0.8804,0.8804,0.8804,0.8804,0.8804,0.8804,0.8804,0.8804,0.8804,0.8804,0.8804,0.0,0.0,0.0,0.0,0.0,0.0,0.0,0.0,0.8804,0.8804,0.8804,0.9413,1.009,1.0745,1.0141,1.0115,1.0762,1.0762,1.0615,1.0272,1.0272,1.0222,1.011,0.9836,1.0487,1.1765,1.1443,1.1458,1.1757,1.1795,1.1803,1.1679,1.0895,1.0412,1.0147,1.0472,1.0361,1.0147,1.0479,1.0579,1.0579,1.0555,1.0561,1.0396,0.953,0.9274,0.9075,0.8226,0.7994,0.7962,0.7929,0.7307,0.6461,0.5591,0.5395,0.5395,0.5395,0.5395,0.5395,0.5395,0.4652,0.3982,0.3982,0.3245,0.2644,0.2611,0.2611,0.2277,0.1374,0.1274,0.094,0.0101,-0.0034,-0.037,-0.124,-0.1341,-0.1785,-0.2823,-0.2942,-0.3009,-0.3156,-0.4217,-0.5259,-0.6245,-0.7306,-0.8313,-0.9296,-0.8313,-0.7306,-0.6322,-0.8367,-0.9334,0.8804,0.0,0.0,0.0,0.0,0.0,0.0,0.8804,0.8804,0.8804,0.8804,0.8804,0.8804,0.8804,0.8804,0.8804,0.8804,0.8804,0.8804,0.8804,0.8804,0.0,0.0,0.0,0.0,0.0,0.0,0.0,0.8804,0.8804,0.8804,0.8982,0.9387,1.0064,0.9891,0.9891,1.0064,1.009,0.9781,0.9211,0.9211,0.9628,1.0388,1.0507,1.0879,1.1436,1.1346,1.1032,1.0638,1.1459,1.1469,1.0895,1.0688,1.0412,1.0097,1.0207,1.0053,0.9846,1.0134,1.0241,1.0182,0.9787,0.9658,0.9492,0.8613,0.8355,0.8323,0.8059,0.7535,0.6915,0.6272,0.5947,0.5686,0.5458,0.5395,0.5395,0.5395,0.5395,0.5395,0.5395,0.4652,0.3816,0.3178,0.231,0.1475,0.084,0.074,0.0639,0.0404,0.037,0.0269,0.0034,-0.0572,-0.104,-0.1273,-0.2012,-0.2591,-0.2899,-0.3728,-0.4234,-0.4251,-0.5999,-0.708,-0.7349,-0.8342,-0.9031,-0.9296,-0.9031,-0.8723,-0.8447,-0.9026,-0.9707,0.0,0.0,0.0,0.0,0.0,0.0,0.8804,0.8804,0.8804,0.0,0.8804,0.8804,0.8804,0.8804,0.8804,0.8804,0.8804,0.8804,0.8804,0.8804,0.8804,0.0,0.0,0.0,0.0,0.8804,0.8804,0.8804,0.8804,0.8804,0.8804,0.8804,0.8982,0.9361,0.9387,0.9387,0.9387,0.9387,0.9185,0.8804,0.8804,0.9219,0.996,0.9991,1.0257,1.0608,1.0472,1.0239,0.9976,1.0643,1.0637,1.0224,1.0224,1.0013,0.9737,0.9893,0.9753,0.9539,0.9833,0.9718,0.9414,0.9113,0.879,0.8403,0.7573,0.7342,0.7269,0.7,0.6564,0.6042,0.5524,0.5395,0.5395,0.5395,0.5395,0.5395,0.5395,0.509,0.4821,0.4821,0.4084,0.3178,0.2277,0.1374,0.0572,0.0067,0.0,0.0,0.0,0.0,0.0,0.0,-0.0772,-0.1474,-0.1842,-0.285,-0.3635,-0.409,-0.4828,-0.5481,-0.5957,-0.7161,-0.8194,-0.9021,-0.9626,-1.034,-1.1112,-1.0303,-1.034,-1.1149,-1.1582,-1.215,0.0,0.0,0.0,0.0,0.0,0.0,0.8804,0.8804,0.8804,0.0,0.8804,0.8804,0.8804,0.8804,0.8804,0.8804,0.8804,0.8804,0.8804,0.8804,0.8804,0.0,0.0,0.0,0.891,0.8831,0.8831,0.891,0.8831,0.8831,0.891,0.8903,0.8936,0.9008,0.8962,0.8903,0.8903,0.8831,0.8804,0.8804,0.8804,0.8911,0.9158,0.8931,0.9138,0.9619,0.9324,0.9364,0.9633,0.9599,0.9655,0.9715,0.9715,0.9499,0.9244,0.9539,0.9446,0.9204,0.944,0.9099,0.8545,0.8393,0.7898,0.722,0.6458,0.6233,0.6112,0.552,0.5382,0.5395,0.5395,0.5395,0.5395,0.5395,0.5395,0.5362,0.5259,0.4586,0.3949,0.3747,0.3078,0.2277,0.1441,0.0572,0.0,0.0,0.0,0.0,0.0,0.0,-0.0034,-0.0135,-0.094,-0.1842,-0.2778,-0.3778,-0.4763,-0.5754,-0.5909,-0.6543,-0.7736,-0.7897,-0.8874,-1.0746,-1.1007,-1.2037,-1.3846,-1.2148,-1.2184,-1.3882,-1.4812,-1.5458,0.0,0.0,0.0,0.0,0.0,0.0,0.8804,0.8804,0.8804,0.0,0.8804,0.8804,0.8804,0.8804,0.8804,0.8804,0.8804,0.8804,0.8804,0.8804,0.8804,0.0,0.0,0.0,0.9562,0.9106,0.9035,0.9562,0.9113,0.9035,0.9588,0.9614,0.9865,1.0389,0.9891,0.9614,0.9614,0.9061,0.8804,0.8804,0.8804,0.8838,0.8898,0.9044,0.9191,0.9297,0.9237,0.9244,0.9277,0.9078,0.9259,0.9715,0.9715,0.9499,0.9217,0.9277,0.9111,0.8851,0.8574,0.8385,0.8103,0.7032,0.6579,0.6289,0.5464,0.5204,0.5174,0.5167,0.5267,0.5395,0.5395,0.5395,0.5395,0.5395,0.5395,0.5193,0.4453,0.4115,0.358,0.2108,0.1675,0.1507,0.134,0.0572,0.0,0.0,0.0,0.0,0.0,0.0,-0.0269,-0.0973,-0.1876,-0.2778,-0.368,-0.4708,-0.5472,-0.5793,-0.5909,-0.6543,-0.7736,-0.858,-0.9556,-1.0783,-1.2338,-1.3723,-1.4914,-1.4542,-1.4542,-1.4922,-1.5452,-1.5735,0.0,0.0,0.0,0.8804,0.0,0.0,0.0,0.8804,0.8804,0.8804,0.8804,0.8804,0.8804,0.8804,0.8804,0.8804,0.8804,0.8804,0.8804,0.8804,0.8804,0.0,0.0,0.0,0.9762,0.9484,0.9439,0.9762,0.9788,0.9943,1.0287,0.9987,0.9961,1.0287,0.9666,0.9309,0.9309,0.8962,0.8804,0.8804,0.8804,0.8804,0.8811,0.8931,0.8998,0.8998,0.8998,0.8998,0.8984,0.8871,0.8985,0.9245,0.9245,0.9158,0.8971,0.8578,0.8354,0.8174,0.7597,0.7163,0.6731,0.6076,0.5624,0.5274,0.4897,0.486,0.4904,0.4975,0.5131,0.5247,0.5247,0.497,0.4688,0.4688,0.4386,0.3915,0.3447,0.2978,0.2376,0.1474,0.0939,0.0638,0.0638,0.0303,0.0,0.0,0.0,0.0,0.0,0.0,-0.0337,-0.1207,-0.2143,-0.3045,-0.3915,-0.4984,-0.565,-0.5793,-0.6416,-0.7285,-0.8494,-0.9518,-1.0746,-1.2228,-1.414,-1.5403,-1.5895,-1.7053,-1.7154,-1.6234,-1.7401,-1.8163,0.0,0.0,0.0,0.0,0.0,0.8804,0.0,0.0,0.0,0.0,0.0,0.0,0.0,0.0,0.0,0.0,0.0,0.0,0.0,0.8948,0.0,0.8804,0.0,0.0,0.0,1.0115,1.0141,0.9987,1.0491,1.0788,1.0788,1.0295,0.9987,0.9987,0.9335,0.8982,0.8982,0.8857,0.8804,0.8804,0.8804,0.8804,0.8804,0.8804,0.8804,0.8804,0.8804,0.8804,0.8804,0.8804,0.8725,0.8586,0.8752,0.8725,0.8507,0.791,0.761,0.7369,0.6637,0.6009,0.5487,0.5351,0.4948,0.4511,0.4638,0.4755,0.4844,0.4693,0.476,0.481,0.4674,0.4208,0.3756,0.3742,0.3211,0.2644,0.2477,0.1842,0.124,0.1073,0.0471,0.0,0.0,0.0,0.0,0.0,0.0,0.0,0.0,-0.0135,-0.0605,-0.1474,-0.241,-0.3311,-0.4184,-0.5061,-0.5721,-0.6072,-0.6961,-0.8093,-0.9545,-1.0746,-1.2258,-1.4235,-1.579,-1.6742,-1.6998,-1.9065,-1.9282,-1.7816,-1.9733,-2.104,0.0,0.0,0.0,0.0,0.8971,0.0,0.0,0.0,0.8804,0.8804,0.0,0.0,0.0,0.0,0.0,0.0,0.0,0.0,0.9283,0.9533,0.9465,0.8883,0.0,0.0,0.0,1.1216,1.1341,1.0737,1.0762,1.0788,1.0788,1.0745,1.0695,1.0695,1.0038,0.9692,0.9692,0.9113,0.8804,0.8804,0.8804,0.8804,0.8804,0.8804,0.8804,0.8804,0.8804,0.8804,0.8804,0.8804,0.8401,0.7883,0.8533,0.8401,0.7803,0.7723,0.7289,0.6615,0.5869,0.5569,0.5406,0.4814,0.457,0.4494,0.4511,0.4624,0.4598,0.3919,0.386,0.3789,0.3153,0.2925,0.2853,0.286,0.2778,0.2477,0.1641,0.1374,0.1074,0.0303,0.0067,0.0,0.0,0.0,0.0,0.0,0.0,0.0,0.0,-0.0672,-0.1507,-0.2444,-0.3311,-0.4217,-0.516,-0.5342,-0.5909,-0.7049,-0.7264,-0.83,-1.0542,-1.2375,-1.4299,-1.6245,-1.6489,-1.7211,-1.8379,-1.9558,-1.9991,-1.983,-2.1693,-2.2626,0.0,0.0,0.0,0.0,0.0,0.0,0.8844,0.0,0.8804,0.0,0.0,0.0,0.0,0.0,0.0,0.0,0.9056,0.0,0.0,0.0,1.0287,0.0,0.0,0.0,0.0,0.0,0.0,0.0,1.1166,1.1216,1.0813,1.044,1.0218,1.0218,0.9562,0.9211,0.9211,0.8936,0.8804,0.8804,0.8804,0.8804,0.8804,0.8804,0.8804,0.8804,0.8804,0.8804,0.8804,0.8804,0.8374,0.7723,0.8049,0.7723,0.702,0.6578,0.6222,0.5873,0.5167,0.4921,0.4869,0.4598,0.4491,0.4491,0.4491,0.4253,0.3871,0.3529,0.3237,0.2981,0.2669,0.2252,0.1877,0.1897,0.1509,0.1041,0.0639,0.0538,0.0437,0.0067,0.0,0.0,0.0,0.0,0.0,0.0,0.0,0.0,0.0,-0.0772,-0.1675,-0.2611,-0.348,-0.4384,-0.5329,-0.5848,-0.6487,-0.7257,-0.9088,-1.0852,-1.2405,-1.4355,-1.5755,-1.6567,-1.7933,-1.8927,-1.9485,-2.1537,-2.2526,-2.2571,-2.3352,-2.3863,0.9746,0.0,0.0,0.0,0.0,0.0,0.0,0.0,0.0,0.0,0.0,0.0,0.0,0.0,0.0,0.0,0.0,0.9835,0.0,1.0604,0.0,0.0,0.0,0.0,0.0,0.0,0.0,1.1459,1.1649,1.1516,1.0838,1.0167,0.971,0.9536,0.9061,0.8804,0.8804,0.8804,0.8804,0.8804,0.8804,0.8804,0.8804,0.8804,0.8804,0.8804,0.8804,0.8804,0.8804,0.8804,0.8235,0.7396,0.7396,0.6831,0.5987,0.5624,0.5378,0.5164,0.468,0.4491,0.4491,0.4491,0.4491,0.446,0.4236,0.3818,0.3289,0.2843,0.2412,0.2075,0.1857,0.1377,0.0932,0.0932,0.0471,0.0,0.0,0.0,0.0,0.0,0.0,0.0,0.0,0.0,0.0,0.0,0.0,0.0,0.0,-0.0974,-0.1941,-0.2611,-0.3713,-0.4652,-0.5326,-0.6203,-0.7207,-0.8394,-1.1073,-1.3194,-1.4442,-1.586,-1.689,-1.7546,-1.9212,-2.0347,-2.0879,-2.3178,-2.4359,-2.4502,-2.479,-2.5203,0.0,0.0,0.0,1.0057,0.0,0.0,0.0,0.0,0.8804,0.0,0.0,0.0,0.0,0.0,0.0,0.0,0.0,0.0,0.0,0.0,0.0,0.0,0.0,0.0,0.0,0.0,0.0,1.2832,1.2187,1.1516,1.0838,1.0167,0.951,0.8857,0.8804,0.8804,0.8804,0.8804,0.8804,0.8804,0.8804,0.8804,0.8804,0.8804,0.8804,0.8804,0.8804,0.8804,0.8804,0.8804,0.7937,0.6642,0.6642,0.5796,0.4653,0.5273,0.5081,0.4515,0.4519,0.4491,0.4491,0.4491,0.4491,0.4349,0.3566,0.3372,0.3095,0.1591,0.1147,0.0967,0.0273,0.0062,0.0031,0.0033,0.0034,0.0,0.0,0.0,0.0,0.0,0.0,0.0,0.0,0.0,0.0,0.0,0.0,0.0,0.0,-0.1543,-0.2678,-0.2711,-0.4284,-0.5362,-0.5395,-0.6203,-0.8057,-1.1242,-1.2827,-1.4514,-1.6419,-1.6567,-1.7678,-1.9949,-2.0049,-2.0978,-2.2823,-2.3815,-2.4515,-2.5016,-2.6,-2.6845,0.0,0.0,1.0399,1.0167,0.0,0.0,0.0,0.0,0.0,0.0,0.0,0.0,0.0,0.0,0.0,0.0,0.0,0.0,0.0,0.0,0.0,0.0,0.0,0.0,0.0,0.0,0.0,1.2212,1.1832,1.1174,1.0192,0.951,0.9237,0.9465,0.9035,0.9008,0.9465,0.9035,0.8804,0.8804,0.8804,0.8804,0.8804,0.8804,0.8804,0.8804,0.8804,0.8804,0.8752,0.8262,0.7482,0.6561,0.6064,0.5304,0.4515,0.4759,0.4704,0.4491,0.4491,0.4491,0.4491,0.4491,0.4181,0.3735,0.3456,0.2676,0.1758,0.1257,0.0755,0.0311,0.0059,0.0,0.0,0.0,0.0,0.0,0.0,0.0,0.0,0.0,0.0,0.0,0.0,-0.0471,-0.0672,-0.0101,-0.0504,-0.0873,-0.0873,-0.2444,-0.3547,-0.3547,-0.4652,-0.562,-0.6203,-0.8527,-1.0674,-1.2359,-1.4439,-1.5895,-1.6558,-1.7469,-1.8631,-2.0083,-2.1313,-2.2566,-2.3827,-2.5119,-2.5827,-2.6013,-2.6892,-2.7451,0.9831,1.0142,0.0,1.0259,1.012,0.0,0.9457,0.0,0.0,0.0,0.0,0.0,0.0,0.0,0.0,0.0,0.0,0.0,0.0,1.2338,0.0,0.0,0.0,0.0,0.0,1.2666,1.1988,1.077,1.1039,1.1023,0.0,0.0,0.9718,1.0141,0.9517,0.9361,0.9788,0.9133,0.8804,0.8804,0.8804,0.8804,0.8804,0.8804,0.8804,0.8804,0.8804,0.8804,0.8752,0.7996,0.7262,0.6529,0.5787,0.5081,0.4491,0.4491,0.4491,0.4491,0.4491,0.4491,0.4491,0.4491,0.4181,0.368,0.3148,0.2287,0.1368,0.0866,0.0364,0.0,0.0,0.0,0.0,0.0,0.0,0.0,0.0,0.0,0.0,0.0,-0.0236,-0.0471,-0.0471,-0.1208,-0.1508,-0.0605,-0.1208,-0.1808,-0.1808,-0.3078,-0.4015,-0.4015,-0.5113,-0.6395,-0.7673,-1.0108,-1.2158,-1.3466,-1.5455,-1.674,-1.707,-1.7941,-1.9267,-2.1149,-2.2154,-2.356,-2.5349,-2.6111,-2.6499,-2.6521,-2.7637,-2.8149]},{"header":{"parameterUnit":"m.s-1","parameterCategory":1,"la1":30.6,"la2":29.2853,"lo1":-89.7004,"lo2":-87.6739,"dx":0.0162,"dy":0.0183,"nx":112,"ny":82,"refTime":"2023-01-30T06:00:00:Z","depth":0,"parameterNumber":3,"parameterNumberName":"V-component_of_WINDS"},"data":[0.0,0.0,0.0,0.0,0.0,0.0,0.0,0.0,0.0,0.0,0.0,0.0,0.0,0.0,0.0,0.0,0.0,0.0,0.0,0.0,0.0,0.0,0.0,0.0,0.0,0.0,0.0,0.0,0.0,0.0,0.0,0.0,0.0,0.0,0.0,0.0,0.0,0.0,0.0,0.0,0.0,0.0,0.0,0.0,0.0,0.0,0.0,0.0,0.0,0.0,0.0,0.0,0.0,0.0,0.0,0.0,0.0,0.0,0.0,0.0,0.0,0.0,0.0,0.0,0.0,0.0,0.0,0.0,0.0,0.0,0.0,0.0,0.0,0.0,0.0,0.0,0.0,0.0,0.0,0.0,0.0,0.0,0.0,0.0,0.0,0.0,0.0,0.0,0.0,0.0,0.7836,0.796,0.8334,0.8574,0.8574,0.845,0.8209,0.7827,0.0,0.0,0.0,0.0,0.0,0.0,0.0,0.0,0.0,0.0,0.0,0.0,0.0,0.0,0.0,0.0,0.0,0.0,0.0,0.0,0.0,0.0,0.0,0.0,0.0,0.0,0.0,0.0,0.0,0.0,0.0,0.0,0.0,0.0,0.0,0.0,0.0,0.0,0.0,0.0,0.0,0.0,0.0,0.0,0.0,0.0,0.0,0.0,0.0,0.0,0.0,0.0,0.0,0.0,0.0,0.0,0.0,0.0,0.0,0.0,0.0,0.0,0.0,0.0,0.0,0.0,0.0,0.0,0.0,0.0,0.0,0.0,0.0,0.0,0.0,0.0,0.0,0.0,0.0,0.0,0.0,0.0,0.0,0.0,0.0,0.0,0.0,0.0,0.0,0.0,0.0,0.0,0.0,0.0,0.0,0.0,0.0,0.0,0.0,0.0,0.0,0.0,0.0,0.0,0.8473,0.9156,0.9286,0.9342,0.9342,0.8965,0.8578,0.8233,0.0,0.0,0.0,0.0,0.0,0.0,0.0,0.0,0.0,0.0,0.0,0.0,0.0,0.0,0.0,0.0,0.0,0.0,0.0,0.0,0.0,0.0,0.0,0.0,0.0,0.0,0.0,0.0,0.0,0.0,0.0,0.0,0.0,0.0,0.0,0.0,0.0,0.0,0.0,0.0,0.0,0.0,0.0,0.0,0.0,0.0,0.0,0.0,0.0,0.0,0.0,0.0,0.0,0.0,0.0,0.0,0.0,0.0,0.0,0.0,0.0,0.0,0.0,0.0,0.0,0.0,0.0,0.0,0.0,0.0,0.0,0.0,0.0,0.0,0.0,0.0,0.0,0.0,0.0,0.0,0.0,0.0,0.0,0.0,0.0,0.0,0.0,0.0,0.0,0.0,0.0,0.0,0.0,0.0,0.0,0.0,0.0,0.0,0.0,0.0,0.0,0.0,0.0,0.8191,0.8507,0.907,0.9124,0.9124,0.9124,0.9117,0.8896,0.8336,0.8642,0.0,0.0,0.0,0.0,0.0,0.0,0.0,0.0,0.0,0.0,0.0,0.0,0.0,0.0,0.0,0.0,0.0,0.0,0.0,0.0,0.0,0.0,0.0,0.0,0.0,0.0,0.0,0.0,0.0,0.0,0.0,0.0,0.0,0.0,0.0,0.0,0.0,0.0,0.0,0.0,0.0,0.0,0.0,0.0,0.0,0.0,0.0,0.0,0.0,0.0,0.0,0.0,0.0,0.0,0.0,0.0,0.0,0.0,0.0,0.0,0.0,0.0,0.0,0.0,0.0,0.0,0.0,0.0,0.0,0.0,0.0,0.0,0.0,0.0,0.0,0.0,0.0,0.0,0.0,0.0,0.0,0.0,0.0,0.0,0.0,0.0,0.0,0.0,0.0,0.0,0.0,0.0,0.0,0.0,0.0,0.0,0.0,0.0,0.0,0.0,0.0,0.0,0.8505,0.869,0.9021,0.9062,0.9062,0.9062,0.9343,0.9235,0.8603,0.8662,0.0,0.0,0.0,0.0,0.0,0.0,0.0,0.0,0.0,0.0,0.0,0.0,0.0,0.0,0.0,0.0,0.0,0.0,0.0,0.0,0.0,0.0,0.0,0.0,0.0,0.0,0.0,0.0,0.0,0.0,0.0,0.0,0.0,0.0,0.0,0.0,0.0,0.0,0.0,0.0,0.0,0.0,0.0,0.0,0.0,0.0,0.0,0.0,0.0,0.0,0.0,0.0,0.0,0.0,0.0,0.0,0.0,0.0,0.0,0.0,0.0,0.0,0.0,0.0,0.0,0.0,0.0,0.0,0.0,0.0,0.0,0.0,0.0,0.0,0.0,0.0,0.0,0.0,0.0,0.0,0.0,0.0,0.0,0.0,0.0,0.0,0.0,0.0,0.0,0.0,0.0,0.0,0.0,0.0,0.0,0.0,0.0,0.0,0.0,0.0,0.0,0.0,0.9101,0.9449,0.979,0.9816,0.9816,0.9816,0.9854,0.9712,0.9343,0.8822,0.0,0.0,0.0,0.0,0.0,0.0,0.0,0.0,0.0,0.0,0.0,0.0,0.0,0.0,0.0,0.0,0.0,0.0,0.0,0.0,0.0,0.0,0.0,0.0,0.0,0.0,0.0,0.0,0.0,0.0,0.0,0.0,0.0,0.0,0.0,0.0,0.0,0.0,0.0,0.0,0.0,0.0,0.0,0.0,0.0,0.0,0.0,0.0,0.0,0.0,0.0,0.0,0.0,0.0,0.0,0.0,0.0,0.0,0.0,0.0,0.0,0.0,0.0,0.0,0.0,0.0,0.0,0.0,0.0,0.0,0.0,0.0,0.0,0.0,0.0,0.0,0.0,0.0,0.0,0.0,0.0,0.0,0.0,0.0,0.0,0.0,0.0,0.0,0.0,0.0,0.0,0.0,0.0,0.0,0.0,0.0,0.0,0.0,0.0,0.0,0.0,0.0,0.9155,0.9527,0.0,0.9905,0.9905,0.9905,0.9905,0.9751,0.9422,0.0,0.0,0.0,0.0,0.0,0.0,0.0,0.0,0.0,0.0,0.0,0.0,0.0,0.0,0.0,0.0,0.0,0.0,0.0,0.0,0.0,0.0,0.0,0.0,0.0,0.0,0.0,0.0,0.0,0.0,0.0,0.0,0.0,0.0,0.0,0.0,0.0,0.0,0.0,0.0,0.0,0.0,0.0,0.0,0.0,0.0,0.0,0.0,0.0,0.0,0.0,0.0,0.0,0.0,0.0,0.0,0.0,0.0,0.0,0.0,0.0,0.0,0.0,0.0,0.0,0.0,0.0,0.0,0.0,0.0,0.0,0.0,0.0,0.0,0.0,0.0,0.0,0.0,0.0,0.0,0.0,0.0,0.0,0.0,0.0,0.0,0.0,0.0,0.0,0.0,0.0,0.0,0.0,0.0,0.0,0.0,0.0,0.0,0.0,0.0,0.0,0.0,0.9106,0.9465,0.9842,0.0,1.0223,1.0223,1.0223,1.0021,0.9841,0.9725,0.0,0.0,0.0,0.0,0.0,0.0,0.0,0.0,0.0,0.0,0.0,0.0,0.0,0.0,0.0,0.0,0.0,0.0,0.0,0.0,0.0,0.0,0.0,0.0,0.0,0.0,0.0,0.0,0.0,0.0,0.0,0.0,0.0,0.0,0.0,0.0,0.0,0.0,0.0,0.0,0.0,0.0,0.0,0.0,0.0,0.0,0.0,0.0,0.0,0.0,0.0,0.0,0.0,0.0,0.0,0.0,0.0,0.0,0.0,0.0,0.0,0.0,0.0,0.0,0.0,0.0,0.0,0.0,0.0,0.0,0.0,0.0,0.0,0.0,0.0,0.0,0.0,0.0,0.0,0.0,0.0,0.0,0.0,0.0,0.0,0.0,0.0,0.0,0.0,0.0,0.0,0.0,0.0,0.0,0.0,0.0,0.0,0.0,0.0,0.0,0.0,0.0,0.9766,1.0146,1.0532,1.0861,1.0897,1.0897,1.0897,1.0286,1.0034,0.0,0.0,0.0,0.0,0.0,0.0,0.0,0.0,0.0,0.0,0.0,0.0,0.0,0.0,0.0,0.0,0.0,0.0,0.0,0.0,0.0,0.0,0.0,0.0,0.0,0.0,0.0,0.0,0.0,0.0,0.0,0.0,0.0,0.0,0.0,0.0,0.0,0.0,0.0,0.0,0.0,0.0,0.0,0.0,0.0,0.0,0.0,0.0,0.0,0.0,0.0,0.0,0.0,0.0,0.0,0.0,0.0,0.0,0.0,0.0,0.0,0.0,0.0,0.0,0.0,0.0,0.0,0.0,0.0,0.0,0.0,0.0,0.0,0.0,0.0,0.0,0.0,0.0,0.0,0.0,0.0,0.0,0.0,0.0,0.0,0.0,0.0,0.0,0.0,0.0,0.0,0.0,0.0,0.0,0.0,0.0,0.0,0.0,0.0,0.0,0.0,0.0,0.0,0.983,1.0358,1.0801,1.0885,1.0897,1.0837,1.0693,1.051,0.963,0.7829,0.0,0.0,0.0,0.0,0.0,0.0,0.0,0.0,0.0,0.0,0.0,0.0,0.0,0.0,0.0,0.0,0.0,0.0,0.0,0.0,0.0,0.0,0.0,0.0,0.0,0.0,0.0,0.0,0.0,0.0,0.0,0.0,0.0,0.0,0.0,0.0,0.0,0.0,0.0,0.0,0.0,0.0,0.0,0.0,0.0,0.0,0.0,0.0,0.0,0.0,0.0,0.0,0.0,0.0,0.0,0.0,0.0,0.0,0.0,0.0,0.0,0.0,0.0,0.0,0.0,0.0,0.0,0.0,0.0,0.0,0.0,0.0,0.0,0.0,0.0,0.0,0.0,0.0,0.0,0.0,0.0,0.0,0.0,0.0,0.0,0.0,0.0,0.0,0.0,0.0,0.0,0.0,0.0,0.0,0.0,0.0,0.0,0.0,0.0,0.0,0.0,0.0,1.0271,1.0724,1.1106,1.1233,1.1256,1.121,1.1094,0.963,0.8638,0.8454,0.0,0.0,0.0,0.0,0.0,0.0,0.0,0.0,0.0,0.0,0.0,0.0,0.0,0.0,0.0,0.0,0.0,0.0,0.0,0.0,0.0,0.0,0.0,0.0,0.0,0.0,0.0,0.0,0.0,0.0,0.0,0.0,0.0,0.0,0.0,0.0,0.0,0.0,0.0,0.0,0.0,0.0,0.0,0.0,0.0,0.0,0.0,0.0,0.0,0.0,0.0,0.0,0.0,0.0,0.0,0.0,0.0,0.0,0.0,0.0,0.0,0.0,0.0,0.0,0.0,0.0,0.0,0.0,0.0,0.0,0.0,0.0,0.0,0.0,0.0,0.0,0.0,0.0,0.0,0.0,0.0,0.0,0.0,0.0,0.0,0.0,0.0,0.0,0.0,0.0,0.0,0.0,0.0,0.0,0.0,0.0,0.0,0.0,0.0,0.0,0.0,0.0,1.0958,1.1173,1.1457,1.1772,1.1805,1.1805,1.1805,0.8513,0.7796,1.0966,0.0,0.0,0.0,0.0,0.0,0.0,0.0,0.0,0.0,0.0,0.0,0.0,0.0,0.0,0.0,0.0,0.0,0.0,0.0,0.0,0.0,0.0,0.0,0.0,0.0,0.0,0.0,0.0,0.0,0.0,0.0,0.0,0.0,0.0,0.0,0.0,0.0,0.0,0.0,0.0,0.0,0.0,0.0,0.0,0.0,0.0,0.0,0.0,0.0,0.0,0.0,0.0,0.0,0.0,0.0,0.0,0.0,0.0,0.0,0.0,1.2815,0.0,0.0,0.0,0.0,0.0,0.0,0.0,0.0,0.0,0.0,0.0,0.0,0.0,0.0,0.0,0.0,0.0,0.0,0.0,0.0,0.0,0.0,0.0,0.0,0.0,0.0,0.0,0.0,0.0,0.0,0.0,0.0,0.0,0.0,0.0,0.0,0.0,0.0,0.0,0.0,0.0,1.1276,1.149,1.1714,1.1794,1.1805,1.1805,1.1805,1.1027,1.0649,1.0949,0.5394,0.0,0.0,0.0,0.0,0.0,0.0,0.0,0.0,0.0,0.0,0.0,0.0,0.0,0.0,0.0,0.0,0.0,0.0,0.0,0.0,0.0,0.0,0.0,0.0,0.0,0.0,0.0,0.0,0.0,0.0,0.0,0.0,0.0,0.0,0.0,0.0,0.0,0.0,0.0,0.0,0.0,0.0,0.0,0.0,0.0,0.0,0.0,0.0,0.0,0.0,0.0,0.0,0.0,0.0,0.0,0.0,0.0,0.0,0.0,0.0,1.3276,0.0,0.0,0.0,0.0,0.0,0.0,0.0,0.0,0.0,0.0,0.0,0.0,0.0,0.0,0.0,0.0,0.0,0.0,0.0,0.0,0.0,0.0,0.0,0.0,0.0,0.0,0.0,0.0,0.0,0.0,0.0,0.0,0.0,0.0,0.0,0.0,0.0,0.0,0.0,0.0,1.1405,1.1579,1.1805,1.1805,1.1805,1.1805,1.1805,1.1805,1.0865,0.8641,0.645,0.0,0.0,0.0,0.0,0.0,0.0,0.0,0.0,0.0,0.0,0.0,0.0,0.0,0.0,0.0,0.0,0.0,0.0,0.0,0.0,0.0,0.0,0.0,0.0,0.0,0.0,0.0,0.0,0.0,0.0,0.0,0.0,0.0,0.0,0.0,0.0,0.0,0.0,0.0,0.0,0.0,0.0,0.0,0.0,0.0,0.0,0.0,0.0,0.0,0.0,0.0,0.0,0.0,1.6796,1.6813,1.6714,1.6714,1.6887,1.7132,1.556,1.4625,1.4168,1.3667,0.0,0.0,0.0,0.0,0.0,0.0,0.0,0.0,0.0,0.0,0.0,0.0,0.0,0.0,0.0,0.0,0.0,0.0,0.0,0.0,0.0,0.0,0.0,0.0,1.6581,1.6284,0.0,0.0,0.0,0.0,0.0,0.0,0.0,0.0,0.0,0.0,0.0,0.0,1.1681,1.1696,1.1805,1.1805,1.1805,1.1805,1.1805,1.1805,1.0413,0.7132,0.8237,0.6916,0.0,0.0,0.0,0.0,0.0,0.0,0.0,0.0,0.0,0.0,0.0,0.0,0.0,0.0,0.0,0.0,0.0,0.0,0.0,0.0,0.0,0.0,0.0,0.0,0.0,0.0,0.0,0.0,0.0,0.0,0.0,0.0,1.7099,1.7692,0.0,0.0,0.0,0.0,0.0,0.0,0.0,0.0,0.0,0.0,0.0,0.0,0.0,1.6784,1.6362,1.7387,1.7589,1.7038,1.7947,1.8117,1.7552,1.7552,1.7568,1.7587,1.6766,0.0,1.5739,1.509,0.0,0.0,0.0,0.0,0.0,0.0,0.0,0.0,0.0,0.0,0.0,0.0,0.0,0.0,0.0,0.0,0.0,0.0,0.0,0.0,0.0,0.0,1.6738,1.6789,1.6763,1.6553,0.0,1.5762,1.5799,1.5799,1.5334,0.0,0.0,0.0,0.0,0.0,0.0,0.0,1.2697,1.2127,1.1805,1.1805,1.1805,1.1805,1.1805,1.1805,1.158,1.1057,0.4997,0.4078,1.0009,0.458,0.0,0.0,0.0,0.0,0.0,0.0,0.0,0.0,0.0,0.0,0.0,0.0,0.0,0.0,0.0,0.0,0.0,0.0,0.0,0.0,0.0,0.0,0.0,0.0,0.0,0.0,0.0,0.0,0.0,1.7511,1.7735,1.797,1.7518,1.7187,0.0,0.0,0.0,0.0,0.0,0.0,0.0,0.0,0.0,1.8096,1.787,1.7741,1.7745,1.8582,1.8862,1.8564,1.9036,1.9106,1.8822,1.8822,1.8714,1.8505,1.7836,1.7364,1.6967,1.5846,1.5831,1.6514,0.0,0.0,0.0,0.0,1.8007,1.8238,1.8811,1.9137,0.0,1.9499,0.0,0.0,0.0,0.0,0.0,0.0,0.0,0.0,0.0,0.0,0.0,1.7325,1.6892,1.6374,1.6049,1.5525,1.5132,0.0,1.4949,1.494,1.5388,0.0,0.0,0.0,0.0,1.4124,1.3451,1.3107,1.2777,1.24,1.2355,1.222,1.1835,1.1805,1.1805,1.1805,0.8543,0.6194,0.5207,0.6104,0.6344,0.0,0.0,0.0,0.0,0.0,0.0,0.0,0.0,0.0,0.0,0.0,0.0,0.0,0.0,0.0,0.0,0.0,0.0,0.0,0.0,0.0,0.0,0.0,0.0,0.0,0.0,0.0,0.0,1.8082,1.8233,1.8122,1.7794,1.7562,0.0,0.0,0.0,0.0,0.0,0.0,1.8893,1.8662,1.8647,1.8957,1.8679,1.8647,1.8957,1.9453,1.9708,1.9708,1.9803,1.9856,1.9856,1.998,1.9912,1.9621,1.8936,1.8599,1.8359,1.6626,1.6514,1.7453,1.7633,1.8151,1.8841,1.9344,1.9583,1.9736,2.0243,2.0497,2.0603,2.0603,0.0,2.0276,1.9621,0.0,0.0,0.0,0.0,1.7704,1.7476,1.7427,1.7502,1.7738,1.7194,1.6502,1.6044,1.5269,1.4629,0.0,1.4437,1.4487,1.4781,0.0,0.0,0.0,0.0,1.4618,1.4124,1.3914,1.3615,1.3118,1.3059,1.2849,1.2358,1.2149,1.2055,1.2055,1.1895,0.9157,0.3262,0.6733,0.7122,0.3602,0.0,0.0,0.0,0.0,0.0,0.0,0.0,0.0,0.0,0.0,0.0,0.0,0.0,0.0,0.0,0.0,0.0,0.0,0.0,0.0,0.0,0.0,0.0,0.0,0.0,0.0,0.0,0.0,0.0,1.8651,1.8746,0.0,0.0,0.0,0.0,1.8106,1.8593,1.8893,1.8893,1.9358,1.963,1.9648,1.963,1.963,1.9648,1.9693,1.9708,1.9693,2.0089,2.0263,2.028,2.0731,2.0927,2.0879,2.0191,2.008,2.0174,1.7738,1.7152,1.7836,1.8546,1.9235,1.9907,2.0639,2.1131,2.1483,2.1501,2.1803,2.2186,2.2186,2.1878,2.1401,2.072,1.9772,0.0,0.0,1.7877,1.7406,1.7709,1.7777,1.7789,1.78,1.7755,1.7266,1.5613,1.5005,1.4687,0.0,1.3713,1.3409,1.3798,0.0,1.4109,1.4707,1.4811,1.4796,1.4751,1.4199,1.3782,1.3752,1.375,1.375,1.3692,1.3118,1.2756,1.2756,1.216,1.1625,1.1221,0.4369,0.4544,1.2945,1.3558,0.0,0.0,0.0,0.0,0.0,0.0,0.0,0.0,0.0,0.0,0.0,0.0,0.0,0.0,0.0,0.0,0.0,0.0,0.0,0.0,0.0,0.0,0.0,0.0,0.0,0.0,0.0,0.0,1.8747,1.874,0.0,1.8768,1.8592,1.8677,1.9103,1.9314,1.9406,1.9406,1.9841,2.0089,2.0089,2.0381,2.0548,2.0548,2.0548,2.0548,2.0548,2.0682,2.0764,2.0764,2.0926,2.0876,2.0652,2.0437,2.0261,2.011,1.9221,1.9138,1.9589,2.0163,2.0341,2.042,2.144,2.163,2.1407,2.1895,2.2149,2.2296,2.2296,2.2194,2.2013,2.1773,2.1086,2.0253,1.9608,1.8892,1.8257,1.7895,1.78,1.78,1.78,1.7439,1.6921,1.6296,1.5716,1.5211,1.4902,1.3807,1.3038,1.3367,1.3996,1.4513,1.4766,1.517,1.5439,1.5439,1.523,1.4931,1.4483,1.4438,1.4274,1.3842,1.3585,1.3268,1.2831,1.2591,1.225,1.182,0.9097,0.6748,0.4948,0.8259,0.9034,0.0,0.0,0.0,0.0,0.0,0.0,0.0,0.0,0.0,0.0,0.0,0.0,0.0,0.0,0.0,0.0,0.0,0.0,0.0,0.0,0.0,0.0,0.0,0.0,0.0,0.0,1.9453,1.8777,1.8897,1.9031,1.9031,1.9155,1.9425,1.9879,2.005,2.0139,2.0139,2.0398,2.0533,2.0533,2.0845,2.0991,2.0991,2.0991,2.0991,2.0991,2.1134,2.1197,2.1213,2.1369,2.1322,2.1107,2.1107,2.098,2.0792,2.0792,2.0898,2.1119,2.1181,2.1009,2.0852,2.1908,2.1989,2.1634,2.2141,2.2296,2.2296,2.2296,2.2296,2.2296,2.2296,2.1786,2.1038,2.0234,1.9473,1.8724,1.7986,1.78,1.78,1.78,1.7422,1.6988,1.6644,1.6175,1.5683,1.5166,1.4084,1.325,1.3228,1.3986,1.4569,1.4466,1.523,1.5799,1.5799,1.5799,1.5634,1.5185,1.514,1.496,1.4513,1.4274,1.3944,1.3493,1.3253,1.2939,1.2493,1.1476,0.8326,0.2773,0.6116,0.835,0.9265,0.0,0.0,0.0,0.0,0.0,0.0,0.0,0.0,0.0,0.0,0.0,0.0,0.0,0.0,0.0,0.0,0.0,0.0,0.0,0.0,0.0,0.0,0.0,1.8822,1.9303,1.9486,1.8824,1.9318,1.9711,1.9744,2.0072,2.0314,2.0331,2.0732,2.0991,2.0991,2.1007,2.1007,2.1007,2.1023,2.1039,2.1039,2.1039,2.1039,2.1055,2.143,2.1612,2.1643,2.2092,2.2296,2.2296,2.2296,2.2296,2.2296,2.2296,2.2296,2.2243,2.1512,2.1207,2.1292,2.204,2.2296,2.2296,2.2296,2.2296,2.2296,2.2296,2.2296,2.2296,2.2296,2.1786,2.1038,2.0234,1.9473,1.8724,1.7986,1.78,1.78,1.78,1.78,1.7524,1.6553,1.6359,1.6066,1.507,1.4498,1.4008,1.343,1.3818,1.4114,1.3863,1.4946,0.0,1.5799,1.5799,1.5799,1.5799,1.5799,1.5799,1.5799,1.52,1.4826,1.4811,1.4199,1.3827,1.3812,1.0952,0.8955,0.8109,0.8102,1.0224,1.4501,0.0,0.0,0.0,0.0,0.0,0.0,0.0,0.0,0.0,0.0,0.0,0.0,0.0,0.0,0.0,0.0,0.0,0.0,0.0,0.0,0.0,1.9929,1.9974,1.9489,1.9841,2.0064,1.988,2.0034,2.0261,2.0599,2.0433,2.0449,2.078,2.0926,2.0991,2.0991,2.1275,2.143,2.143,2.1766,2.1945,2.1945,2.1945,2.1945,2.1945,2.2063,2.2106,2.2106,2.2237,2.2296,2.2296,2.2296,2.2296,2.2296,2.2296,2.2296,2.2279,2.209,2.1667,2.1292,2.204,2.2296,2.2296,2.2296,2.2296,2.2296,2.2296,2.2296,2.2296,2.2296,2.1786,2.1038,2.0234,1.9473,1.8724,1.7986,1.78,1.78,1.78,1.78,1.7721,1.7451,1.739,1.7232,1.6713,1.6265,1.5568,1.4239,1.3964,1.4048,1.4451,1.5245,0.0,1.5799,1.5799,1.5799,1.5799,1.5799,1.5799,1.5799,1.5634,1.5319,1.4826,1.4631,1.4438,1.4231,1.3421,1.2718,1.2194,1.251,1.3276,0.0,0.0,0.0,0.0,0.0,0.0,0.0,0.0,0.0,0.0,0.0,0.0,0.0,0.0,0.0,0.0,0.0,0.0,0.0,0.0,0.0,0.0,2.0448,2.0626,2.07,2.0637,2.0583,2.0583,2.0583,2.0715,2.0975,2.091,2.0959,2.1228,2.1431,2.1539,2.1539,2.1781,2.1899,2.1899,2.2149,2.2296,2.2296,2.2296,2.2296,2.2296,2.2296,2.2296,2.2296,2.2296,2.2296,0.0,2.2296,2.2296,2.2296,2.2296,2.2296,0.0,0.0,0.0,0.0,0.0,2.2296,2.2296,2.2296,2.2296,2.2296,2.2296,2.2296,2.2296,2.2296,2.2006,2.1431,2.0318,1.9693,1.9118,1.807,1.78,1.78,1.78,1.78,1.78,1.78,1.78,1.7738,1.7549,0.0,0.0,1.5662,1.5017,1.4641,1.4791,1.5365,1.5799,1.5799,1.5799,1.5799,1.5799,1.5799,1.5799,1.5799,1.5799,0.0,0.0,0.0,1.5155,1.4992,1.4722,0.0,0.0,0.0,1.4027,1.282,0.0,0.0,0.0,1.0878,1.0896,0.0,0.0,0.0,0.0,0.0,0.0,0.0,0.0,0.0,0.0,0.0,0.0,0.0,0.0,0.0,0.0,2.1247,2.1553,2.2213,2.1778,2.1343,2.1215,2.1119,2.1086,2.115,2.1414,2.1612,2.1673,2.2061,2.2296,2.2296,0.0,0.0,0.0,0.0,2.2296,2.2296,2.2296,2.2296,2.2296,2.2296,2.2296,2.2296,2.2335,2.2349,2.2349,2.2391,2.2388,2.2388,2.2388,2.2388,2.2388,2.2338,2.2296,2.2296,2.2296,2.2296,2.2296,2.2296,0.0,0.0,2.2296,2.2296,2.2296,2.2296,2.2296,2.1992,2.0538,2.0082,1.9681,1.829,1.785,1.78,1.78,1.78,1.78,1.78,1.78,1.7789,1.7755,1.7054,1.663,1.7157,1.6391,1.5555,1.5088,1.5521,1.5928,1.5961,1.5961,1.5947,1.5918,0.0,0.0,1.5904,1.5889,1.5889,1.5889,1.5889,1.5948,1.6009,1.544,1.541,1.6008,1.5395,1.3807,1.1247,1.1281,1.1161,1.0807,0.8802,0.8527,0.0,0.0,0.0,0.0,0.0,0.0,0.0,0.0,0.0,0.0,0.0,0.0,0.0,0.0,0.0,2.1889,2.2703,2.3391,2.3523,2.3716,2.3461,2.2487,2.185,2.1628,2.202,2.1779,2.1764,2.2135,2.2254,2.2296,2.2296,2.2296,2.2296,2.2296,2.2296,2.2296,2.2296,2.2296,2.2296,2.2296,0.0,0.0,2.231,2.251,2.2621,2.2634,2.2903,2.3026,2.3026,2.3026,2.3026,2.2982,2.248,2.2296,2.2296,2.2296,2.2296,2.2296,2.2296,2.2296,2.2296,2.2296,2.2296,2.2296,2.2296,2.2296,0.0,2.1211,2.05,1.9811,1.8927,1.8251,1.78,1.78,1.78,1.78,1.78,1.78,1.7715,1.7439,1.7455,1.7387,1.696,1.6281,1.5919,1.6348,1.6512,1.6705,1.6989,1.7007,1.6876,1.6563,1.7011,1.7116,1.6562,1.6532,1.6532,1.6532,1.6532,1.6756,1.731,1.7205,1.7205,1.7325,1.6892,1.6368,1.5814,1.6159,1.6458,1.6743,1.5936,1.3504,0.0,0.0,0.0,0.0,0.0,0.0,0.0,0.0,0.0,0.0,0.0,2.1922,2.2156,0.0,2.3307,2.3307,2.3815,2.4327,2.4695,2.4602,2.4294,2.3657,2.329,2.2999,2.2856,2.2962,2.2849,2.2333,2.2634,2.2699,2.2313,2.2296,2.2465,2.2835,2.2852,2.2937,2.3103,2.3103,2.2976,2.2747,2.2747,2.2747,2.2747,2.289,2.296,2.296,2.3129,2.32,2.32,2.32,2.32,2.3153,2.2678,2.25,2.25,2.25,2.2412,2.2296,2.2296,2.2296,2.2296,2.2296,2.2296,2.2296,2.2296,2.2296,2.2158,2.141,2.0619,1.9828,1.9096,1.8352,1.78,1.78,1.78,1.78,1.78,1.78,1.7755,1.7584,1.7681,1.7741,1.7577,1.7445,1.7346,1.7358,1.7353,1.7461,1.7816,1.8025,1.7995,1.7593,1.8022,1.813,1.7609,1.7346,1.7204,1.7204,1.7204,1.7354,1.7699,1.7713,1.7713,1.7713,1.7505,1.7401,1.7401,1.7594,1.7983,1.8538,1.8313,1.6622,0.0,0.0,0.0,0.0,0.0,0.0,0.0,2.1765,2.1966,2.2494,2.3072,2.3506,2.3613,2.422,2.4711,2.4711,2.4829,2.5134,2.5727,2.5287,2.4931,2.4931,2.466,2.4271,2.3663,2.4152,2.3949,2.2615,2.3054,2.3071,2.233,2.2446,2.2827,2.3507,2.366,2.3816,2.4002,2.4155,2.3968,2.3431,2.3431,2.3431,2.3431,2.333,2.33,2.3311,2.3369,2.3392,2.3392,2.3392,2.3392,2.3357,2.3033,2.286,2.2784,2.2673,2.249,2.2296,2.2296,2.2296,2.2296,2.2296,2.2296,2.2296,2.2296,2.2296,2.2192,2.158,2.0839,2.0065,1.9316,1.8662,1.8155,1.7867,1.7901,1.8003,1.8003,1.8003,1.8065,1.8205,1.8222,1.8291,1.8476,1.8776,1.8814,1.8278,1.8265,1.84,1.8653,1.8971,1.8984,1.8517,1.8856,1.8948,1.8501,1.8121,1.7893,1.7893,1.7893,1.7953,1.8087,1.8087,1.8087,1.8087,1.8087,1.8087,1.8087,1.8087,1.8373,1.8897,1.8897,1.8612,2.2106,2.1974,2.1673,2.1612,2.1567,2.1624,0.0,2.2329,2.2796,2.3554,2.3785,2.3948,2.4311,2.4983,2.549,2.549,2.6031,2.6471,2.6573,2.6505,2.6454,2.6454,2.5303,2.4457,2.4372,2.444,2.4152,2.3342,2.3342,2.3071,2.233,2.2919,2.348,2.3925,2.4566,2.4731,2.4337,2.5047,2.502,2.4258,2.4258,2.4258,2.4252,2.3833,2.3631,2.366,2.3966,2.4084,2.4084,2.4084,2.4084,2.4046,2.3714,2.3403,2.3069,2.2531,2.2338,2.2296,2.2296,2.2296,2.2296,2.2296,2.2296,2.2296,2.2296,2.2296,2.2279,2.2195,2.1634,2.0873,2.0082,1.9816,1.941,1.8104,1.8302,1.8775,1.8775,1.8775,1.8978,1.9625,1.9748,1.9651,1.9339,1.9312,1.9312,1.9244,1.9541,1.9767,1.9745,1.9779,1.9515,1.8751,1.9245,1.9351,1.8727,1.8631,1.8597,1.8597,1.8597,1.8852,1.9453,1.9483,1.9483,1.9483,1.9483,1.9483,1.9483,1.9483,1.9513,1.9588,1.9588,1.9558,2.2163,2.2149,2.2118,2.2536,2.2636,2.2807,2.3368,2.3629,2.3839,2.4174,2.4593,2.4943,2.5103,2.5744,2.6234,2.6234,2.6488,2.6691,2.6691,2.6336,2.6065,2.6065,2.5151,2.4491,2.4491,2.5286,2.4948,2.2919,2.4172,2.4522,2.335,2.4174,2.4974,2.5614,2.593,2.6061,2.6025,2.6372,2.6009,2.4972,2.4972,2.4737,2.4273,2.4081,2.3996,2.3996,2.4141,2.4094,2.3907,2.3907,2.3795,2.3577,2.3247,2.3033,2.2885,2.2625,2.2422,2.2296,2.2296,2.2296,2.2296,2.2296,2.2296,2.2296,2.2296,2.2296,2.2296,2.2296,2.1769,2.1123,2.0788,2.0352,1.9833,1.9237,1.9321,1.9541,1.9541,1.9362,1.9343,1.9896,1.9618,1.9379,1.9646,1.9681,1.9736,1.9892,1.9923,1.9999,2.0113,2.0369,2.04,2.0077,2.004,1.993,1.964,1.9413,1.9271,1.9271,1.9271,1.9405,1.9693,1.9708,1.9708,1.9708,1.9708,1.9708,1.9708,1.9708,1.9708,1.9708,1.9708,1.9708,2.2209,2.2448,2.2719,2.3274,2.3545,2.3915,2.4643,2.4795,2.4863,2.5066,2.5372,2.5592,2.5592,2.6048,2.6387,2.6387,2.6672,2.6857,2.6857,2.6323,2.5906,2.5906,2.5442,2.5013,2.4805,2.5659,2.5358,2.3241,2.4901,2.5548,2.4502,2.5385,2.6245,2.6916,2.7148,2.7274,2.7351,2.7586,2.7141,2.6054,2.5833,2.5429,2.485,2.4392,2.419,2.419,2.419,2.4064,2.3837,2.3837,2.3692,2.3437,2.3105,2.2984,2.2972,2.2873,2.2603,2.2296,2.2296,2.2296,2.2296,2.2296,2.2296,2.2296,2.2296,2.2296,2.2296,2.2296,2.1921,2.1461,2.1241,2.0923,2.0525,2.0103,2.0166,2.0335,2.0335,2.0093,2.004,2.0537,2.0049,1.9707,2.0128,2.0099,2.0034,2.0116,1.9977,1.9952,2.0252,2.0515,2.0632,2.0632,2.033,2.0141,2.0141,1.9874,1.9708,1.9708,1.9708,1.9708,1.9708,1.9708,1.9708,1.9708,1.9708,1.9708,1.9708,1.9708,1.9708,1.9708,1.9708,1.9708,2.2296,2.2818,2.3359,2.3393,2.3949,2.466,2.5406,2.5575,2.5778,2.6488,2.6082,2.5592,2.5592,2.5625,2.5626,2.5626,2.6556,2.7288,2.7288,2.6927,2.6668,2.6668,2.6647,2.6343,0.0,2.522,2.504,2.5024,2.5327,2.5538,2.5537,2.6322,2.6925,2.7278,2.7969,2.8178,2.7794,2.8553,2.8546,2.7725,2.6943,2.6547,2.6473,2.4905,2.419,2.419,2.419,2.419,2.418,2.418,2.418,2.4141,2.3806,2.3671,2.3639,2.3294,2.2811,2.2296,2.2296,2.2296,2.2296,2.2296,2.2296,2.2296,2.2296,2.2296,2.2296,2.2296,2.2279,2.2107,2.1393,2.1701,2.1857,2.0356,2.0602,2.1156,2.1156,2.1143,2.1363,2.2093,2.1847,2.1411,2.1023,2.0585,2.0162,1.9782,1.9696,1.9859,2.0246,1.9965,1.9744,1.9744,1.9744,1.9711,1.9711,1.9708,1.9708,1.9708,1.9708,1.9708,1.9708,1.9708,1.9708,1.9708,1.9708,1.9708,1.9708,1.9708,1.9708,1.9708,1.9708,1.9708,2.2902,2.3207,2.3748,2.522,2.5794,2.615,2.6894,2.6691,2.6251,2.6031,2.5372,2.488,2.488,2.5064,2.5384,2.5913,2.6521,2.7087,2.7607,2.7173,2.6764,2.6764,2.6295,0.0,0.0,0.0,0.0,2.5473,2.6167,2.6648,2.6729,2.7713,2.83,2.8419,2.8669,2.8735,2.8601,2.8858,2.8601,2.778,2.6439,2.5511,2.4997,2.4447,2.419,2.419,2.419,2.4074,2.3876,2.3876,2.3753,2.3533,2.3403,2.3224,2.3021,2.291,2.263,2.2338,2.25,2.245,2.2296,2.2296,2.2296,2.2296,2.2296,2.2296,2.2296,2.2296,2.2296,2.2229,2.1989,2.2124,2.2161,2.1654,2.1721,2.1921,2.1921,2.1692,2.1628,2.2186,2.1721,2.1244,2.1368,2.1055,2.0731,2.0582,2.0067,1.9839,2.0246,2.0193,2.021,2.0515,2.0549,2.0549,2.0549,2.0549,2.0431,2.0106,2.0089,1.9982,1.9711,1.9708,1.9708,1.9708,1.9708,1.9708,1.9708,1.9708,1.9708,1.9708,1.9708,1.9708,2.3274,2.3782,2.4526,2.5947,2.6505,2.6826,2.73,2.6927,2.6345,2.5885,2.5069,2.452,2.4807,2.4805,2.5014,2.5823,2.6223,2.6734,2.754,2.7123,2.6835,2.7122,2.6711,2.6381,2.6381,0.0,0.0,2.6238,2.6965,2.7555,2.79,2.8601,2.9005,2.9005,2.9005,2.9005,2.9005,2.9005,2.8455,2.7365,2.6035,2.497,2.419,2.419,2.419,2.419,2.419,2.4084,2.3886,2.3886,2.3746,2.3555,2.3555,2.3357,2.3057,2.3057,2.2807,2.245,2.2541,2.2436,2.2296,2.2296,2.2296,2.2296,2.2296,2.2296,2.2296,2.2296,2.2296,2.2296,2.2296,2.2296,2.2296,2.2296,2.2296,2.2296,2.2296,2.2061,2.1943,2.2237,2.1705,2.1291,2.1568,2.126,2.0991,2.0991,2.0515,2.026,2.0516,2.055,2.06,2.0747,2.0764,2.0764,2.0764,2.0764,2.0682,2.055,2.055,2.0416,2.0174,2.0156,2.0102,1.9927,1.9909,1.9839,1.9708,1.9708,1.9708,1.9708,1.9708,1.9708,2.3477,2.4526,2.5625,2.5709,2.625,2.6725,2.6758,2.6387,2.6066,2.6014,2.51,2.4537,2.53,2.4827,2.4597,2.5463,2.5852,2.6333,2.7223,2.703,2.709,2.789,2.797,2.7982,2.7934,2.7952,0.0,2.7477,0.0,2.8191,2.8968,2.9042,2.9042,2.9005,2.9005,2.9005,2.9005,2.9005,2.8198,2.6583,2.5833,2.5026,2.419,2.419,2.419,2.419,2.419,2.419,2.419,2.419,2.419,2.419,2.418,2.3976,2.3671,2.366,2.3242,2.2634,2.2388,2.2296,2.2296,2.2296,2.2296,2.2296,2.2296,2.2296,2.2296,2.2296,2.2296,2.2296,2.2296,2.2296,2.2296,2.2296,2.2296,2.2296,2.2296,2.2296,2.2296,2.2296,2.1943,2.1643,2.1643,2.1306,2.1071,2.1071,2.1071,2.1039,2.1023,2.1007,2.0862,2.0416,2.0399,2.0383,2.0365,2.0399,2.0566,2.0975,2.1007,2.1007,2.0991,2.0991,2.0797,2.0348,2.0348,2.0141,1.9729,1.9729,1.9711,1.9708,1.9711,1.9729,2.4746,2.5321,2.5927,2.7343,2.7391,2.7147,2.7439,2.6541,2.5476,2.4892,2.4552,2.444,2.4647,2.4712,2.5201,2.6615,2.6606,2.7152,2.9156,2.9355,2.9586,3.0387,3.0479,3.0258,2.9641,3.0118,0.0,0.0,2.897,2.8785,2.8987,2.9574,2.961,2.9023,2.9005,2.9005,2.9005,2.9005,2.8198,2.6602,2.6392,2.5566,2.419,2.419,2.419,2.419,2.419,2.419,2.419,2.419,2.419,2.417,2.3927,2.361,2.33,2.3092,2.2764,2.2402,2.2321,2.2296,2.2296,2.2296,2.2296,2.2296,2.2296,2.2296,2.2296,2.2296,2.2296,2.2296,2.2296,2.2296,2.2296,2.2296,2.2296,2.2296,2.2296,2.2296,2.2296,2.2296,2.2209,2.212,2.212,2.2034,2.1976,2.1976,2.1976,2.1736,2.1071,2.126,2.1399,2.1275,2.1583,2.166,2.129,2.1583,2.1569,2.1023,2.1275,2.1306,2.1007,2.0991,2.0943,2.0829,2.0829,2.0599,2.0158,2.0158,2.0,1.9708,2.0017,2.0158,2.5575,2.6099,2.6639,2.7875,2.7587,2.704,2.7275,2.6207,2.5061,2.4598,2.4693,2.494,2.53,2.5237,2.5528,2.6795,2.6479,2.6667,2.8374,2.9225,2.9971,3.0779,3.1195,3.1231,3.076,3.114,3.1213,0.0,3.032,2.9898,2.9537,2.9941,2.9831,2.9023,2.9005,2.9005,2.9005,2.8308,2.7482,2.6583,2.5878,2.5071,2.419,2.419,2.419,2.419,0.0,2.419,2.418,2.4036,2.3986,2.3955,2.3599,2.3288,2.296,2.2819,2.2558,2.2296,2.2296,2.2296,2.2296,2.2296,2.2296,2.2296,2.2296,2.2296,2.2296,2.2296,2.2296,2.2296,2.2296,2.2296,2.2296,2.2296,2.2296,2.2296,2.2296,2.2296,2.2296,2.2296,2.2296,2.2296,2.2296,2.2296,2.2296,2.2296,2.2296,2.2049,2.1353,2.1645,2.1823,2.1612,2.184,2.1899,2.1612,2.1838,2.1869,2.1584,2.1779,2.1811,2.1569,2.1569,2.1461,2.126,2.126,2.0943,2.0297,2.0516,2.0398,1.9965,2.0414,2.06,2.6226,2.6816,2.7409,2.7851,2.7284,2.6614,2.6668,2.5673,2.4746,2.4854,2.5251,2.5815,2.6612,2.6201,2.5944,2.6649,2.608,2.5888,2.6796,2.8216,2.95,3.0411,3.1219,3.169,3.158,3.1672,3.1635,3.1415,3.1599,3.1274,3.0246,3.0301,2.9953,2.9023,2.9005,2.9005,2.9005,2.7611,2.6804,2.6583,2.5199,2.441,2.419,2.419,2.419,2.419,0.0,0.0,2.418,2.3886,2.3774,2.3742,2.351,2.3228,2.2915,2.2981,2.2777,2.2448,2.2448,2.2381,2.2296,2.2296,2.2296,2.2296,2.2296,2.2296,2.2296,2.2296,2.2296,2.2296,2.2296,2.2296,2.2296,2.2296,2.2296,2.2296,2.2296,2.2296,2.2296,2.2296,2.2296,2.2296,2.2296,2.2296,2.2296,2.2296,2.2296,2.2149,2.1749,2.2046,2.212,2.1658,2.1658,2.1673,2.1613,2.1658,2.1838,2.2194,2.2268,2.2296,2.2296,2.2296,2.2106,2.1703,2.1688,2.129,2.0467,2.0894,2.083,2.0399,2.0878,2.1071,2.6832,2.7199,2.747,2.8139,2.7207,2.6213,2.6547,2.5424,2.4496,2.5165,2.5884,2.6649,2.7438,2.7486,2.7431,2.7567,2.6924,2.6906,2.8381,2.939,3.054,3.2014,3.2889,3.3128,3.2467,3.2999,3.2834,0.0,3.2632,3.2449,3.032,3.0834,3.0522,2.906,2.9005,2.9005,2.9005,2.873,2.7923,2.6602,2.6319,2.5493,2.419,2.419,2.419,2.419,2.419,0.0,2.4208,2.4141,2.4103,2.4157,2.4476,2.4373,2.4088,2.4512,2.4059,2.3207,2.3207,2.2818,2.2296,2.2296,2.2296,2.2296,2.2296,2.2296,2.2296,2.2296,2.2296,2.2296,2.2296,2.2296,2.2296,2.2296,2.2296,2.2296,2.2296,2.2296,2.2296,2.2296,2.2296,2.2296,2.2296,2.2296,2.2296,2.2296,2.2296,2.2268,2.2194,2.2237,2.212,2.1658,2.1943,2.2017,2.1643,2.1974,2.2046,2.1733,2.2092,2.2296,2.2296,2.2296,2.2268,2.218,2.218,2.1913,2.1367,2.146,2.1275,2.0894,2.1306,2.1491,2.6833,2.7465,2.7909,2.8057,2.7196,2.6253,2.6031,2.5374,2.4934,2.5319,2.6366,2.7346,2.7732,2.7798,2.7798,2.7798,2.7126,2.7016,2.8209,2.9439,3.065,3.1825,3.2687,3.3201,3.322,3.3201,3.3036,3.2669,3.3366,3.2742,3.0338,3.0173,2.9794,2.9023,2.9005,2.9005,2.9005,2.8583,2.7787,2.6583,2.6172,2.5346,2.419,2.419,2.4438,2.4824,2.4824,0.0,2.5446,2.5257,2.5193,2.5187,2.5051,2.4879,2.4716,2.4767,2.4196,2.3393,2.3393,2.2919,2.2296,2.2296,2.2296,2.2296,2.2296,2.2296,2.2296,2.2296,2.2296,2.2296,2.2296,2.2296,2.2296,2.2296,2.2296,2.2296,2.2296,2.2296,2.2296,2.2296,2.2296,2.2296,2.2296,2.2296,2.2296,2.2296,2.2296,2.2296,2.2296,2.2296,2.2209,2.1988,2.218,2.2209,2.1988,2.218,2.2209,2.1988,2.218,2.2296,2.2296,2.2296,2.2296,2.2296,2.2296,2.2077,2.1597,2.1838,2.1735,2.1322,2.1764,2.1957,2.6668,2.7527,2.8196,2.7881,2.72,2.6392,2.5576,2.5393,2.5448,2.5613,2.6806,2.7842,2.8026,2.8062,2.7989,2.7835,2.7273,2.7016,2.7475,2.9072,3.0375,3.0834,3.2063,3.3041,3.3495,3.3115,3.2981,3.3256,3.2963,3.21,3.054,2.9684,2.9189,2.9005,2.9005,2.9005,2.9005,2.8374,2.7658,2.6851,2.6219,2.5485,2.4704,2.4704,2.5052,2.5668,2.5668,0.0,0.0,2.6213,2.608,2.6039,2.5605,2.539,2.5311,2.5159,2.4482,2.3644,2.3644,2.3054,2.2296,2.2296,2.2296,2.2296,2.2296,2.2296,2.2296,2.2296,2.2296,2.2296,2.2296,2.2296,2.2296,2.2296,2.2296,2.2296,2.2296,2.2296,2.2296,2.2296,2.2296,2.2296,2.2296,2.2296,2.2296,2.2296,2.2296,2.2296,2.2296,2.2296,2.2296,2.2296,2.2296,2.2296,2.2296,2.2296,2.2296,2.2296,2.2296,2.2296,2.2296,2.2296,2.2296,2.2296,2.2296,2.212,2.1749,2.212,2.2106,2.1764,2.212,2.2296,2.6581,2.7355,2.7924,2.7823,2.72,2.6392,2.5576,2.5393,2.5613,2.6337,2.7181,2.8026,2.8767,2.8895,2.8638,2.7915,2.7732,2.7457,2.6796,2.8723,2.9971,2.9299,3.188,3.344,3.2766,3.3311,3.3109,3.1727,3.0283,2.9989,3.1231,3.0522,2.9739,2.9023,2.9005,2.9005,2.9005,2.8932,2.8491,2.7688,2.7614,2.7163,2.6392,2.6392,2.6429,2.6502,2.6502,0.0,0.0,2.6179,2.6021,2.6057,2.6411,2.6335,2.6085,2.679,2.5905,2.4389,2.4389,2.3477,2.2296,2.2296,2.2296,2.2296,2.2296,2.2296,2.2296,2.2296,2.2296,2.2296,2.2296,2.2296,2.2296,2.2296,2.2296,2.2296,2.2296,2.2296,2.2296,2.2296,2.2296,2.2296,2.2296,2.2296,2.2296,2.2296,2.2296,2.2296,2.2296,2.2296,2.2296,2.2296,2.2296,2.2296,2.2296,2.2296,2.2296,2.2296,2.2296,2.2296,2.2296,2.2296,2.2296,2.2296,2.2296,2.2282,2.2237,2.2282,2.2282,2.2237,2.2282,2.2296,2.6104,2.7084,2.7713,2.7207,2.6851,2.6264,2.497,2.5044,2.5631,2.6429,2.7236,2.8044,2.8858,2.9005,2.8895,2.8565,2.8117,2.786,2.8014,2.8877,2.9537,2.9702,3.1274,3.2228,3.1916,3.2614,3.2816,3.2173,3.1518,3.1023,3.0705,2.9916,2.9335,2.9005,2.9005,2.9005,2.9005,2.9005,2.8601,2.7798,2.7798,2.7383,2.6602,2.6602,2.6869,2.7317,2.7073,0.0,0.0,2.7292,2.7148,2.7144,2.7069,2.6959,2.6826,2.6916,2.5904,2.4491,2.4491,2.3528,2.2296,2.2296,2.2296,2.2296,2.2296,2.2296,2.2296,2.2296,2.2296,2.2296,2.2296,2.2296,2.2296,2.2296,2.2296,2.2296,2.2296,2.2296,2.2296,2.2296,2.2296,2.2296,2.2296,2.2296,2.2296,2.2296,2.2296,2.2296,2.2296,2.2296,2.2296,2.2296,2.2296,2.2296,2.2296,2.2296,2.2296,2.2296,2.2296,2.2296,2.2296,2.2296,2.2296,2.2296,2.2296,2.2296,2.2296,2.2296,2.2296,2.2296,2.2296,2.2296,2.5368,2.6408,2.7108,2.6426,2.6245,2.5897,2.4502,2.4824,2.5558,2.6135,2.7071,2.797,2.8528,2.884,2.9005,0.0,0.0,2.8282,2.8601,2.9042,2.939,2.9475,3.0613,3.1323,3.1072,3.177,3.2339,3.2583,3.2161,3.139,3.0265,2.9445,2.9005,2.9005,2.9005,2.9005,2.9005,2.9005,2.8712,2.8154,2.8154,2.786,2.7299,2.7299,2.7548,2.7969,2.7803,0.0,0.0,2.801,2.784,2.7678,2.7288,2.6993,2.6756,2.6468,2.5439,2.4169,2.4169,2.3342,2.2296,2.2296,2.2296,2.2296,2.2296,2.2296,2.2296,2.2296,2.2296,2.2296,2.2296,2.2296,2.2296,2.2296,2.2296,2.2296,2.2296,2.2296,2.2296,2.2296,2.2296,2.2296,2.2296,2.2296,2.2296,2.2296,2.2296,2.2296,2.2296,2.2296,2.2296,2.2296,2.2296,2.2296,2.2296,2.2296,2.2296,2.2296,2.2296,2.2296,2.2296,2.2296,2.2296,2.2296,2.2296,2.2296,2.2296,2.2296,2.2296,2.2296,2.2296,2.2296,2.4387,2.5207,2.5922,2.5523,2.5411,2.5191,2.4401,2.4824,2.5393,2.5411,2.6696,2.7798,2.7816,2.8455,2.9005,0.0,0.0,0.0,2.7915,2.9182,2.9604,2.8007,2.9946,3.1091,3.0283,3.0944,3.1733,3.2546,3.1115,0.0,3.021,2.9445,2.9005,2.9005,2.9005,2.9005,2.9005,2.9005,2.9005,2.8987,2.8987,2.8987,2.8987,2.8987,2.8755,0.0,0.0,0.0,0.0,2.7897,2.7681,2.7272,2.6857,2.6268,2.5625,2.5609,2.4678,2.341,2.341,2.2919,2.2296,2.2296,2.2296,2.2296,2.2296,2.2296,2.2296,2.2296,2.2296,2.2296,2.2296,2.2296,2.2296,2.2296,2.2296,2.2296,2.2296,2.2296,2.2296,2.2296,2.2296,2.2296,2.2296,2.2296,2.2296,2.2296,2.2296,2.2296,2.2296,2.2296,2.2296,2.2296,2.2296,2.2296,2.2296,2.2296,2.2296,2.2296,2.2296,2.2296,2.2296,2.2296,2.2296,2.2296,2.2296,2.2296,2.2296,2.2296,2.2296,2.2296,2.2296,2.2296,2.486,2.5331,2.5562,2.5428,2.5393,2.5191,2.4373,2.4392,2.475,2.5283,2.5815,2.6494,2.7596,2.8007,2.8172,2.8172,0.0,0.0,2.7915,2.8705,2.9189,2.8675,2.928,3.0099,3.0944,0.0,3.0687,3.0944,3.0485,2.9971,2.9409,2.9133,2.9005,2.9005,2.9005,2.9005,2.9005,2.9005,2.9005,2.9005,2.9005,2.9005,2.9005,2.9005,2.8929,0.0,0.0,0.0,0.0,2.7604,2.7239,2.6822,2.6182,2.5812,2.5592,2.5592,2.4678,2.346,2.3983,2.3342,2.2296,2.2296,2.2296,2.2296,2.2296,2.2296,2.2398,2.2919,2.2699,2.2429,2.2919,2.2682,2.2431,2.2936,2.2682,2.2431,2.2936,2.2665,2.2296,2.2296,2.2296,2.2296,2.2296,2.2296,2.2296,2.2296,2.2296,2.2296,2.2296,2.2296,2.2296,2.2296,2.2296,2.2296,2.2296,2.2296,2.2296,2.2296,2.2296,2.2296,2.2296,2.2296,2.2296,2.2296,2.2296,2.2296,2.2296,2.2296,2.2296,2.2296,2.2296,2.2402,2.4608,2.4846,2.4952,2.4952,2.4952,2.4824,2.43,2.419,2.4337,2.4842,2.5191,2.5705,2.6715,2.7394,2.7798,2.7798,2.8484,2.8712,2.7915,2.8491,2.9005,2.9005,2.9005,2.95,0.0,3.0485,3.021,3.021,3.021,2.9861,2.9042,2.9005,2.9005,2.9005,2.9005,2.9005,2.9005,2.9005,2.9005,2.9005,2.9005,2.9005,2.9005,2.9005,2.8917,0.0,0.0,0.0,0.0,2.7394,2.7067,2.664,2.6184,2.5676,2.5186,2.5186,2.4255,2.3054,2.3511,2.3071,2.2296,2.2296,2.2296,2.2296,2.2296,2.2296,2.2448,2.319,2.2868,2.2533,2.3545,2.3274,2.2902,2.3644,2.346,2.3257,2.3729,2.3444,2.3054,2.2784,2.2733,2.2632,2.2347,2.2533,2.2733,2.2733,2.2953,2.3122,2.3122,2.2885,2.2733,2.2733,2.2465,2.2296,2.2296,2.2296,2.2296,2.2296,2.2296,2.2296,2.2296,2.2296,2.2296,2.2296,2.2296,2.2349,2.245,2.245,2.2517,2.2651,2.2504,2.2616,0.0,2.3947,2.419,2.419,2.419,2.419,2.419,2.419,0.0,2.419,2.4787,2.5338,2.5466,2.6715,2.7732,2.7787,2.851,2.8785,2.7915,2.8528,2.9042,2.8932,2.9023,2.9335,2.9971,3.0081,3.0118,3.0118,3.0118,2.9787,2.9042,2.9005,2.9005,2.9005,2.895,2.895,2.9005,2.9005,2.9005,2.9005,2.9005,2.9005,2.9005,2.9005,2.8773,0.0,0.0,0.0,0.0,2.7303,2.7067,2.6691,2.664,2.576,2.4491,2.4491,2.3577,2.2296,2.2347,2.233,2.2296,2.2296,2.233,2.2381,2.2381,2.2381,2.2533,2.3274,2.2987,2.2769,2.422,2.4034,2.3663,2.4406,2.4541,2.4508,2.4558,2.4541,2.4305,2.3613,2.3477,2.3257,2.2567,2.3021,2.3477,2.3477,2.4068,2.4491,2.4491,2.3898,2.3477,2.3477,2.2868,2.2448,2.2448,2.2347,2.231,2.2338,2.2321,2.2321,2.2321,2.2321,2.2321,2.2321,2.2349,2.249,2.2733,2.2733,2.2898,2.3189,2.2885,2.2923,0.0,0.0,2.419,2.419,2.419,2.419,0.0,2.419,2.419,2.419,2.4355,2.485,2.6098,2.6631,2.709,2.7695,2.8998,2.942,2.7989,2.9017,2.9457,2.8227,2.9163,2.9512,2.8466,2.8925,2.928,2.928,2.928,2.9207,2.9005,2.9005,2.9005,2.9005,2.8411,2.8374,2.8987,2.9005,2.9005,2.9005,2.9005,2.9005,2.9005,2.9005,2.8773,0.0,0.0,0.0,2.7303,2.7303,2.7067,2.664,2.6082,2.5304,2.4491,2.4491,2.3577,2.2381,2.2953,2.2784,2.2296,2.2296,2.2682,2.3139,2.3139,2.3139,2.3291,2.4034,2.4118,2.4186,2.5101,2.478,2.4423,2.5169,2.4914,2.466,2.522,2.4897,2.444,2.4271,2.4237,2.4186,2.4017,2.4135,2.4237,2.4237,2.4389,2.4491,2.4491,2.4355,2.4237,2.4237,2.4085,2.3983,2.3983,2.2953,2.2388,2.2599,2.2612,2.2612,2.2612,2.2612,2.2612,2.2612,2.2853,2.3026,2.3081,2.3081,2.3129,2.32,2.3117,2.3247,0.0,2.419,2.419,2.419,2.419,2.419,2.419,2.419,2.419,2.419,2.419,2.4575,2.5823,2.6043,2.6429,2.7614,2.8521,2.8778,2.7915,2.7908,2.7952,2.7824,2.8576,2.8906,0.0,2.8411,2.8448,2.8448,2.8106,2.7904,2.7904,2.8253,2.8448,2.8448,2.8393,2.8565,2.9005,2.862,2.862,2.9005,2.9005,2.8887,2.8719,2.8719,2.8515,0.0,0.0,0.0,2.7288,2.7099,2.6685,2.6184,2.6133,2.5236,2.4051,2.4372,2.3577,2.2347,2.2767,2.2632,2.2347,2.2685,2.3071,2.346,2.3814,2.4137,2.4492,2.4881,2.4762,2.4745,2.5828,2.5558,2.5186,2.593,2.5795,2.5625,2.6015,2.5778,2.5405,2.5067,2.5,2.4897,2.4558,2.4778,2.5,2.5,2.5303,2.5506,2.5506,2.5203,2.5094,2.5259,2.4981,2.4832,2.4985,2.4268,2.3813,2.3796,2.3606,2.3643,2.4019,2.3678,2.3315,2.2935,2.3247,2.3426,2.3426,2.3426,2.3511,2.366,2.3511,2.3599,2.419,2.419,2.419,2.419,2.419,2.419,2.419,2.419,2.419,2.419,2.43,2.4585,2.5264,2.5503,2.6072,2.7559,2.7897,2.8026,2.8154,2.699,2.6549,2.7669,2.8018,0.0,2.8767,2.8209,2.7798,2.7798,2.7053,2.6602,2.6602,2.7255,2.7622,2.7622,2.8172,2.851,2.8638,2.8209,2.8338,2.9005,2.8824,2.8567,2.824,2.8188,2.7964,2.7621,0.0,0.0,2.7178,2.6841,2.6336,2.5828,2.6336,2.5321,2.3644,2.4271,2.3577,2.2313,2.2431,2.2465,2.2584,2.3325,2.363,2.3849,2.4474,2.5169,2.5778,2.5778,2.5321,2.5117,2.6386,2.6234,2.593,2.6539,2.6691,2.6691,2.6691,2.6691,2.6522,2.5896,2.5778,2.5575,2.4948,2.5355,2.5778,2.5778,2.6302,2.6725,2.6774,2.6248,2.5999,2.641,2.5892,2.5645,2.5932,2.5885,2.5782,2.56,2.5009,2.496,2.5643,2.5013,2.4343,2.3655,2.3959,2.4147,2.4147,2.4147,2.4281,2.4557,2.4143,2.4109,2.419,2.419,2.419,2.419,2.419,2.419,2.419,2.419,2.419,2.419,2.475,2.5246,2.5374,2.5962,2.6722,2.764,2.8374,2.9042,2.9751,2.9622,2.9053,2.7934,0.0,2.9347,2.8099,2.786,2.7798,2.7798,0.0,2.6602,2.6602,2.6722,2.6778,2.6778,2.6227,2.6282,2.695,2.8198,2.8877,2.8987,2.8015,2.7538,2.7459,2.7173,2.6827,0.0,0.0,2.7099,2.6791,2.6725,2.6623,2.6471,2.5981,2.5169,2.4338,2.4457,2.3577,2.2381,2.3004,2.3224,2.3342,2.4085,2.4746,2.5287,2.5406,2.5947,2.6522,2.6522,2.6437,2.6404,2.664,2.6607,2.6556,2.6674,2.6691,2.6691,2.6691,2.6691,2.6657,2.6539,2.6522,2.6488,2.6386,2.6454,2.6522,2.6522,2.6623,2.6824,2.7162,2.7106,2.7189,2.7606,2.7543,2.7483,2.7539,2.7186,2.722,2.7846,2.6597,2.5877,2.6015,2.5906,2.5768,2.566,2.5969,2.6146,2.6146,2.6146,2.6185,2.6198,2.5481,2.5179,2.419,2.419,2.419,2.419,2.419,2.419,2.419,2.419,2.4318,2.4768,2.5136,2.5521,2.597,2.5988,2.6209,2.7016,2.7824,2.8484,2.8851,2.8539,2.8136,0.0,0.0,2.8136,2.7835,2.7008,2.6494,0.0,0.0,0.0,2.5309,2.5713,2.5952,2.5952,2.6007,2.6227,2.6612,2.7148,2.7432,2.7432,2.6897,2.6679,2.6711,2.6553,2.6268,2.5877,0.0,2.6277,2.6065,2.5692,2.5506,2.5489,2.5151,2.4306,2.3308,2.3308,2.3139,2.2936,2.3274,2.3661,2.4118,2.4847,2.5321,2.566,2.6065,2.642,2.6691,2.6691,2.6691,2.6691,2.6691,2.6691,2.6691,2.6691,2.6691,2.6691,2.6691,2.6691,2.6691,2.6691,2.6691,2.6691,2.6691,2.6691,2.6691,2.6691,2.689,2.7083,2.7288,2.7485,2.7765,2.8129,2.817,2.8268,2.8482,2.8306,2.8136,2.8081,2.7832,2.7479,2.7041,2.7023,2.6811,2.6373,2.653,2.6602,2.6602,2.6602,2.6602,2.6583,2.6227,2.6117,2.419,2.419,2.419,2.419,2.419,2.419,2.419,2.4337,2.4658,2.5264,2.554,2.587,2.6502,2.6098,2.5815,2.6245,2.7145,2.7732,2.7548,2.7145,2.7034,2.7475,2.6979,2.6851,2.7457,2.6237,0.0,0.0,0.0,0.0,2.419,2.4787,2.5117,2.5117,2.5713,2.5994,2.5912,2.5669,2.573,2.6091,2.5781,2.5724,2.5947,2.5843,2.5617,2.5355,2.5541,2.5592,2.5558,2.4983,2.4762,2.4745,2.4558,2.3697,2.2564,2.2564,2.3021,2.368,2.3849,2.4289,2.488,2.5625,2.5862,2.5964,2.6522,2.6691,2.6691,2.6691,2.6691,2.6691,2.6691,2.6691,2.6691,2.6691,2.6691,2.6691,2.6691,2.6691,2.6691,2.6691,2.6691,2.6691,2.6691,2.6691,2.6725,2.6841,2.7099,2.7363,2.7545,2.7837,2.8143,2.8496,2.854,2.867,2.8964,2.9005,2.873,2.8117,2.8656,2.8712,2.8117,2.8081,2.7787,2.717,2.7152,2.7152,2.7152,2.7227,2.7259,2.724,2.712,2.7138,2.419,2.419,2.419,2.419,2.419,2.419,2.419,2.4787,2.5319,2.5393,2.5988,2.6539,2.6583,2.6547,2.6282,2.5595,2.6788,2.753,2.6796,0.0,2.7457,2.6778,2.6649,2.662,2.6686,2.5907,0.0,0.0,0.0,0.0,2.419,2.4245,2.4281,2.4281,2.4337,2.4218,2.3916,2.3876,2.4617,2.6091,2.4771,2.4516,2.5177,2.4801,2.4606,2.4609,2.5304,2.5592,2.5592,2.5541,2.5524,2.5456,2.4778,2.4017,2.3325,2.3325,2.3797,2.4525,2.5203,2.5474,2.5642,2.637,2.6623,2.6623,2.6674,2.6691,2.6691,2.6691,2.6691,2.6691,2.6691,2.6691,2.6691,2.6691,2.6691,2.6691,2.6691,2.6691,2.6691,2.6691,2.6691,2.6691,2.6691,2.6691,2.6841,2.721,2.7288,2.7542,2.8232,2.8355,2.8515,2.8917,2.897,2.8964,2.9005,2.9005,2.8987,2.8932,2.8968,2.8968,2.8932,2.8913,2.8895,2.884,2.884,2.884,2.8822,2.9079,2.9196,2.9196,2.8621,2.8366,2.419,2.419,2.419,2.419,2.419,2.419,2.419,2.4824,2.5393,2.5393,2.6439,2.72,2.6693,2.619,2.576,2.5448,2.6329,2.6961,2.6638,2.6869,2.6943,2.6649,2.6153,2.5852,2.5852,0.0,0.0,0.0,0.0,0.0,2.419,2.419,2.419,2.419,2.3996,2.3827,2.3703,2.3288,2.3628,2.472,2.3685,2.3967,2.5384,2.4771,2.4491,2.4508,2.4795,2.4931,2.4881,2.4408,2.4492,2.4812,2.3596,2.297,2.2784,2.3224,2.3864,2.4609,2.5338,2.5896,2.6336,2.6607,2.6691,2.6691,2.6691,2.6691,2.6691,2.6691,2.6691,2.6691,2.6691,2.6691,2.6691,2.6691,2.6691,2.6691,2.6691,2.6691,2.6691,2.6691,2.6691,2.6691,2.6691,2.6906,2.7131,2.7288,2.7689,2.8084,2.835,2.8633,2.8839,2.8975,2.9005,2.9005,2.9005,2.9156,2.9246,2.9246,2.9246,2.916,2.9005,2.9167,2.9178,2.9005,2.9167,2.9246,2.9246,2.9484,2.9589,2.9589,2.9349,2.9307,2.4218,2.4256,2.4275,2.4209,2.419,2.419,2.419,2.5026,2.5778,2.5778,2.6862,2.7475,2.641,2.5778,2.5319,0.0,2.5705,2.6135,2.5878,2.6062,2.6135,2.5878,2.5356,2.5026,0.0,0.0,0.0,0.0,0.0,0.0,0.0,2.419,2.4151,2.4054,2.3816,2.3599,2.338,2.2935,2.3166,2.4076,2.3299,2.3861,2.5576,2.5067,2.4728,2.4508,2.4745,2.4728,2.4474,2.422,2.4239,2.4372,2.3122,2.2649,2.2753,2.3748,2.4408,2.4949,2.5693,2.6285,2.6691,2.6691,2.6691,2.6691,2.6691,2.6691,2.6691,2.6691,2.6691,2.6691,2.6691,2.6691,2.6759,2.6996,2.686,2.6759,2.6996,2.686,2.6741,2.6857,2.6791,2.6791,2.7052,2.721,2.7378,2.7616,2.8084,2.8446,2.8577,2.8839,2.9021,2.9123,2.9134,2.9149,2.9217,2.9385,2.9494,2.9494,2.9542,2.9475,2.9238,2.9395,2.9405,2.9209,2.9395,2.9494,2.9494,2.9696,2.9788,2.9796,2.988,2.9988,2.4247,2.4358,2.4444,2.4256,2.419,2.419,2.419,2.5438,2.6583,2.6602,2.7236,2.7302,2.5686,2.5393,0.0,2.4318,2.4879,2.5117,2.43,2.4897,2.5081,2.4281,2.419,0.0,0.0,0.0,0.0,0.0,0.0,0.0,0.0,2.419,2.4054,2.3703,2.3692,2.338,2.2725,2.2712,2.3302,2.4491,2.378,2.4188,2.5609,2.5592,2.5203,2.4541,2.5287,2.5186,2.4558,2.5304,2.5169,2.444,2.3712,2.341,2.3579,2.5067,2.5592,2.571,2.6437,2.6691,2.6691,2.6691,2.6691,2.6691,2.6691,2.6691,2.6691,2.6691,2.6691,2.6691,2.6691,2.6725,2.6894,2.7621,2.7249,2.6911,2.7638,2.7232,2.6824,2.7241,2.6971,2.6954,2.7751,2.7574,2.7557,2.8285,2.8389,2.8552,2.894,2.9005,2.91,2.9372,2.9402,2.9474,2.9687,2.9705,2.9705,2.9705,2.9893,2.9916,2.9713,2.9705,2.9705,2.9705,2.9705,2.9705,2.9705,2.9908,3.0006,3.0013,3.0286,3.0404,2.4209,2.4247,2.4266,2.4209,2.419,2.419,2.419,2.5007,2.5925,2.6484,2.6337,2.5962,2.5485,2.4934,0.0,2.4245,2.4392,2.4475,2.4226,2.442,2.4475,2.4226,2.419,0.0,0.0,0.0,0.0,0.0,0.0,0.0,0.0,2.419,2.4054,2.3703,2.3459,2.3412,2.353,2.3319,2.3901,2.527,2.505,2.5456,2.6353,2.5845,2.549,2.5287,2.5507,2.549,2.5287,2.5507,2.5473,2.5203,2.4474,2.4169,2.4288,2.5253,2.5592,2.571,2.6437,2.6691,2.6691,2.6691,2.6691,2.6691,2.6691,2.6691,2.6691,2.6691,2.6691,2.6691,2.6691,2.708,2.7536,2.7756,2.7621,2.7606,2.8116,2.7632,2.7241,2.7634,2.7636,2.7619,2.7869,2.8006,2.8152,2.8381,2.8645,2.8863,2.8975,2.9149,2.931,2.9392,2.9532,2.9644,2.9696,2.9829,2.9916,2.9916,3.0136,3.0114,2.9722,2.9837,2.9845,2.9705,2.9837,2.9916,2.9916,3.0169,3.0273,3.0273,3.0361,3.0404,2.4218,2.4266,2.4303,2.4218,2.419,2.419,2.419,2.4824,2.5631,2.6429,2.5952,2.5393,2.5393,2.475,0.0,2.419,2.419,2.419,2.419,2.419,2.419,2.419,2.419,0.0,0.0,0.0,0.0,0.0,0.0,0.0,0.0,2.419,2.3986,2.3522,2.3311,2.3363,2.3704,2.351,2.4137,2.5592,2.5592,2.5998,2.6674,2.6234,2.5879,2.5592,2.5592,2.5778,2.6015,2.5711,2.5592,2.5558,2.5101,2.4948,2.5032,2.5778,2.6048,2.6099,2.6539,2.6691,2.6691,2.6691,2.6691,2.6691,2.6691,2.6691,2.6691,2.6691,2.6825,2.6939,2.6939,2.7841,2.8715,2.8545,2.8151,2.8032,2.8908,2.8159,2.7454,2.7992,2.7978,2.7996,2.8299,2.8368,2.8458,2.8602,2.8938,2.9167,2.9167,2.9373,2.9542,2.9644,2.9756,2.9853,2.9977,3.0087,3.0157,3.0157,3.0311,3.0273,2.9992,3.0095,3.0102,2.9985,3.0095,3.0157,3.0157,3.0317,3.0404,3.0404,3.0404,3.0404,2.4256,2.4321,2.4436,2.4247,2.419,2.419,2.419,2.4768,2.5503,2.6227,2.587,2.5374,2.5301,2.4695,2.419,2.419,2.419,2.419,2.419,2.419,2.419,2.419,0.0,0.0,0.0,0.0,0.0,0.0,0.0,0.0,0.0,2.417,2.3847,2.3212,2.3165,2.3271,2.3509,2.3509,2.4239,0.0,2.571,2.6048,2.6691,2.6691,2.6336,2.571,2.571,2.6082,2.664,2.5981,2.571,2.571,2.5725,2.5742,2.5795,2.6487,2.6725,2.6691,2.6691,2.6691,2.6691,2.6691,2.6691,2.6708,2.6741,2.6758,2.6758,2.6791,2.7067,2.7348,2.7348,2.8706,3.0,2.9665,2.8801,2.8425,2.9933,2.8752,2.7601,2.8329,2.821,2.8215,2.8893,2.8713,2.859,2.8987,2.9257,2.9424,2.9424,2.9607,2.9796,2.9984,3.0021,3.0136,3.0373,3.0404,3.0404,3.0404,3.0416,3.0408,3.0408,3.039,3.039,3.0408,3.0408,3.0414,3.0425,3.0425,3.0425,3.0425,3.0425,3.0425,2.4209,2.4237,2.4247,2.4209,2.419,2.419,2.419,2.4318,2.4502,2.4685,2.5081,2.5209,2.4566,2.4318,2.419,2.419,2.419,2.419,2.419,2.419,2.419,2.419,0.0,0.0,0.0,0.0,0.0,0.0,0.0,0.0,2.419,2.3937,2.361,2.3212,2.2947,2.3277,2.4254,2.4254,2.4998,0.0,2.6454,2.6539,2.6691,2.6691,2.6607,2.6454,2.6454,2.6539,2.6691,2.6522,2.6454,2.6488,2.6812,2.6748,2.6521,2.7,2.6971,2.6691,2.6691,2.6691,2.6691,2.6691,2.6691,2.6758,2.7067,2.7178,2.7241,2.7545,2.7692,2.7783,2.7783,2.8514,2.9322,2.9551,2.9642,2.9865,3.0528,2.9353,2.8298,2.8773,2.8815,2.8803,2.8964,2.8929,2.8968,2.9267,2.9504,2.9644,2.9644,2.9804,2.9954,2.9999,3.0196,3.0349,3.0398,3.0404,3.0404,3.0404,3.0456,3.0477,3.0477,3.0428,3.0422,3.0477,3.0477,3.0507,3.0567,3.0567,3.0567,3.0567,3.0567,3.0567,2.419,2.419,2.419,2.419,2.419,2.419,2.419,2.419,2.419,2.419,2.453,2.4695,2.4281,2.419,2.419,2.419,2.419,2.419,2.419,2.419,2.419,0.0,0.0,0.0,0.0,0.0,0.0,0.0,0.0,2.419,2.419,2.3886,2.3544,2.32,2.3257,2.3663,2.4491,2.4846,2.5592,2.6691,2.6691,2.6691,2.6691,2.6691,2.6691,2.6691,2.6691,2.6691,2.6708,2.6906,2.6873,2.6741,2.7147,2.7051,2.6725,2.6939,2.6873,2.6691,2.6691,2.6691,2.6691,2.6691,2.6824,2.7036,2.7241,2.7424,2.7619,2.784,2.8024,2.8143,2.8143,2.8856,2.9624,2.9839,2.9753,2.9784,3.0369,2.9409,2.8527,2.8917,2.9005,2.9051,2.9178,2.928,2.9377,2.9514,2.9703,2.9845,2.9845,3.004,3.0196,3.0196,3.0311,3.0404,3.0404,3.0404,3.0419,3.0451,3.0482,3.0505,3.0556,3.0916,3.095,3.0556,3.0556,3.0561,3.0603,3.0603,3.0603,3.0603,3.0603,3.0603,2.419,2.419,2.419,2.419,2.419,2.419,2.419,2.419,2.419,2.419,2.419,2.419,2.419,2.419,2.419,2.419,2.419,2.419,2.419,2.419,2.419,0.0,0.0,0.0,0.0,0.0,0.0,0.0,0.0,2.419,2.419,2.3886,2.3577,2.33,2.3549,2.3915,2.4394,2.5065,2.5778,2.6505,2.664,2.6741,2.6791,2.6791,2.6775,2.6708,2.6758,2.6758,2.6725,2.7131,2.7067,2.6741,2.7147,2.7051,2.6708,2.6857,2.6857,2.6808,2.689,2.6906,2.6906,2.6906,2.7131,2.7409,2.747,2.7722,2.7992,2.8079,2.8295,2.8496,2.8496,2.9235,2.9989,2.9989,2.9479,2.9213,3.0033,2.9314,2.859,2.894,2.9051,2.9156,2.9404,2.9626,2.9746,2.9746,2.9924,3.0075,3.0075,3.026,3.0404,3.0404,3.0404,3.0396,3.0425,3.0425,3.0451,3.0501,3.0529,3.0632,3.0837,3.1556,3.1678,3.1091,3.0925,3.0923,3.1072,3.0935,3.0955,3.1072,3.1072,3.1072,2.419,2.419,2.419,2.419,2.419,2.419,2.419,2.419,2.419,2.419,2.419,2.419,2.419,2.419,2.419,2.419,2.419,2.419,2.419,2.419,2.419,0.0,0.0,0.0,0.0,0.0,0.0,0.0,2.419,2.419,2.419,2.3886,2.3682,2.3621,2.3126,2.3223,2.3967,2.4422,2.5032,2.5761,2.6387,2.689,2.7225,2.7225,2.7019,2.6725,2.7067,2.7019,2.6725,2.7131,2.7067,2.6741,2.7147,2.7051,2.6774,2.7485,2.7515,2.7272,2.7619,2.7754,2.7754,2.7754,2.7783,2.7865,2.8166,2.8285,2.8407,2.8767,2.8893,2.8917,2.8917,2.9044,2.9152,2.9152,2.9082,2.9229,3.002,2.9532,2.894,2.8994,2.92,2.9414,2.9616,2.9829,2.9962,2.9962,3.0182,3.0349,3.0349,3.0373,3.0404,3.0404,3.0404,3.0422,3.0486,3.0495,3.0524,3.0581,3.0631,3.1014,3.1781,3.2041,3.2439,3.3006,3.2228,3.2207,3.3025,3.2322,3.2342,3.3025,3.3025,3.3025,2.419,2.419,2.419,2.419,2.419,2.419,2.419,2.419,2.419,2.419,2.419,2.419,2.419,2.419,2.419,2.419,2.419,2.419,2.419,2.419,2.419,0.0,0.0,0.0,0.0,0.0,0.0,0.0,2.419,2.419,2.419,2.3703,2.3414,2.3414,2.3211,2.3263,2.3622,2.4211,2.488,2.5609,2.658,2.7131,2.7319,2.753,2.7426,2.7035,2.7208,2.7067,2.6725,2.7131,2.7194,2.7067,2.747,2.753,2.7426,2.7783,2.7797,2.7648,2.784,2.7897,2.7897,2.7897,2.8037,2.821,2.8368,2.8552,2.8773,2.894,2.9005,2.9005,2.9005,2.9005,2.9005,2.9005,2.9112,2.9325,2.9687,2.9473,2.9267,2.9367,2.9579,2.9754,2.9853,3.0073,3.0215,3.0215,3.0317,3.0404,3.0404,3.0404,3.0419,3.0442,3.0452,3.0486,3.0559,3.0567,3.0587,3.0659,3.1134,3.1622,3.2084,3.3066,3.3769,3.4121,3.324,3.2986,3.3398,3.3047,3.3047,3.3398,3.3398,3.3398,2.419,2.419,2.419,2.419,2.419,2.419,2.419,2.419,2.419,2.419,2.419,2.419,2.419,2.419,2.419,2.419,2.419,2.419,2.419,2.419,2.419,0.0,0.0,0.0,0.0,0.0,0.0,0.0,2.419,2.419,2.419,2.3649,2.3369,2.3448,2.3297,2.3258,2.3356,2.3937,2.474,2.5751,2.6611,2.722,2.7587,2.7894,2.7823,2.7439,2.7439,2.7208,2.689,2.7288,2.7378,2.7332,2.7736,2.7897,2.7911,2.801,2.8037,2.8034,2.8147,2.8174,2.8174,2.8174,2.8347,2.8552,2.8552,2.8761,2.9005,2.9005,2.9005,2.9005,2.9005,2.9044,2.91,2.91,2.9291,2.9483,2.9483,2.9483,2.9542,2.9748,2.9901,3.0021,3.0089,3.0267,3.0404,3.0404,3.0404,3.0416,3.0417,3.0422,3.0442,3.0509,3.0521,3.0544,3.0628,3.0633,3.0759,3.1058,3.1684,3.2298,3.2812,3.4022,3.4783,3.4997,3.4329,3.4019,3.4062,3.3805,3.3802,3.4021,3.3997,3.3975,2.419,2.419,2.419,2.419,2.419,2.419,2.419,2.419,2.419,2.419,2.419,2.419,2.419,2.419,2.419,2.419,2.419,2.419,2.419,2.419,2.419,0.0,0.0,0.0,0.0,0.0,0.0,0.0,2.419,2.419,2.419,2.3876,2.3816,2.4141,2.323,2.2887,2.3212,2.3375,2.4364,2.6162,2.6229,2.6986,2.8337,2.835,2.8197,2.7869,2.7869,2.7634,2.7303,2.7692,2.7634,2.7332,2.7736,2.7897,2.794,2.8264,2.8363,2.8433,2.8815,2.894,2.894,2.894,2.894,2.8964,2.8964,2.8975,2.9005,2.9005,2.9005,2.9005,2.9005,2.92,2.9382,2.9382,2.9542,2.9687,2.9687,2.9687,2.9738,2.9947,2.9999,3.0082,3.0343,3.0398,3.0404,3.0404,3.0404,3.0417,3.0495,3.049,3.0513,3.0591,3.0597,3.063,3.0689,3.0692,3.1098,3.205,3.2168,3.291,3.4492,3.4595,3.4986,3.5827,3.5677,3.5667,3.5859,3.4905,3.4895,3.5768,3.5636,3.558,2.419,2.419,2.419,2.419,2.419,2.419,2.419,2.419,2.419,2.419,2.419,2.419,2.419,2.419,2.419,2.419,2.419,2.419,2.419,2.419,2.419,0.0,0.0,0.0,0.0,0.0,0.0,0.0,0.0,2.419,2.419,2.3886,2.3764,2.3886,2.3105,2.2759,2.2885,2.3442,2.414,2.4989,2.572,2.6507,2.7317,2.753,2.7857,2.821,2.7978,2.7663,2.7319,2.7472,2.7704,2.8029,2.8152,2.8386,2.8626,2.8737,2.8803,2.8815,2.894,2.9005,2.9005,2.9005,2.9005,2.9005,2.9005,2.9005,2.9005,2.9005,2.9123,2.9257,2.9257,2.9415,2.9635,2.9746,2.9837,2.9931,3.0114,3.0011,2.9954,3.0202,3.0254,3.0291,3.0447,3.0453,3.0477,3.0513,3.0521,3.0537,3.0554,3.0558,3.0594,3.0663,3.065,3.0708,3.0816,3.0836,3.1229,3.2148,3.263,3.3422,3.4594,3.5078,3.5455,3.5766,3.5679,3.5694,3.5804,3.544,3.5447,3.5766,3.572,3.5707,2.419,2.419,2.419,2.419,2.419,2.419,2.419,2.419,2.419,2.419,2.419,2.419,2.419,2.419,2.419,2.419,2.419,2.419,2.419,2.419,2.419,0.0,0.0,0.0,0.0,0.0,0.0,0.0,0.0,0.0,2.419,2.3886,2.3649,2.3533,2.32,2.2984,2.2873,2.3401,2.3957,2.4497,2.5279,2.6135,2.7077,2.7025,2.7514,2.8376,2.787,2.7674,2.7675,2.7675,2.7974,2.8402,2.8552,2.8597,2.862,2.8895,2.8822,2.8638,2.8913,2.9005,2.9005,2.9005,2.9005,2.9017,2.9112,2.9134,2.9156,2.9217,2.9365,2.9494,2.9494,2.9643,2.9853,3.0075,3.0136,3.0189,3.0361,3.026,3.0189,3.0361,3.0425,3.0456,3.0485,3.0513,3.0556,3.0597,3.0603,3.0614,3.0638,3.0621,3.0665,3.0766,3.0769,3.0777,3.0838,3.0837,3.1323,3.2466,3.3005,3.3784,3.4917,3.5412,3.562,3.5523,3.5463,3.5405,3.5367,3.5454,3.5519,3.5538,3.541,3.5367,0.0,0.0,0.0,2.419,2.419,2.419,2.419,2.419,2.419,2.419,2.419,2.419,2.419,2.419,2.419,2.419,2.419,2.419,2.419,2.419,0.0,0.0,0.0,0.0,0.0,0.0,0.0,0.0,2.419,2.419,2.419,2.3896,2.3555,2.3242,2.3533,2.3544,2.3212,2.3212,2.3773,2.4877,2.4877,2.5866,2.7684,2.6932,2.723,2.8317,2.7541,2.7662,2.8384,2.8389,2.8407,2.8458,2.8851,2.851,2.7879,2.8675,2.8466,2.7879,2.8693,2.8968,2.8968,2.8998,2.9017,2.9055,2.933,2.9412,2.9454,2.9662,2.9705,2.9713,2.9722,2.9861,3.0075,3.0349,3.0404,3.0404,3.0404,3.0404,3.0404,3.0404,3.0447,3.0503,3.0503,3.0551,3.0609,3.0611,3.0611,3.0638,3.0692,3.0716,3.0767,3.0898,3.0898,3.0838,3.0717,3.0713,3.1434,3.3102,3.321,3.3968,3.5622,3.563,3.5452,3.5192,3.5127,3.4963,3.4694,3.4963,3.5127,3.5179,3.485,3.4684,2.419,0.0,0.0,0.0,0.0,0.0,0.0,2.419,2.419,2.419,2.419,2.419,2.419,2.419,2.419,2.419,2.419,2.419,2.419,2.419,2.419,0.0,0.0,0.0,0.0,0.0,0.0,0.0,2.419,2.419,2.419,2.4103,2.3907,2.3566,2.366,2.366,2.3566,2.3555,2.3833,2.4393,2.4393,2.484,2.5631,2.6005,2.6675,2.7523,2.7307,2.7477,2.7988,2.8274,2.8565,2.8851,2.897,2.851,2.7835,2.8044,2.7622,2.7053,2.7842,2.8136,2.8261,2.904,2.9289,2.9322,2.9551,2.9626,2.9635,2.9687,2.9804,2.9954,3.0155,3.0241,3.0311,3.0373,3.0404,3.0404,3.0404,3.0404,3.0404,3.0404,3.0447,3.0524,3.0558,3.0636,3.0707,3.0809,3.0811,3.0814,3.0837,3.0838,3.0858,3.0898,3.0815,3.0744,3.0696,3.1224,3.2024,3.3135,3.3701,3.4487,3.5587,3.5374,3.5193,3.5138,3.4916,3.4764,3.4694,3.4764,3.4823,3.485,3.4745,3.4561,0.0,0.0,0.0,0.0,0.0,0.0,2.419,2.419,2.419,0.0,2.419,2.419,2.419,2.419,2.419,2.419,2.419,2.419,2.419,2.419,2.419,0.0,0.0,0.0,0.0,2.419,2.419,2.419,2.419,2.419,2.419,2.419,2.4103,2.3917,2.3907,2.3907,2.3907,2.3907,2.4006,2.419,2.419,2.4494,2.5045,2.5201,2.5873,2.6931,2.6586,2.676,2.7317,2.7547,2.78,2.7996,2.7996,2.7512,2.6843,2.7181,2.6796,2.6209,2.7016,2.7348,2.7537,2.8152,2.8418,2.8596,2.915,2.9309,2.9428,2.9874,3.0073,3.0202,3.0361,3.0404,3.0404,3.0404,3.0404,3.0404,3.0404,3.0417,3.0441,3.0441,3.0509,3.0558,3.0638,3.0711,3.0815,3.0898,3.0898,3.0898,3.0898,3.0898,3.0898,3.0898,3.0771,3.0687,3.0667,3.1394,3.2217,3.3009,3.3817,3.4608,3.5361,3.5197,3.4971,3.4726,3.4563,3.4357,3.4074,3.4368,3.4357,3.4061,3.3876,3.3842,0.0,0.0,0.0,0.0,0.0,0.0,2.419,2.419,2.419,0.0,2.419,2.419,2.419,2.419,2.419,2.419,2.419,2.419,2.419,2.419,2.419,0.0,0.0,0.0,2.4151,2.418,2.418,2.4151,2.418,2.418,2.4151,2.4133,2.4141,2.4094,2.4132,2.4133,2.4133,2.418,2.419,2.419,2.419,2.4566,2.5246,2.4622,2.5107,2.6429,2.5705,2.5815,2.6465,2.6374,2.6437,2.6602,2.6602,2.6098,2.5485,2.6209,2.5952,2.5374,2.6203,2.6613,2.6795,2.6925,2.7095,2.7425,2.8396,2.8706,2.8912,2.9965,3.0327,3.0404,3.0404,3.0404,3.0404,3.0404,3.0404,3.041,3.0408,3.0457,3.0507,3.0513,3.0568,3.0638,3.0689,3.0815,3.0898,3.0898,3.0898,3.0898,3.0898,3.0898,3.0898,3.0879,3.0767,3.0667,3.0597,3.1335,3.211,3.284,3.3725,3.4462,3.5075,3.5079,3.4784,3.4211,3.4128,3.3758,3.3121,3.3718,3.3705,3.3105,3.2786,3.2962,0.0,0.0,0.0,0.0,0.0,0.0,2.419,2.419,2.419,0.0,2.419,2.419,2.419,2.419,2.419,2.419,2.419,2.419,2.419,2.419,2.419,0.0,0.0,0.0,2.3816,2.4036,2.4084,2.3816,2.4054,2.4084,2.3806,2.3795,2.3671,2.3403,2.366,2.3795,2.3795,2.4074,2.419,2.419,2.419,2.4281,2.4447,2.4934,2.5338,2.5631,2.5466,2.5485,2.5576,2.4942,2.5438,2.6602,2.6602,2.6098,2.5411,2.5576,2.5117,2.4567,2.5532,2.5903,2.6095,2.707,2.7405,2.7513,2.7947,2.8076,2.8261,2.9115,2.9871,3.0404,3.0404,3.0404,3.0404,3.0404,3.0404,3.0419,3.0477,3.0485,3.0533,3.0631,3.0677,3.0686,3.0693,3.0815,3.0898,3.0898,3.0898,3.0898,3.0898,3.0898,3.0858,3.0746,3.0665,3.0597,3.0521,3.1269,3.2056,3.2852,3.3725,3.4462,3.5075,3.4898,3.4603,3.42,3.367,3.313,3.2632,3.2757,3.2757,3.265,3.3137,3.3457,0.0,0.0,0.0,2.419,0.0,0.0,0.0,2.419,2.419,2.419,2.419,2.419,2.419,2.419,2.419,2.419,2.419,2.419,2.419,2.419,2.419,0.0,0.0,0.0,2.3714,2.3847,2.3886,2.3714,2.3703,2.3639,2.3448,2.3599,2.361,2.3448,2.3774,2.3937,2.3937,2.4132,2.419,2.419,2.419,2.419,2.4208,2.4622,2.4805,2.4805,2.4805,2.4805,2.4768,2.4373,2.4685,2.5401,2.5401,2.5162,2.4815,2.4912,2.47,2.443,2.5045,2.5294,2.5453,2.6059,2.632,2.6512,2.708,2.7563,2.7992,2.8396,2.9102,2.9756,2.9756,3.01,3.0462,3.0462,3.0487,3.0511,3.0548,3.0578,3.0611,3.0687,3.0747,3.0794,3.0794,3.0858,3.0898,3.0898,3.0898,3.0898,3.0898,3.0898,3.0857,3.0718,3.0648,3.0571,3.0511,3.1246,3.2045,3.2852,3.3592,3.4273,3.4879,3.4614,3.4211,3.371,3.2911,3.2383,3.2144,3.1988,3.2178,3.2739,3.2555,3.2852,0.0,0.0,0.0,0.0,0.0,2.419,0.0,0.0,0.0,0.0,0.0,0.0,0.0,0.0,0.0,0.0,0.0,0.0,0.0,2.4012,0.0,2.419,0.0,0.0,0.0,2.3544,2.3533,2.3599,2.3357,2.32,2.32,2.3466,2.3599,2.3599,2.3927,2.4103,2.4103,2.417,2.419,2.419,2.419,2.419,2.419,2.419,2.419,2.419,2.419,2.419,2.419,2.419,2.4218,2.4247,2.4209,2.4218,2.4275,2.4435,2.451,2.4583,2.4771,2.491,2.501,2.504,2.5163,2.5423,2.6135,2.6967,2.7645,2.7671,2.8254,2.8939,2.91,2.9703,3.0315,3.0474,3.0554,3.0609,3.0623,3.0667,3.0717,3.0723,3.0836,3.0898,3.0898,3.0898,3.0898,3.0898,3.0898,3.0898,3.0898,3.0879,3.0814,3.0687,3.0628,3.0544,3.0495,3.1075,3.1834,3.2762,3.3284,3.3871,3.4566,3.4211,3.3678,3.2934,3.2196,3.1821,3.1885,3.1496,3.1775,3.2642,3.1888,3.2168,0.0,0.0,0.0,0.0,2.4732,0.0,0.0,0.0,2.419,2.419,0.0,0.0,0.0,0.0,0.0,0.0,0.0,0.0,2.2833,2.3301,2.3876,2.4161,0.0,0.0,0.0,2.2996,2.2935,2.3224,2.3212,2.32,2.32,2.3242,2.3265,2.3265,2.3577,2.3764,2.3764,2.4054,2.419,2.419,2.419,2.419,2.419,2.419,2.419,2.419,2.419,2.419,2.419,2.419,2.4312,2.4444,2.4266,2.4312,2.4469,2.4495,2.4607,2.4797,2.4924,2.4992,2.5028,2.5208,2.5274,2.5327,2.5423,2.6058,2.6756,2.6825,2.7464,2.8302,2.9087,2.9366,2.9629,3.0393,3.0597,3.0623,3.0679,3.0692,3.0743,3.0858,3.0898,3.0898,3.0898,3.0898,3.0898,3.0898,3.0898,3.0898,3.0898,3.0793,3.0686,3.0625,3.0544,3.0491,3.0425,3.0493,3.1124,3.2466,3.2599,3.3136,3.4213,3.3656,3.2885,3.1969,3.1844,3.1948,3.2238,3.1606,3.138,3.1505,3.2085,3.2463,0.0,0.0,0.0,0.0,0.0,0.0,2.43,0.0,2.419,0.0,0.0,0.0,0.0,0.0,0.0,0.0,2.3825,0.0,0.0,0.0,2.3448,0.0,0.0,0.0,0.0,0.0,0.0,0.0,2.3021,2.2996,2.3189,2.338,2.35,2.35,2.3816,2.3996,2.3996,2.4141,2.419,2.419,2.419,2.419,2.419,2.419,2.419,2.419,2.419,2.419,2.419,2.419,2.4321,2.4495,2.441,2.4495,2.4685,2.4766,2.4838,2.4943,2.5118,2.5168,2.5198,2.5269,2.5308,2.5308,2.5308,2.5586,2.5904,2.5933,2.6601,2.7495,2.8371,2.9014,2.9628,3.0468,3.0725,3.0783,3.0814,3.0816,3.0837,3.0898,3.0898,3.0898,3.0898,3.0898,3.0898,3.0898,3.0898,3.0898,3.0898,3.0771,3.0677,3.0611,3.0545,3.0467,3.0416,3.026,3.0849,3.24,3.2909,3.3275,3.3625,3.2818,3.2213,3.1825,3.1616,3.1578,3.172,3.1483,3.1362,3.1353,3.1703,3.2102,2.6778,0.0,0.0,0.0,0.0,0.0,0.0,0.0,0.0,0.0,0.0,0.0,0.0,0.0,0.0,0.0,0.0,2.3599,0.0,2.3135,0.0,0.0,0.0,0.0,0.0,0.0,0.0,2.292,2.2802,2.2848,2.3177,2.3522,2.3735,2.3827,2.4074,2.419,2.419,2.419,2.419,2.419,2.419,2.419,2.419,2.419,2.419,2.419,2.419,2.419,2.419,2.419,2.4348,2.4575,2.4575,2.4738,2.4936,2.498,2.5034,2.5099,2.5253,2.5308,2.5308,2.5308,2.5308,2.5293,2.5312,2.5359,2.5413,2.5447,2.5943,2.6736,2.7868,2.8658,2.9438,3.0494,3.0836,3.0898,3.0898,3.0898,3.0898,3.0898,3.0898,3.0898,3.0898,3.0898,3.0898,3.0898,3.0898,3.0898,3.0898,3.0766,3.0642,3.0611,3.0517,3.0447,3.0396,3.015,3.0608,3.2024,3.2975,3.3281,3.2822,3.2161,3.1765,3.1654,3.1429,3.1407,3.1619,3.1467,3.1531,3.1716,3.1516,3.1613,0.0,0.0,0.0,2.7725,0.0,0.0,0.0,0.0,2.419,0.0,0.0,0.0,0.0,0.0,0.0,0.0,0.0,0.0,0.0,0.0,0.0,0.0,0.0,0.0,0.0,0.0,0.0,2.2338,2.2563,2.2848,2.3177,2.3522,2.3837,2.417,2.419,2.419,2.419,2.419,2.419,2.419,2.419,2.419,2.419,2.419,2.419,2.419,2.419,2.419,2.419,2.419,2.4426,2.479,2.479,2.4981,2.5259,2.5077,2.5116,2.5284,2.5303,2.5308,2.5308,2.5308,2.5308,2.5313,2.5376,2.5402,2.5437,2.5556,2.5619,2.6056,2.7831,2.832,2.8769,3.0488,3.0898,3.0898,3.0898,3.0898,3.0898,3.0898,3.0898,3.0898,3.0898,3.0898,3.0898,3.0898,3.0898,3.0898,3.0898,3.0723,3.0606,3.0603,3.0482,3.041,3.0404,3.015,3.0335,3.1097,3.246,3.2791,3.188,3.1825,3.1647,3.1314,3.132,3.1694,3.2444,3.1748,3.1805,3.2528,3.1823,3.1087,0.0,0.0,2.8473,2.7934,0.0,0.0,0.0,0.0,0.0,0.0,0.0,0.0,0.0,0.0,0.0,0.0,0.0,0.0,0.0,0.0,0.0,0.0,0.0,0.0,0.0,0.0,0.0,2.255,2.273,2.3038,2.3511,2.3837,2.3986,2.3876,2.4084,2.4094,2.3876,2.4084,2.419,2.419,2.419,2.419,2.419,2.419,2.419,2.419,2.419,2.419,2.4209,2.4339,2.4569,2.4811,2.4897,2.509,2.5284,2.5219,2.5229,2.5308,2.5308,2.5308,2.5308,2.5308,2.5321,2.5371,2.5391,2.5465,2.5545,2.5594,2.5633,2.5936,2.7129,2.7871,2.8594,2.9766,3.0488,3.0898,3.0898,3.0898,3.0898,3.0898,3.0898,3.0898,3.0898,3.0836,3.0793,3.0898,3.0816,3.0769,3.0769,3.0625,3.0537,3.0537,3.0447,3.0323,3.015,3.049,3.078,3.088,3.1775,3.2144,3.1808,3.2008,3.1867,3.1298,3.1823,3.2004,3.1763,3.1579,3.1611,3.1838,3.1073,3.0554,2.9066,2.9145,0.0,2.8378,2.7805,0.0,2.6072,0.0,0.0,0.0,0.0,0.0,0.0,0.0,0.0,0.0,0.0,0.0,0.0,2.2548,0.0,0.0,0.0,0.0,0.0,2.2388,2.1738,2.0044,2.1841,2.3111,0.0,0.0,2.3753,2.3533,2.3855,2.3917,2.3703,2.4026,2.419,2.419,2.419,2.419,2.419,2.419,2.419,2.419,2.419,2.419,2.4209,2.4428,2.4615,2.4799,2.4943,2.5116,2.5308,2.5308,2.5308,2.5308,2.5308,2.5308,2.5308,2.5308,2.5321,2.5379,2.5411,2.5503,2.5569,2.561,2.5661,2.5898,2.6777,2.7656,2.8516,2.9394,3.0273,3.0898,3.0898,3.0898,3.0898,3.0898,3.0858,3.0836,3.0836,3.0738,3.0705,3.0814,3.0738,3.065,3.065,3.0568,3.0498,3.0498,3.0353,3.0249,3.0213,3.0765,3.1065,3.0969,3.1512,3.1734,3.1603,3.1791,3.183,3.1651,3.1935,3.1986,3.1796,3.1605,3.1511,3.1467,3.0359,2.9858]}]]